[[{"header":{"parameterUnit":"m.s-1","parameterCategory":1,"la1":30.6,"la2":28.766,"lo1":-90.7593,"lo2":-88.6598,"dy":0.0162,"dx":0.0183,"nx":116,"ny":114,"refTime":"2024-03-22T06:00:00:Z","depth":0,"parameterNumber":2,"parameterNumberName":"U-component_of_WINDS"},"data":[0.0,0.0,0.0,0.0,0.0,0.0,0.0,0.0,0.0,0.0,0.0,0.0,0.0,0.0,0.0,0.0,0.0,0.0,0.0,0.0,0.0,0.0,0.0,0.0,0.0,0.0,0.0,0.0,0.0,0.0,0.0,0.0,0.0,0.0,0.0,0.0,0.0,0.0,0.0,0.0,0.0,0.0,0.0,0.0,0.0,0.0,0.0,0.0,0.0,0.0,0.0,0.0,0.0,0.0,0.0,0.0,0.0,0.0,0.0,0.0,0.0,0.0,0.0,0.0,0.0,0.0,0.0,0.0,0.0,0.0,0.0,0.0,0.0,0.0,0.0,0.0,0.0,0.0,0.0,0.0,0.0,0.0,0.0,0.0,0.0,0.0,0.0,0.0,0.0,0.0,0.0,0.0,0.0,0.0,0.0,0.0,0.0,0.0,0.0,0.0,0.0,0.0,0.0,0.0,0.0,0.0,0.0,0.0,0.0,0.0,0.0,0.0,0.0,0.0,0.0,0.0,0.0,0.0,0.0,0.0,0.0,0.0,0.0,0.0,0.0,0.0,0.0,0.0,0.0,0.0,0.0,0.0,0.0,0.0,0.0,0.0,0.0,0.0,0.0,0.0,0.0,0.0,0.0,0.0,0.0,0.0,0.0,0.0,0.0,0.0,0.0,0.0,0.0,0.0,0.0,0.0,0.0,0.0,0.0,0.0,0.0,0.0,0.0,0.0,0.0,0.0,0.0,0.0,0.0,0.0,0.0,0.0,0.0,0.0,0.0,0.0,0.0,0.0,0.0,0.0,0.0,0.0,0.0,0.0,0.0,0.0,0.0,0.0,0.0,0.0,0.0,0.0,0.0,0.0,0.0,0.0,0.0,0.0,0.0,0.0,0.0,0.0,0.0,0.0,0.0,0.0,0.0,0.0,0.0,0.0,0.0,0.0,0.0,0.0,0.0,0.0,0.0,0.0,0.0,0.0,0.0,0.0,0.0,0.0,0.0,0.0,0.0,0.0,0.0,0.0,0.0,0.0,0.0,0.0,0.0,0.0,0.0,0.0,0.0,0.0,0.0,0.0,0.0,0.0,0.0,0.0,0.0,0.0,0.0,0.0,0.0,0.0,0.0,0.0,0.0,0.0,0.0,0.0,0.0,0.0,0.0,0.0,0.0,0.0,0.0,0.0,0.0,0.0,0.0,0.0,0.0,0.0,0.0,0.0,0.0,0.0,0.0,0.0,0.0,0.0,0.0,0.0,0.0,0.0,0.0,0.0,0.0,0.0,0.0,0.0,0.0,0.0,0.0,0.0,0.0,0.0,0.0,0.0,0.0,0.0,0.0,0.0,0.0,0.0,0.0,0.0,0.0,0.0,0.0,0.0,0.0,0.0,0.0,0.0,0.0,0.0,0.0,0.0,0.0,0.0,0.0,0.0,0.0,0.0,0.0,0.0,0.0,0.0,0.0,0.0,0.0,0.0,0.0,0.0,0.0,0.0,0.0,0.0,0.0,0.0,0.0,0.0,0.0,0.0,0.0,0.0,0.0,0.0,0.0,0.0,0.0,0.0,0.0,0.0,0.0,0.0,0.0,0.0,0.0,0.0,0.0,0.0,0.0,0.0,0.0,0.0,0.0,0.0,0.0,0.0,0.0,0.0,0.0,0.0,0.0,0.0,0.0,0.0,0.0,0.0,0.0,0.0,0.0,0.0,0.0,0.0,0.0,0.0,0.0,0.0,0.0,0.0,0.0,0.0,0.0,0.0,0.0,0.0,0.0,0.0,0.0,0.0,0.0,0.0,0.0,0.0,0.0,0.0,0.0,0.0,0.0,0.0,0.0,0.0,0.0,0.0,0.0,0.0,0.0,0.0,0.0,0.0,0.0,0.0,0.0,0.0,0.0,0.0,0.0,0.0,0.0,0.0,0.0,0.0,0.0,0.0,0.0,0.0,0.0,0.0,0.0,0.0,0.0,0.0,0.0,0.0,0.0,0.0,0.0,0.0,0.0,0.0,0.0,0.0,0.0,0.0,0.0,0.0,0.0,0.0,0.0,0.0,0.0,0.0,0.0,0.0,0.0,0.0,0.0,0.0,0.0,0.0,0.0,0.0,0.0,0.0,0.0,0.0,0.0,0.0,0.0,0.0,0.0,0.0,0.0,0.0,0.0,0.0,0.0,0.0,0.0,0.0,0.0,0.0,0.0,0.0,0.0,0.0,0.0,0.0,0.0,0.0,0.0,0.0,0.0,0.0,0.0,0.0,0.0,0.0,0.0,0.0,0.0,0.0,0.0,0.0,0.0,0.0,0.0,0.0,0.0,0.0,0.0,0.0,0.0,0.0,0.0,0.0,0.0,0.0,0.0,0.0,0.0,0.0,0.0,0.0,0.0,0.0,0.0,0.0,0.0,0.0,0.0,0.0,0.0,0.0,0.0,0.0,0.0,0.0,0.0,0.0,0.0,0.0,0.0,0.0,0.0,0.0,0.0,0.0,0.0,0.0,0.0,0.0,0.0,0.0,0.0,0.0,0.0,0.0,0.0,0.0,0.0,0.0,0.0,0.0,0.0,0.0,0.0,0.0,0.0,0.0,0.0,0.0,0.0,0.0,0.0,0.0,0.0,0.0,0.0,0.0,0.0,0.0,0.0,0.0,0.0,0.0,0.0,0.0,0.0,0.0,0.0,0.0,0.0,0.0,0.0,0.0,0.0,0.0,0.0,0.0,0.0,0.0,0.0,0.0,0.0,0.0,0.0,0.0,0.0,0.0,0.0,0.0,0.0,0.0,0.0,0.0,0.0,0.0,0.0,0.0,0.0,0.0,0.0,0.0,0.0,0.0,0.0,0.0,0.0,0.0,0.0,0.0,0.0,0.0,0.0,0.0,0.0,0.0,0.0,0.0,0.0,0.0,0.0,0.0,0.0,0.0,0.0,0.0,0.0,0.0,0.0,0.0,0.0,0.0,0.0,0.0,0.0,0.0,0.0,0.0,0.0,0.0,0.0,0.0,0.0,0.0,0.0,0.0,0.0,0.0,0.0,0.0,0.0,0.0,0.0,0.0,0.0,0.0,0.0,0.0,0.0,0.0,0.0,0.0,0.0,0.0,0.0,0.0,0.0,0.0,0.0,0.0,0.0,0.0,0.0,0.0,0.0,0.0,0.0,0.0,0.0,0.0,0.0,0.0,0.0,0.0,0.0,0.0,0.0,0.0,0.0,0.0,0.0,0.0,0.0,0.0,0.0,0.0,0.0,0.0,0.0,0.0,0.0,0.0,0.0,0.0,0.0,0.0,0.0,0.0,0.0,0.0,0.0,0.0,0.0,0.0,0.0,0.0,0.0,0.0,0.0,0.0,0.0,0.0,0.0,0.0,0.0,0.0,0.0,0.0,0.0,0.0,0.0,0.0,0.0,0.0,0.0,0.0,0.0,0.0,0.0,0.0,0.0,0.0,0.0,0.0,0.0,0.0,0.0,0.0,0.0,0.0,0.0,0.0,0.0,0.0,0.0,0.0,0.0,0.0,0.0,0.0,0.0,0.0,0.0,0.0,0.0,0.0,0.0,0.0,0.0,0.0,0.0,0.0,0.0,0.0,0.0,0.0,0.0,0.0,0.0,0.0,0.0,0.0,0.0,0.0,0.0,0.0,0.0,0.0,0.0,0.0,0.0,0.0,0.0,0.0,0.0,0.0,0.0,0.0,0.0,0.0,0.0,0.0,0.0,0.0,0.0,0.0,0.0,0.0,0.0,0.0,0.0,0.0,0.0,0.0,0.0,0.0,0.0,0.0,0.0,0.0,0.0,0.0,0.0,0.0,0.0,0.0,0.0,0.0,0.0,0.0,0.0,0.0,0.0,0.0,0.0,0.0,0.0,0.0,0.0,0.0,0.0,0.0,0.0,0.0,0.0,0.0,0.0,0.0,0.0,0.0,0.0,0.0,0.0,0.0,0.0,0.0,0.0,0.0,0.0,0.0,0.0,0.0,0.0,0.0,0.0,0.0,0.0,0.0,0.0,0.0,0.0,0.0,0.0,0.0,0.0,0.0,0.0,0.0,0.0,0.0,0.0,0.0,0.0,0.0,0.0,0.0,0.0,0.0,0.0,0.0,0.0,0.0,0.0,0.0,0.0,0.0,0.0,0.0,0.0,0.0,0.0,0.0,0.0,0.0,0.0,0.0,0.0,0.0,0.0,0.0,0.0,0.0,0.0,0.0,0.0,0.0,0.0,0.0,0.0,0.0,0.0,0.0,0.0,0.0,0.0,0.0,0.0,0.0,0.0,0.0,0.0,0.0,0.0,0.0,0.0,0.0,0.0,0.0,0.0,0.0,0.0,0.0,0.0,0.0,0.0,0.0,0.0,0.0,0.0,0.0,0.0,0.0,0.0,0.0,0.0,0.0,0.0,0.0,0.0,0.0,0.0,0.0,0.0,0.0,0.0,0.0,0.0,0.0,0.0,0.0,0.0,0.0,0.0,0.0,0.0,0.0,0.0,0.0,0.0,0.0,0.0,0.0,0.0,0.0,0.0,0.0,0.0,0.0,0.0,0.0,0.0,0.0,0.0,0.0,0.0,0.0,0.0,0.0,0.0,0.0,0.0,0.0,0.0,0.0,0.0,0.0,0.0,0.0,0.0,0.0,0.0,0.0,0.0,0.0,0.0,0.0,0.0,0.0,0.0,0.0,0.0,0.0,0.0,0.0,0.0,0.0,0.0,0.0,0.0,0.0,0.0,0.0,0.0,0.0,0.0,0.0,0.0,0.0,0.0,0.0,0.0,0.0,0.0,0.0,0.0,0.0,0.0,0.0,0.0,0.0,0.0,0.0,0.0,0.0,0.0,0.0,0.0,0.0,0.0,0.0,0.0,0.0,0.0,0.0,0.0,0.0,0.0,0.0,0.0,0.0,0.0,0.0,0.0,0.0,0.0,0.0,0.0,0.0,0.0,0.0,0.0,0.0,0.0,0.0,0.0,0.0,0.0,0.0,0.0,0.0,0.0,0.0,0.0,0.0,0.0,0.0,0.0,0.0,0.0,0.0,0.0,0.0,0.0,0.0,0.0,0.0,0.0,0.0,0.0,0.0,0.0,0.0,0.0,0.0,0.0,0.0,0.0,0.0,0.0,0.0,0.0,0.0,0.0,0.0,0.0,0.0,0.0,0.0,0.0,0.0,0.0,0.0,0.0,0.0,0.0,0.0,0.0,0.0,0.0,0.0,0.0,0.0,0.0,0.0,0.0,0.0,0.0,0.0,0.0,0.0,0.0,0.0,0.0,0.0,0.0,0.0,0.0,0.0,0.0,0.0,0.0,0.0,0.0,0.0,0.0,0.0,0.0,0.0,0.0,0.0,0.0,0.0,0.0,0.0,0.0,0.0,0.0,0.0,0.0,0.0,0.0,0.0,0.0,0.0,0.0,0.0,0.0,0.0,0.0,0.0,0.0,0.0,0.0,0.0,0.0,0.0,0.0,0.0,0.0,0.0,0.0,0.0,0.0,0.0,0.0,0.0,0.0,0.0,0.0,0.0,0.0,0.0,0.0,0.0,0.0,0.0,0.0,0.0,0.0,0.0,0.0,0.0,0.0,0.0,0.0,0.0,0.0,0.0,0.0,0.0,0.0,0.0,0.0,0.0,0.0,0.0,0.0,0.0,0.0,0.0,0.0,0.0,0.0,0.0,0.0,0.0,0.0,0.0,0.0,0.0,0.0,0.0,0.0,0.0,0.0,0.0,0.0,0.0,0.0,0.0,0.0,0.0,0.0,0.0,0.0,0.0,0.0,0.0,0.0,0.0,0.0,0.0,0.0,0.0,0.0,0.0,0.0,0.0,0.0,0.0,0.0,0.0,0.0,0.0,0.0,0.0,0.0,0.0,0.0,0.0,0.0,0.0,0.0,0.0,0.0,0.0,0.0,0.0,0.0,0.0,0.0,0.0,0.0,0.0,0.0,0.0,0.0,0.0,0.0,0.0,0.0,0.0,0.0,0.0,0.0,0.0,0.0,0.0,0.0,0.0,0.0,0.0,0.0,0.0,0.0,0.0,0.0,0.0,0.0,0.0,0.0,0.0,0.0,0.0,0.0,0.0,0.0,0.0,0.0,0.0,0.0,0.0,0.0,0.0,0.0,0.0,-6.4597,-6.5355,0.0,0.0,0.0,0.0,0.0,0.0,0.0,0.0,0.0,0.0,0.0,0.0,0.0,0.0,0.0,0.0,0.0,0.0,0.0,0.0,0.0,0.0,0.0,0.0,0.0,0.0,-7.4869,-7.4869,-7.4869,-7.4869,0.0,0.0,0.0,0.0,-7.351,-7.2915,-7.2602,-7.2602,-7.1855,-7.1,-7.0237,-7.0237,-7.0707,-7.1494,0.0,0.0,0.0,0.0,0.0,0.0,0.0,0.0,0.0,0.0,0.0,0.0,0.0,0.0,0.0,0.0,0.0,0.0,0.0,0.0,0.0,0.0,0.0,0.0,0.0,0.0,0.0,0.0,0.0,0.0,0.0,0.0,0.0,0.0,0.0,0.0,0.0,0.0,0.0,0.0,0.0,0.0,0.0,0.0,0.0,0.0,0.0,0.0,0.0,0.0,0.0,0.0,0.0,0.0,0.0,0.0,0.0,0.0,0.0,0.0,0.0,0.0,0.0,0.0,0.0,0.0,0.0,0.0,0.0,0.0,-6.3128,-6.4665,0.0,0.0,0.0,0.0,0.0,0.0,0.0,0.0,0.0,0.0,0.0,0.0,0.0,0.0,0.0,0.0,0.0,0.0,0.0,0.0,0.0,0.0,0.0,-7.4869,-7.4869,-7.4869,-7.4869,-7.4869,-7.4869,-7.4869,-7.4869,-7.48,-7.4179,-7.379,-7.372,-7.2986,-7.2459,-7.2172,-7.056,-6.8868,-6.7242,-6.7242,-6.8034,-6.9373,-6.9672,0.0,0.0,0.0,0.0,0.0,0.0,0.0,0.0,0.0,0.0,0.0,0.0,0.0,0.0,0.0,0.0,0.0,0.0,0.0,0.0,0.0,0.0,0.0,0.0,0.0,0.0,0.0,0.0,0.0,0.0,0.0,0.0,0.0,0.0,0.0,0.0,0.0,0.0,0.0,0.0,0.0,0.0,0.0,0.0,0.0,0.0,0.0,0.0,0.0,0.0,0.0,0.0,0.0,0.0,0.0,0.0,0.0,0.0,0.0,0.0,0.0,0.0,0.0,-5.9247,-5.8995,-5.7497,-5.9087,-5.8973,-5.759,-6.0838,-6.2784,-6.3757,-6.3829,0.0,0.0,0.0,0.0,0.0,0.0,0.0,0.0,0.0,0.0,0.0,0.0,0.0,0.0,0.0,0.0,0.0,0.0,0.0,-7.4869,-7.4869,-7.4869,-7.4869,-7.4869,-7.4869,-7.4869,-7.4869,-7.4869,-7.4731,-7.4387,-7.397,-7.365,-7.3298,-7.2844,-7.1928,-7.0515,-6.8868,-6.7192,-6.5582,-6.5582,-6.5739,-6.5975,-6.7422,-6.8159,-6.8311,0.0,0.0,0.0,0.0,0.0,0.0,0.0,0.0,0.0,0.0,0.0,0.0,0.0,0.0,0.0,0.0,0.0,0.0,0.0,0.0,0.0,0.0,0.0,0.0,0.0,0.0,0.0,0.0,0.0,0.0,0.0,0.0,0.0,0.0,0.0,0.0,0.0,0.0,0.0,0.0,0.0,-6.4789,-6.4702,0.0,0.0,0.0,0.0,0.0,0.0,0.0,0.0,0.0,0.0,0.0,0.0,0.0,-5.7938,-5.7938,-5.7683,-5.7475,-5.7475,-5.7683,-5.7683,-5.7405,-5.7683,-5.7683,-5.7405,-5.796,0.0,-5.9084,-5.9478,0.0,0.0,0.0,0.0,0.0,0.0,0.0,0.0,0.0,0.0,0.0,0.0,0.0,0.0,0.0,0.0,0.0,0.0,0.0,0.0,0.0,-7.4869,-7.4869,-7.4869,-7.4869,-7.4869,-7.4869,-7.4869,-7.48,-7.4663,-7.4248,-7.3901,-7.358,-7.3128,-7.1538,-6.8792,-6.7192,-6.5503,-6.3907,-6.3907,-6.3907,-6.3907,-6.4657,-6.5948,-6.7702,-6.7702,0.0,0.0,0.0,0.0,0.0,0.0,0.0,0.0,0.0,0.0,0.0,0.0,0.0,0.0,0.0,0.0,0.0,0.0,0.0,0.0,0.0,0.0,0.0,0.0,0.0,0.0,0.0,0.0,0.0,0.0,0.0,0.0,0.0,0.0,0.0,0.0,0.0,0.0,0.0,-6.4789,-6.4527,-6.4026,-6.4353,-6.4527,0.0,0.0,0.0,0.0,0.0,0.0,0.0,0.0,0.0,-5.7405,-5.6286,-5.5723,-5.5723,-5.461,-5.404,-5.404,-5.5157,-5.5157,-5.404,-5.5157,-5.5084,-5.404,-5.404,-5.4163,-5.456,-5.7363,-5.9262,-6.0507,0.0,0.0,0.0,0.0,-6.0244,-6.0168,0.0,0.0,0.0,0.0,0.0,0.0,0.0,0.0,0.0,0.0,0.0,0.0,-7.4869,-7.4869,-7.4869,-7.4869,-7.4869,-7.4869,-7.4869,-7.4869,-7.4869,-7.4869,-7.4525,-7.411,-7.3831,-7.2501,-7.0459,-6.7702,-6.5661,-6.3988,-6.2822,-6.2822,-6.2822,-6.2822,-6.2822,-6.4123,-6.6495,-6.6495,-6.6495,-6.6495,0.0,0.0,0.0,0.0,0.0,0.0,0.0,0.0,0.0,0.0,0.0,0.0,0.0,0.0,0.0,0.0,0.0,0.0,0.0,0.0,0.0,0.0,0.0,0.0,0.0,0.0,0.0,0.0,0.0,0.0,0.0,0.0,0.0,0.0,0.0,0.0,0.0,-6.444,-6.4114,-6.3434,-6.3939,-6.3826,0.0,0.0,0.0,0.0,0.0,0.0,-5.6753,-5.666,-5.6379,-5.591,-5.442,-5.3678,-5.3678,-5.2181,-5.1426,-5.1426,-5.2932,-5.2836,-5.1426,-5.2932,-5.2836,-5.1426,-5.1426,-5.1426,-5.1659,-5.5183,-5.7154,-5.8104,-5.7998,-5.8565,-5.9386,-5.8895,-5.8697,-5.85,0.0,0.0,0.0,0.0,0.0,0.0,0.0,0.0,0.0,0.0,0.0,-7.4869,-7.4869,-7.4869,-7.4869,-7.4869,-7.4869,-7.4869,-7.4869,-7.4869,-7.4869,-7.4869,-7.4525,-7.411,-7.3831,-6.9959,-6.7855,-6.7702,-6.4497,-6.2904,-6.2822,-6.2822,-6.2822,-6.2822,-6.2822,-6.2904,-6.3067,-6.3067,-6.3067,-6.3067,-6.3067,0.0,0.0,0.0,0.0,0.0,0.0,0.0,0.0,0.0,0.0,0.0,0.0,0.0,0.0,0.0,0.0,0.0,0.0,0.0,0.0,0.0,0.0,0.0,0.0,0.0,0.0,0.0,0.0,0.0,0.0,0.0,0.0,0.0,0.0,0.0,0.0,0.0,0.0,-6.3346,-6.3346,0.0,0.0,0.0,0.0,-5.7683,-5.759,-5.666,-5.4705,-5.4515,-5.3678,-5.1814,-5.162,-5.1523,-5.1523,-5.1426,-5.1426,-5.1426,-5.1523,-5.1523,-5.1426,-5.1523,-5.1523,-5.1426,-5.1426,-5.1426,-5.1465,-5.209,-5.3858,-5.5925,-5.4345,-5.5185,-5.7053,-5.5001,-5.4329,-5.4329,0.0,0.0,0.0,0.0,0.0,0.0,0.0,0.0,-7.4869,-7.4869,-7.4869,-7.4869,-7.4869,-7.4869,-7.4869,-7.4869,-7.4869,-7.4869,-7.4869,-7.4869,-7.4869,-7.4869,-7.4731,-7.3911,-7.2229,-6.9215,-6.7165,-6.6183,-6.3907,-6.2822,-6.2822,-6.2822,-6.2822,-6.2822,-6.2822,-6.2822,-6.2822,-6.2822,-6.2822,-6.2822,-6.2822,-6.2822,0.0,0.0,0.0,0.0,0.0,0.0,0.0,0.0,0.0,0.0,0.0,0.0,0.0,0.0,0.0,0.0,0.0,0.0,0.0,0.0,0.0,0.0,0.0,0.0,0.0,0.0,0.0,0.0,0.0,0.0,0.0,0.0,0.0,0.0,0.0,0.0,0.0,-6.3346,-6.2232,0.0,-6.0476,-5.927,-5.7683,-5.5628,-5.544,-5.461,-5.2547,-5.2451,-5.2181,-5.1426,-5.1172,-5.1035,-5.1035,-5.0762,-5.0625,-5.0625,-5.0625,-5.0762,-5.1035,-5.1035,-5.1172,-5.1426,-5.1426,-5.1426,-5.1445,-5.1601,-5.2384,-5.3408,-5.3072,-5.3685,-5.4704,-5.4211,-5.4023,-5.4023,0.0,0.0,0.0,0.0,0.0,0.0,0.0,0.0,-7.4869,-7.4869,-7.4869,-7.4869,-7.4869,-7.4869,-7.4869,-7.4869,-7.4869,-7.4869,-7.4869,-7.4869,-7.4869,-7.4869,-7.4663,-7.3801,-7.2157,-6.9215,-6.7165,-6.6105,-6.3907,-6.2822,-6.2822,-6.2822,-6.2822,-6.2822,-6.2822,-6.2822,-6.2822,-6.2822,-6.2822,-6.2822,-6.2822,-6.2822,-6.2822,0.0,0.0,0.0,0.0,0.0,0.0,0.0,0.0,0.0,0.0,0.0,0.0,0.0,0.0,0.0,0.0,0.0,0.0,0.0,0.0,0.0,0.0,0.0,0.0,0.0,0.0,0.0,0.0,0.0,0.0,0.0,0.0,0.0,0.0,-6.3498,-6.3346,-6.3346,-6.1582,-6.0113,-5.9453,-5.759,-5.5534,-5.3583,-5.3391,-5.2776,-5.1327,-5.123,-5.1152,-5.1016,-5.0742,-5.0586,-5.0586,-5.0312,-5.0176,-5.0176,-5.0176,-5.0332,-5.0586,-5.0586,-5.0742,-5.1016,-5.1016,-5.1016,-5.1016,-5.1172,-5.1387,-5.1719,-5.2266,-5.2851,-5.3398,-5.3691,-5.3906,-5.4023,0.0,0.0,0.0,0.0,0.0,0.0,-7.4869,-7.4869,-7.4869,-7.4869,-7.4869,-7.4869,-7.4869,-7.4869,-7.4869,-7.4869,-7.4869,-7.4869,-7.4869,-7.4869,-7.4869,-7.4869,-7.4179,-7.3761,-7.3691,-6.9811,-6.7702,-6.7625,-6.4443,-6.2822,-6.2822,-6.2822,-6.2822,-6.2822,-6.2822,-6.2822,-6.2822,-6.2822,-6.2822,-6.2822,-6.2822,-6.2822,-6.2822,0.0,0.0,0.0,0.0,0.0,0.0,0.0,0.0,0.0,0.0,0.0,0.0,0.0,0.0,0.0,0.0,0.0,0.0,0.0,0.0,0.0,0.0,0.0,0.0,0.0,0.0,0.0,0.0,0.0,0.0,0.0,0.0,0.0,-6.3346,-6.3346,-6.3257,-6.3257,-6.1492,-5.9544,-5.7497,-5.5534,-5.3467,-5.1503,-5.1406,-5.1211,-5.0801,-5.0781,-5.0605,-5.0195,-5.0176,-5.0156,-5.0156,-5.0137,-5.0137,-5.0137,-5.0137,-5.0137,-5.0156,-5.0156,-5.0176,-5.0176,-5.0176,-5.0176,-5.0215,-5.0625,-5.0781,-5.0879,-5.1738,-5.2598,-5.332,-5.334,-5.3613,-5.4004,0.0,0.0,0.0,0.0,0.0,0.0,-7.4869,-7.4869,-7.4869,-7.4869,-7.4869,-7.4869,-7.4869,-7.4869,-7.4869,-7.4869,-7.4869,-7.4869,-7.4869,-7.4869,-7.4869,-7.4869,-7.4179,-7.324,-7.1985,-7.0385,-6.8338,-6.5975,-6.5055,-6.3988,-6.2822,-6.2822,-6.2822,-6.2822,-6.2822,-6.2822,-6.2822,-6.2822,-6.2822,-6.2822,-6.2822,-6.2822,-6.2822,0.0,0.0,0.0,0.0,0.0,0.0,0.0,0.0,0.0,0.0,0.0,0.0,0.0,0.0,0.0,0.0,0.0,0.0,0.0,0.0,0.0,0.0,0.0,0.0,0.0,0.0,0.0,0.0,0.0,0.0,0.0,-6.3498,-6.341,-6.3346,-6.3346,-6.279,-6.1402,-5.9453,-5.7405,-5.544,-5.3107,-5.1533,-5.0976,-5.0703,-5.0469,-5.0351,-5.0351,-5.0293,-5.0176,-4.9863,-4.9707,-4.9707,-4.9375,-4.9219,-4.9219,-4.9219,-4.9394,-4.9707,-4.9707,-4.9883,-5.0176,-5.0176,-5.0176,-5.0195,-5.0312,-5.0351,-5.0469,-5.1641,-5.2226,-5.2461,-5.2773,-5.3164,-5.3594,0.0,0.0,0.0,0.0,0.0,0.0,-7.4869,-7.4869,-7.4869,-7.4869,-7.4869,-7.4869,-7.4869,-7.4869,-7.4869,-7.4869,-7.4869,-7.4869,-7.4869,-7.4869,-7.4869,-7.4869,-7.4318,-7.3521,-7.2372,-7.1044,-6.9093,-6.6339,-6.5661,-6.4443,-6.2822,-6.2822,-6.2822,-6.2822,-6.2822,-6.2822,-6.2822,-6.2822,-6.2822,-6.2822,-6.2822,-6.2822,-6.2822,-6.2822,-6.2822,-6.2822,-6.2822,-6.2822,-6.2822,-6.2822,0.0,0.0,0.0,0.0,0.0,0.0,0.0,0.0,0.0,0.0,0.0,0.0,0.0,0.0,0.0,0.0,0.0,0.0,0.0,0.0,0.0,0.0,0.0,0.0,-6.3201,-6.3274,-6.3057,-6.3201,-6.2807,-6.1479,-5.9522,-5.7494,-5.5264,-5.3071,-5.1364,-5.0642,-5.0312,-5.0098,-4.9922,-4.9902,-4.9824,-4.9629,-4.9375,-4.9258,-4.9258,-4.8984,-4.8867,-4.8867,-4.8867,-4.8984,-4.9258,-4.9258,-4.9394,-4.9629,-4.9629,-4.9629,-4.9648,-4.9824,-4.9902,-5.0,0.0,0.0,0.0,0.0,-5.2344,-5.2617,0.0,0.0,0.0,0.0,0.0,0.0,-7.4869,-7.4869,-7.4869,-7.4869,-7.4869,-7.4869,-7.4869,-7.4869,-7.4869,-7.4869,-7.4869,-7.4869,-7.4869,-7.4869,-7.4869,-7.4869,-7.4525,-7.4179,-7.3831,-7.1942,-6.9959,-6.7778,-6.6261,-6.4603,-6.2822,-6.2822,-6.2822,-6.2822,-6.2822,-6.2822,-6.2822,-6.2822,-6.2822,-6.2822,-6.2822,-6.2822,-6.2822,-6.2822,-6.2822,-6.2822,-6.2822,-6.2822,-6.2822,-6.2822,0.0,0.0,0.0,0.0,0.0,0.0,0.0,0.0,0.0,0.0,0.0,0.0,0.0,0.0,0.0,0.0,0.0,0.0,0.0,0.0,0.0,0.0,0.0,0.0,-6.2865,-6.3009,-6.2552,-6.2889,-6.2897,-6.2266,-6.0384,-5.8278,-5.5847,-5.3864,-5.1918,-5.0287,-5.0058,-4.9863,-4.9473,-4.9453,0.0,0.0,0.0,-4.8867,-4.8867,-4.8867,-4.8867,-4.8867,-4.8867,-4.8867,-4.8867,-4.8867,-4.8867,-4.8867,-4.8867,-4.8867,-4.8887,-4.9297,-4.9453,-4.9492,-5.0,-5.041,-5.0781,-5.1211,-5.1367,-5.1426,0.0,0.0,0.0,0.0,0.0,0.0,-7.4869,-7.4869,-7.4869,-7.4869,-7.4869,-7.4869,-7.4869,-7.4869,-7.4869,-7.4869,-7.4869,-7.4869,-7.4869,-7.4869,-7.4869,-7.4869,-7.4525,-7.4248,-7.4179,-7.324,-7.1219,-6.8159,-6.7549,-6.5713,-6.2822,-6.2822,-6.2822,-6.2822,-6.2822,-6.2822,-6.2822,-6.2822,-6.2822,-6.2822,-6.2822,-6.2822,-6.2822,-6.2822,-6.2822,-6.2822,-6.2822,-6.2822,-6.2822,-6.2822,-6.2822,-6.2822,-6.2822,-6.2822,0.0,0.0,0.0,0.0,0.0,0.0,0.0,0.0,0.0,0.0,0.0,0.0,0.0,0.0,0.0,0.0,0.0,0.0,0.0,-6.1879,-6.2023,-6.2071,-6.1975,-6.2047,-6.1415,-5.9761,-5.785,-5.5912,-5.3814,-5.1489,-5.0023,-4.9648,-4.9316,-4.9082,-4.8984,-4.8984,-4.8945,-4.8867,-4.8867,-4.8867,-4.8867,-4.8867,-4.8867,-4.8867,-4.8867,0.0,-4.8867,-4.8867,-4.8867,-4.8867,-4.8867,-4.8867,-4.8867,-4.8945,-4.8984,-4.9062,-4.9863,-5.0234,-5.0351,-5.0781,-5.0918,-5.0996,0.0,0.0,0.0,0.0,0.0,0.0,-7.4869,-7.4869,-7.4869,-7.4869,-7.4869,-7.4869,-7.4869,-7.4869,-7.4869,-7.4869,-7.4869,-7.4869,-7.4869,-7.4869,-7.4869,-7.4869,-7.4731,-7.4525,-7.4318,-7.3901,-7.2472,-6.9811,-6.8586,-6.6701,-6.4258,-6.3286,-6.2822,-6.2822,-6.2822,-6.2822,-6.2822,-6.2822,-6.2822,-6.2822,-6.2822,-6.2822,-6.2822,-6.2822,-6.2822,-6.2822,-6.2822,-6.2822,-6.2822,-6.2822,-6.2822,-6.2822,-6.2822,-6.2822,-6.2822,0.0,0.0,0.0,0.0,0.0,0.0,0.0,0.0,0.0,0.0,0.0,0.0,0.0,0.0,-6.0495,-6.0616,0.0,-6.1061,-6.1326,-6.1374,-6.1374,-6.1374,-6.1157,-6.0353,-5.8632,-5.7664,-5.5773,-5.2666,-5.1291,-5.0158,-4.9272,-4.8984,-4.8867,-4.8867,-4.8867,-4.8867,-4.8867,-4.8867,-4.8867,-4.8867,-4.9082,-4.9199,-4.9199,-4.9414,-4.9512,-4.9512,-4.9512,-4.9512,-4.9512,-4.9512,-4.9394,-4.918,-4.8945,-4.8867,-4.8906,-4.9355,-4.9512,-4.9531,-4.9746,-4.9824,-4.9902,0.0,0.0,0.0,0.0,0.0,0.0,0.0,-7.4869,-7.4869,-7.4869,-7.4869,-7.4869,-7.4869,-7.4869,-7.4869,-7.4869,-7.4869,-7.4869,-7.4869,-7.4869,-7.4869,-7.4869,-7.4869,-7.4731,-7.4387,-7.4318,-7.3322,-7.1452,-6.9737,-6.798,-6.6234,-6.4258,-6.3367,-6.3286,-6.2985,-6.2822,-6.2822,-6.2822,-6.2822,-6.2822,-6.2822,-6.2822,-6.2822,-6.2822,-6.2822,-6.2822,-6.2822,-6.2822,-6.2822,-6.2822,-6.2822,-6.2822,-6.2822,-6.2822,-6.2822,-6.2822,-6.2822,0.0,0.0,0.0,0.0,0.0,0.0,0.0,0.0,-6.1448,-6.1066,-6.0218,-6.0027,-6.0003,-5.9883,-6.0219,-6.0508,-6.0508,-6.0508,-6.0508,-6.0508,-6.0123,-5.9354,-5.7982,-5.7599,-5.6086,-5.2608,-5.1597,-5.053,-4.9032,-4.8867,-4.8867,-4.8867,-4.8867,-4.8867,-4.8867,-4.8867,-4.8906,-4.8984,-4.9355,-4.957,-4.9648,-5.0019,-5.0176,-5.0176,-5.0176,-5.0176,-5.0176,-5.0176,-4.998,-4.9629,-4.9258,-4.9121,-4.9121,-4.9121,-4.9121,-4.9101,-4.9023,-4.8984,-4.9062,0.0,0.0,0.0,0.0,0.0,0.0,0.0,0.0,-7.4869,-7.4869,-7.4869,-7.4869,-7.4869,-7.4869,-7.4869,-7.4869,-7.4869,-7.4869,-7.4869,-7.4869,-7.4869,-7.4869,-7.4869,-7.4869,-7.48,-7.4456,-7.3462,-7.1856,-7.1206,-6.9959,-6.798,-6.6234,-6.5345,-6.4975,-6.3448,-6.2822,-6.2822,-6.2822,-6.2822,-6.2822,-6.2822,-6.2822,-6.2822,-6.2822,-6.2822,-6.2822,-6.2822,-6.2822,-6.2822,-6.2822,-6.2822,-6.2822,-6.2822,-6.2822,-6.2822,-6.2822,-6.2822,-6.2822,-6.2822,-6.2822,-6.2722,-6.222,-6.2227,-6.2084,0.0,-6.1174,-6.0612,-5.9653,-5.9474,-5.9329,-5.8848,-5.8824,-5.8872,-5.8872,-5.8872,-5.8872,-5.8872,-5.88,-5.8284,-5.6967,-5.5657,-5.4741,-5.4235,-5.1145,-4.9124,-4.8959,-4.8867,-4.8867,-4.8867,-4.8867,-4.8867,-4.8867,-4.8867,-4.9043,-4.9453,-4.9512,-4.9726,-5.0098,-5.0156,-5.0176,-5.0176,-5.0176,-5.0176,-5.0176,-5.0176,-5.0156,-5.0098,-5.0058,-5.0019,-5.0019,-5.0019,-5.0019,-4.998,-4.959,-4.9453,-4.9512,0.0,0.0,0.0,0.0,0.0,0.0,0.0,0.0,0.0,-7.4869,-7.4869,-7.4869,-7.4869,-7.4869,-7.4869,-7.4869,-7.4869,-7.4869,-7.4869,-7.4869,-7.4869,-7.4869,-7.4869,-7.4869,-7.4869,-7.4731,-7.4288,-7.3672,-7.2314,-7.1206,-7.0374,-6.8511,-6.7368,-6.6933,-6.5266,-6.4418,-6.4203,-6.3204,-6.2822,-6.2822,-6.2822,-6.2822,-6.2797,-6.2471,-6.2345,-6.2345,-6.2345,-6.2345,0.0,-6.2345,-6.2144,-6.1918,-6.2245,-6.2119,-6.1868,-6.1868,-6.1868,-6.1868,-6.1868,-6.1868,-6.1818,-6.1592,-6.1612,-6.1465,-6.1035,-6.0572,-6.009,-5.9461,-5.9085,-5.8848,-5.8632,-5.8608,-5.8608,-5.8608,-5.8343,-5.8247,-5.856,-5.8608,-5.853,-5.8283,-5.7033,-5.529,-5.3081,-5.1417,-5.0094,-4.894,-4.8867,-4.8867,-4.8867,-4.8867,-4.8867,-4.8867,-4.9101,-4.9336,-4.9531,-5.0019,-5.0371,-5.0547,-5.0801,-5.0898,-5.0898,-5.0898,-5.0898,-5.0898,-5.0644,-5.0547,-5.0527,-5.0273,-5.0176,-5.0176,-5.0176,-5.0176,-5.0156,-4.998,-4.9902,-4.9941,0.0,0.0,0.0,0.0,0.0,0.0,0.0,0.0,0.0,0.0,-7.4869,-7.4869,-7.4869,-7.4869,-7.4869,-7.4869,-7.4869,-7.4869,-7.4869,-7.4869,-7.4869,-7.4869,-7.4869,-7.4869,-7.4869,-7.4869,-7.4869,-7.4869,-7.3433,-7.2699,-7.2557,-7.0622,-6.9486,-6.9038,-6.7292,-6.6105,-6.5345,-6.4042,-6.3204,-6.2822,-6.2672,-6.2596,-6.2546,-6.1994,-6.1768,-6.1768,-6.1768,-6.1768,-6.1768,-6.1768,-6.1517,-6.124,-6.1642,-6.1492,-6.119,-6.119,-6.119,-6.114,-6.0989,-6.1065,-6.114,-6.0989,-6.0985,-6.0926,-6.0582,-6.0206,-5.9698,-5.9122,-5.8774,-5.8506,-5.8199,-5.8175,-5.8175,-5.8175,-5.7838,-5.779,-5.8295,-5.8367,-5.8632,-5.9305,-5.8469,-5.6655,-5.3526,-5.2834,-5.1688,-4.9839,-4.9656,-4.9472,-4.894,-4.8984,-4.9043,-4.9043,-4.9473,-4.9766,-4.9883,-5.0488,-5.0859,-5.0976,-5.1289,-5.1426,-5.1426,-5.1426,-5.1426,-5.1406,-5.1113,-5.0976,-5.0957,-5.0644,-5.0527,-5.0527,-5.0527,-5.0527,-5.0527,-5.0527,-5.0449,-5.0371,0.0,0.0,0.0,0.0,0.0,0.0,0.0,0.0,0.0,0.0,0.0,0.0,0.0,-7.4869,-7.4869,-7.4869,-7.4869,-7.4869,-7.4869,-7.4869,-7.4869,-7.4869,-7.4869,-7.4869,-7.4869,-7.4869,-7.4869,-7.4869,-7.4869,-7.4594,-7.4179,-7.2557,-7.1568,-7.1162,-6.9113,-6.7319,-6.5765,-6.5345,-6.4283,-6.2772,-6.2245,-6.2019,-6.1969,-6.1416,-6.1215,-6.1215,-6.1215,-6.1215,-6.1215,-6.1215,-6.119,-6.119,-6.119,-6.119,-6.119,-6.119,-6.119,-6.1065,-6.0512,-6.0738,-6.104,-6.0487,-6.0422,-6.0502,-6.0502,-6.0101,-5.9575,-5.866,-5.8378,-5.8152,-5.7245,-5.7069,-5.7069,-5.7069,-5.7045,-5.7237,-5.7766,-5.7838,-5.8223,-5.9257,-5.9402,-5.8819,-5.7395,-5.5487,-5.3615,-5.1778,-5.1597,-5.0803,-4.9032,-4.9277,-4.9512,-4.9512,-4.9941,-5.0351,-5.0762,-5.0801,-5.1016,-5.1406,-5.1426,-5.1426,-5.1426,-5.1426,-5.1426,-5.1426,-5.1426,-5.1406,-5.1406,-5.1406,-5.1387,-5.1387,-5.1387,-5.1387,-5.1387,-5.1387,-5.1133,-5.084,0.0,0.0,0.0,0.0,0.0,0.0,0.0,0.0,0.0,0.0,0.0,0.0,0.0,0.0,0.0,0.0,-7.4869,-7.4869,-7.4869,-7.4869,-7.4869,-7.4869,-7.4869,-7.4869,-7.4869,-7.4869,-7.4869,-7.4869,-7.4869,-7.48,-7.4663,-7.412,-7.3672,-7.3181,-7.1423,-7.0079,-6.8963,-6.7778,-6.5971,-6.3929,-6.3749,-6.278,-6.1391,-6.0814,-6.0613,-6.0563,0.0,-6.0286,-6.0613,-6.0613,-6.0362,-6.0136,-6.0487,-6.0362,-6.006,-6.006,-6.006,-6.001,-5.9834,-5.991,-6.001,-5.9809,-5.9832,-5.9826,-5.9826,-5.9512,-5.9148,-5.8792,-5.8556,-5.8112,-5.7521,-5.7418,-5.7339,-5.7021,-5.7309,-5.7598,-5.779,-5.8416,-5.8993,-5.9353,-5.969,-5.9703,-5.928,-5.7527,-5.5662,-5.3703,-5.3526,-5.2872,-5.125,-5.1321,-5.0916,-4.9941,-5.0371,-5.0664,-5.0801,-5.1074,-5.1289,-5.1426,-5.1426,-5.1426,-5.1426,-5.1426,-5.1426,-5.1426,-5.1426,-5.1426,-5.1426,-5.1426,-5.1426,-5.1426,-5.1426,-5.1426,-5.1426,-5.1426,-5.1348,-5.125,0.0,0.0,0.0,0.0,0.0,0.0,0.0,0.0,0.0,0.0,0.0,0.0,0.0,0.0,0.0,0.0,0.0,-7.4869,-7.4869,-7.4869,-7.4869,-7.4869,-7.4869,-7.4869,-7.4869,-7.4869,-7.4869,-7.4869,-7.4869,-7.4869,-7.4869,-7.4869,-7.4731,-7.4456,-7.3293,-7.2171,-7.106,-6.9633,-6.7661,-6.5435,-6.501,-6.3593,-6.1653,-6.1068,-6.0452,0.0,-5.9608,-5.9734,-6.001,-6.001,-5.9784,-5.9558,-5.991,-5.9784,-5.9483,-5.9483,-5.9483,-5.9483,-5.9483,-5.9483,-5.9483,-5.9483,-5.9483,-5.9483,-5.9483,-5.9276,-5.912,-5.8965,-5.8653,-5.8364,-5.7971,-5.7734,-5.7546,-5.7501,-5.7654,-5.7935,-5.8319,-5.8969,-5.945,-5.9642,-5.9979,-6.0171,-6.0171,-5.9111,-5.7613,-5.5662,-5.5575,-5.4895,-5.3421,-5.352,-5.3307,-5.2597,-5.2931,-5.2795,-5.2052,-5.2311,-5.2085,-5.1426,-5.1426,-5.1426,-5.1426,-5.1426,-5.1426,-5.1426,-5.1426,-5.1426,-5.1426,-5.1426,-5.1426,-5.1426,-5.1426,-5.1426,-5.1426,-5.1426,-5.1426,-5.1426,0.0,0.0,0.0,0.0,0.0,0.0,0.0,0.0,0.0,0.0,0.0,0.0,0.0,0.0,0.0,0.0,0.0,0.0,-7.4869,-7.4869,-7.4869,-7.4869,-7.4869,-7.4869,-7.4869,-7.4869,-7.4869,-7.4869,-7.4869,-7.4869,-7.4869,-7.4869,-7.4869,-7.4869,-7.4525,-7.3462,-7.197,-7.0908,-6.9298,-6.7291,-6.6112,-6.45,-6.2702,-6.2051,-6.0888,-5.9637,-5.9483,-5.9483,-5.9483,-5.9483,-5.9483,-5.9483,-5.9483,-5.9483,-5.9483,-5.9483,-5.9483,-5.9483,-5.9483,-5.9483,-5.9483,-5.9483,-5.9483,-5.9483,-5.9483,-5.9483,-5.9405,-5.9043,-5.894,-5.8809,-5.8364,-5.7971,-5.7826,-5.8361,-5.808,-5.8223,-5.9233,-5.9402,-5.9618,-6.0123,-6.0171,-6.0171,-6.0171,-6.0171,-5.9473,-5.7699,-5.755,-5.6978,-5.5577,-5.5925,-5.6429,-5.6819,-5.7164,-5.6473,-5.461,-5.4515,-5.3583,-5.1523,-5.1523,-5.1523,-5.1523,-5.1426,-5.1426,-5.1523,-5.1426,-5.1426,-5.1426,-5.1523,-5.1523,-5.1426,-5.1523,-5.1523,-5.1426,-5.1426,-5.1426,-5.1426,0.0,0.0,0.0,0.0,0.0,0.0,0.0,0.0,0.0,0.0,0.0,0.0,0.0,0.0,0.0,0.0,0.0,0.0,-7.4869,-7.4869,-7.4869,-7.4869,-7.4869,-7.4869,-7.4869,-7.4869,-7.4869,-7.4869,-7.4869,-7.4869,-7.4869,-7.4869,-7.4869,-7.4869,-7.48,-7.4357,-7.3672,-7.2856,-7.1126,-6.8881,-6.7833,-6.6076,-6.4046,-6.2391,-6.1542,-6.1014,-5.9946,-5.9483,-5.9483,-5.9483,-5.9483,-5.9483,-5.9483,-5.9483,-5.9483,-5.9483,-5.9483,-5.9483,-5.9483,-5.9483,-5.9483,-5.9483,-5.9483,-5.9483,-5.9483,-5.9483,-5.9483,-5.9353,-5.9353,-5.9198,-5.8809,-5.8443,-5.8142,-5.8361,-5.837,-5.8632,-5.9305,-5.9714,-6.0027,-6.0147,-6.0171,-6.0171,-6.0171,-6.0171,-6.0003,-5.9558,-5.983,-5.9484,-5.8023,-5.8433,-5.8209,-5.73,-5.7339,-5.7126,-5.666,-5.666,-5.5628,-5.3678,-5.3678,-5.3678,-5.3583,-5.2085,-5.2181,-5.3583,-5.2085,-5.1426,-5.1523,-5.3028,-5.274,-5.1523,-5.3008,-5.274,-5.1426,-5.1426,-5.1426,-5.1426,0.0,0.0,0.0,0.0,0.0,0.0,0.0,0.0,0.0,0.0,0.0,0.0,0.0,0.0,0.0,0.0,0.0,0.0,0.0,-7.4869,-7.4869,-7.4869,-7.4869,-7.4869,-7.4869,-7.4869,-7.4869,-7.4869,-7.4869,-7.4869,-7.4869,-7.4869,-7.4869,-7.4869,-7.4869,-7.4731,-7.4465,-7.3512,-7.2247,0.0,0.0,-6.774,-6.5553,-6.4481,-6.3565,-6.2635,-6.1089,-6.0074,-5.9483,-5.9483,-5.9483,-5.9483,-5.9483,-5.9483,-5.9483,-5.9483,-5.9483,-5.9483,-5.9483,-5.9483,-5.9483,-5.9483,-5.9483,-5.9483,-5.9483,-5.9483,-5.9483,-5.9483,-5.9483,-5.9431,-5.9173,-5.9007,-5.896,-5.9022,-5.9155,-5.936,-5.9749,-5.9979,-6.0171,-6.0171,-6.0171,-6.0171,-6.0171,-6.0171,-6.0267,-6.0508,-6.0796,-6.0753,-6.0124,-6.064,-6.0597,-5.9977,-6.0,-5.9544,-5.8697,-5.7868,-5.6846,-5.5723,-5.5723,-5.5723,-5.5628,-5.3678,-5.3754,-5.5628,-5.3583,-5.32,-5.4135,-5.5251,-5.5063,-5.404,-5.4325,-5.423,-5.3965,-5.3028,-5.3296,-5.3944,0.0,0.0,0.0,0.0,0.0,0.0,0.0,0.0,0.0,0.0,0.0,0.0,0.0,0.0,0.0,0.0,0.0,0.0,0.0,0.0,-7.4869,-7.4869,-7.4869,-7.4869,-7.4869,-7.4869,-7.4869,-7.4869,-7.4869,-7.4869,-7.4869,-7.4869,-7.4869,-7.4869,-7.4869,-7.4869,-7.4779,-7.3462,-7.2723,-7.2335,-7.0931,-6.9182,-6.7427,0.0,-6.6005,-6.4292,-6.2487,-6.0964,-5.9792,-5.956,-5.9483,-5.9483,-5.9483,-5.9483,-5.9483,-5.9483,-5.9483,-5.9483,-5.9483,-5.9483,-5.9483,-5.9483,-5.9483,-5.9483,-5.9483,-5.9483,-5.9483,-5.9483,-5.9483,-5.9483,-5.9483,-5.9623,-5.9697,-5.9866,-6.0,-6.015,-6.035,-6.0339,-6.0339,-6.0255,-6.0255,-6.0255,-6.0171,-6.0171,-6.0388,-6.0917,-6.1037,-6.1326,-6.1879,-6.2408,-6.2889,-6.3322,-6.3346,-6.2499,-6.0838,-5.9064,-5.8053,-5.7775,-5.7775,-5.7775,-5.7775,-5.5723,-5.591,-5.7683,-5.5628,-5.5817,-5.7405,-5.7683,-5.7683,-5.7219,-5.5817,-5.6098,-5.7219,-5.544,-5.591,-5.7126,0.0,0.0,0.0,0.0,0.0,0.0,0.0,0.0,0.0,0.0,-7.5587,-7.4869,0.0,0.0,0.0,0.0,0.0,0.0,0.0,0.0,0.0,-7.4869,-7.4869,-7.4869,-7.4869,-7.4869,-7.4869,-7.4869,-7.4869,-7.4869,-7.4869,-7.4869,-7.4869,-7.4869,-7.4869,-7.4869,-7.4779,-7.3462,-7.2857,-7.2671,-7.1063,-7.017,-6.9612,-6.7702,0.0,0.0,-6.2904,-6.1617,-6.1165,-5.9946,-5.9483,-5.9483,-5.9483,-5.9483,-5.9483,-5.9483,-5.9483,-5.9483,-5.9483,-5.9483,-5.9483,-5.9483,-5.9483,-5.9483,-5.9483,-5.9483,-5.9483,-5.9483,-5.9483,-5.9483,-5.9483,-5.9623,-5.9856,-6.0322,-6.0489,-6.0703,-6.1184,-6.1282,-6.1091,-6.0757,-6.0674,-6.059,-6.0255,-6.0171,-6.0388,-6.0917,-6.1398,-6.1903,-6.2432,-6.2937,-6.3249,-6.3346,-6.3346,-6.3145,-6.279,-6.241,-6.1492,-5.9909,-5.9909,-5.9909,-5.9818,-5.7775,-5.796,-5.9726,-5.7775,-5.7126,-5.7497,-5.9178,-5.8881,-5.7497,-5.8903,-5.8514,-5.7405,-5.7033,-5.7126,-5.7312,0.0,0.0,0.0,0.0,0.0,0.0,0.0,-8.0203,-7.8628,-7.8026,-7.613,-7.4869,-7.4869,-7.4869,0.0,0.0,0.0,0.0,0.0,0.0,0.0,-7.4869,-7.4869,-7.4869,-7.4869,-7.4869,-7.4869,-7.4869,0.0,-7.4869,-7.4869,-7.4869,-7.4869,-7.4869,-7.4869,-7.4689,-7.43,-7.3343,-7.2714,-7.2295,-7.1112,-7.0593,-7.0301,0.0,0.0,0.0,-6.4002,-6.2487,-6.1542,-5.9997,-5.9483,-5.9483,-5.9483,-5.9483,-5.9483,-5.9483,-5.9483,-5.9483,-5.9483,-5.9483,-5.9483,-5.9483,-5.9483,-5.9483,-5.9483,-5.9483,-5.9483,-5.9483,-5.9483,-5.9483,-5.9483,-6.0029,-6.0442,-6.0452,-6.106,-6.1458,-6.1482,-6.1506,-6.1423,-6.1174,-6.1174,-6.1066,-6.0924,-6.0916,-6.1135,-6.1667,-6.2224,-6.2572,-6.2576,-6.3081,-6.341,-6.3675,-6.3434,-6.3434,-6.3675,-6.3434,-6.2879,-6.1963,-6.1963,-6.1963,-6.185,-5.9818,-6.0,-6.1761,-5.9818,-5.9544,-6.0544,-6.1492,-6.1312,-6.0453,-6.0386,-6.0476,-6.0363,-5.9361,-5.9635,-6.0363,0.0,0.0,0.0,0.0,0.0,0.0,0.0,-8.0896,-7.9222,-7.8941,-7.6827,-7.518,-7.4937,-7.4869,-7.4869,0.0,0.0,0.0,0.0,0.0,0.0,0.0,0.0,0.0,-7.4869,0.0,0.0,-7.4869,-7.4869,0.0,0.0,0.0,0.0,0.0,-7.4659,-7.43,-7.3642,-7.2984,-7.2385,0.0,0.0,-7.0694,-7.0528,0.0,0.0,0.0,0.0,-6.3929,-6.2487,-6.066,-5.9997,-5.9946,-5.956,-5.9483,-5.9483,-5.9483,-5.9483,-5.9483,-5.9483,-5.9483,-5.9483,-5.9483,-5.9483,-5.9483,-5.9483,-5.9483,-5.9483,-5.9483,-5.9483,-5.9483,-5.9483,-6.0412,-6.1086,-6.0687,-6.1608,-6.2167,-6.1862,-6.1754,-6.173,-6.1696,-6.1672,-6.1589,-6.1531,-6.1663,-6.1923,-6.2544,-6.3227,-6.3419,-6.3094,-6.3369,-6.3763,-6.4114,-6.3763,-6.3763,-6.4202,-6.3763,-6.3586,-6.3586,-6.3586,-6.3498,-6.341,-6.185,-6.194,-6.3233,-6.1671,-6.194,-6.341,-6.341,-6.3498,-6.341,-6.1916,-6.2297,-6.341,-6.1827,-6.2297,-6.341,0.0,0.0,0.0,0.0,0.0,0.0,0.0,-8.1668,-8.0296,-7.9066,-7.7641,-7.6263,-7.5006,-7.4869,-7.4869,0.0,0.0,0.0,0.0,0.0,0.0,0.0,0.0,0.0,0.0,0.0,0.0,-7.4869,-7.4869,0.0,0.0,0.0,0.0,0.0,0.0,-7.3612,-7.2954,-7.2265,0.0,0.0,0.0,0.0,0.0,0.0,0.0,0.0,0.0,-6.6454,-6.5609,-6.2635,-6.1617,-6.1316,-5.9946,-5.9483,-5.9483,-5.9483,-5.9483,-5.9483,-5.9483,-5.9483,-5.9483,-5.9483,-5.9483,-5.9483,-5.9483,-5.9483,-5.9483,-5.9483,-5.9483,-5.9483,-5.9483,-6.0412,-6.119,-6.1165,-6.2013,-6.2741,-6.2659,-6.2659,-6.2577,-6.2167,-6.2167,-6.2002,-6.1531,-6.1998,-6.243,-6.297,-6.3952,-6.4541,-6.4541,-6.4503,-6.4615,-6.4615,-6.4615,-6.4615,-6.4615,-6.4615,-6.4527,-6.4527,-6.4527,-6.4353,-6.3939,-6.3738,-6.3498,-6.3257,-6.3145,-6.341,-6.3939,-6.3939,-6.4202,-6.4527,-6.4353,-6.444,-6.4527,-6.4353,-6.444,-6.4527,0.0,0.0,0.0,0.0,0.0,0.0,-8.2883,-8.1074,-7.9531,-7.8941,-7.7023,-7.5519,-7.4937,-7.4869,-7.4869,0.0,0.0,0.0,0.0,0.0,0.0,0.0,0.0,0.0,0.0,0.0,-7.4869,-7.4869,-7.4869,0.0,0.0,0.0,0.0,0.0,0.0,-7.2924,-7.2265,-7.1996,0.0,0.0,0.0,0.0,0.0,0.0,0.0,0.0,0.0,0.0,-6.4769,-6.2164,-6.0674,-5.9769,-5.8857,-5.8755,-5.9081,-5.9408,-5.9483,-5.9483,-5.9483,-5.9483,-5.9483,-5.9483,-5.9483,-5.9483,-5.9483,-5.9483,-5.9483,-5.9483,-5.9483,-5.9483,-5.9483,-6.0412,-6.119,-6.119,-6.2119,-6.2822,-6.2822,-6.2822,-6.2741,-6.2577,-6.2577,-6.2495,-6.2331,-6.2878,-6.3578,-6.4444,-6.4914,-6.5248,-6.5508,-6.4963,-6.4789,-6.5075,-6.4876,-6.4876,-6.5161,-6.4876,-6.4702,-6.4702,-6.4702,-6.4615,-6.444,-6.444,-6.4353,-6.4114,-6.4114,-6.429,-6.444,-6.444,-6.4527,-6.4702,-6.4702,-6.4702,-6.4702,-6.4702,-6.4702,-6.4702,0.0,0.0,0.0,0.0,0.0,-8.2883,-8.2883,-8.0955,-7.9346,-7.8941,-7.6892,-7.5316,-7.4937,-7.4869,-7.4869,-7.4869,0.0,0.0,0.0,0.0,0.0,0.0,0.0,0.0,0.0,0.0,-7.4869,-7.4869,-7.4869,-7.4779,0.0,0.0,-7.3672,-7.3283,0.0,0.0,0.0,0.0,0.0,0.0,0.0,0.0,0.0,0.0,0.0,0.0,0.0,0.0,0.0,0.0,0.0,-5.9532,-5.8302,-5.8278,-5.878,-5.9156,-5.9382,-5.9483,-5.9483,-5.9483,-5.9483,-5.9483,-5.9483,-5.9483,-5.9483,-5.9483,-5.9483,-5.9483,-5.9483,-5.9483,-5.9483,-6.0412,-6.119,-6.119,-6.2119,-6.2822,-6.2822,-6.2822,-6.2822,-6.2822,-6.2822,-6.2822,-6.2822,-6.3494,-6.4424,-6.552,-6.5594,-6.5767,-6.6112,-6.5483,-6.5248,-6.5594,-6.5335,-6.5223,-6.5594,-6.5248,-6.5137,-6.5137,-6.5137,-6.505,-6.4876,-6.4876,-6.4789,-6.4702,-6.4702,-6.4789,-6.4876,-6.4876,-6.4963,-6.5137,-6.5137,-6.5137,-6.5137,-6.5137,-6.5137,-6.5137,0.0,0.0,0.0,0.0,0.0,0.0,-8.2883,-8.1727,-8.0417,-7.9066,-7.7705,-7.6396,-7.5074,-7.4869,-7.4869,-7.4869,0.0,0.0,0.0,0.0,0.0,0.0,0.0,0.0,0.0,0.0,-7.4869,-7.4869,-7.4869,-7.454,-7.3911,-7.3881,-7.3193,-7.1906,0.0,0.0,0.0,0.0,0.0,0.0,0.0,0.0,0.0,0.0,0.0,0.0,0.0,0.0,0.0,0.0,0.0,0.0,0.0,-5.8278,-5.873,-5.873,-5.9081,-5.9483,-5.9483,-5.9483,-5.9483,-5.9483,-5.9483,-5.9483,-5.9483,-5.9483,-5.9483,-5.9483,-5.9483,-5.9483,-5.9483,-6.0412,-6.119,-6.119,-6.2119,-6.2822,-6.2822,-6.2822,-6.2822,-6.2822,-6.2822,-6.2822,-6.2822,-6.3827,-6.4931,-6.6036,-6.6112,-6.6112,-6.6112,-6.6112,-6.6112,-6.6112,-6.6112,-6.6112,-6.6112,-6.6112,-6.6112,-6.6112,-6.6112,-6.5853,-6.5421,-6.5421,-6.5161,-6.4702,-6.4702,-6.4963,-6.5421,-6.5421,-6.5681,-6.6112,-6.6112,-6.6112,-6.6112,-6.6112,-6.6112,-6.6112,0.0,0.0,0.0,0.0,0.0,0.0,0.0,-8.0384,-7.9035,-7.7705,-7.6396,-7.5384,-7.4937,-7.4869,-7.4869,-7.4869,0.0,0.0,0.0,0.0,0.0,0.0,0.0,0.0,0.0,-7.4869,-7.4869,-7.4869,-7.4869,-7.454,-7.3881,-7.3432,-7.2744,-7.1876,-7.1427,-7.1098,0.0,0.0,0.0,0.0,0.0,0.0,-7.0889,0.0,0.0,0.0,0.0,0.0,0.0,0.0,0.0,0.0,0.0,0.0,0.0,-5.8152,-5.8805,-5.9483,-5.9483,-5.9483,-5.9483,-5.9483,-5.9483,-5.9483,-5.9483,-5.9483,-5.9483,-5.9483,-5.9483,-5.9483,-5.9483,-6.0412,-6.119,-6.119,-6.2119,-6.2822,-6.2822,-6.2822,-6.2822,-6.2822,-6.2822,-6.3124,-6.3877,-6.4254,-6.4931,-6.6036,-6.6112,-6.6112,-6.6112,-6.6112,-6.6112,-6.6112,-6.6112,-6.6112,-6.6112,-6.6112,-6.6112,-6.6112,-6.6112,-6.6026,-6.5853,-6.5853,-6.5767,-6.5681,-6.5681,-6.5767,-6.5853,-6.5853,-6.594,-6.6112,-6.6112,-6.6112,-6.6112,-6.6112,-6.6112,-6.6112,0.0,0.0,0.0,0.0,0.0,0.0,0.0,-8.0082,-7.8565,-7.777,-7.6094,-7.4869,-7.4869,-7.4869,-7.4869,-7.4869,0.0,0.0,0.0,0.0,0.0,0.0,0.0,0.0,-7.4869,-7.4869,-7.4869,-7.4869,-7.4869,-7.442,-7.3522,-7.3103,-7.2415,-7.1487,-7.1098,-7.0889,0.0,0.0,0.0,0.0,0.0,0.0,-7.0889,0.0,0.0,0.0,0.0,0.0,0.0,0.0,0.0,0.0,0.0,0.0,0.0,0.0,-5.8654,-5.9483,-5.9483,-5.9483,-5.9483,-5.9483,-5.9483,-5.9483,-5.9483,-5.9483,-5.9483,-5.9483,-5.9483,-5.9558,-5.9759,-6.0563,-6.124,-6.1466,-6.2245,-6.2822,-6.2822,-6.2822,-6.2822,-6.2822,-6.2822,-6.3249,-6.4354,-6.4454,-6.4931,-6.6036,-6.6112,-6.6112,-6.6112,-6.6112,-6.6112,-6.6112,-6.6112,-6.6112,-6.6112,-6.6112,-6.6112,-6.6112,-6.6112,-6.6112,-6.6112,-6.6112,-6.6112,-6.6112,-6.6112,-6.6112,0.0,-6.6112,-6.6112,-6.6112,-6.6112,-6.6112,-6.6112,-6.6112,-6.6112,-6.6112,0.0,0.0,0.0,0.0,0.0,0.0,0.0,0.0,-7.8941,-7.8754,-7.6564,-7.5006,-7.4869,-7.4869,-7.4869,-7.4869,0.0,0.0,0.0,0.0,0.0,0.0,0.0,0.0,-7.4869,-7.4869,-7.4869,-7.4869,-7.4869,-7.421,-7.2924,-7.2924,-7.2206,-7.0889,-7.0889,-7.0889,0.0,0.0,0.0,0.0,-7.0889,-7.0889,0.0,0.0,0.0,0.0,0.0,0.0,0.0,0.0,0.0,0.0,0.0,0.0,0.0,0.0,0.0,0.0,0.0,-5.9483,-5.9483,-5.9483,-5.9483,-5.9483,-5.9483,-5.9483,0.0,-5.9483,-5.9483,-5.9659,-6.0211,-6.0788,-6.1366,-6.1918,-6.2471,-6.2822,-6.2822,-6.2822,-6.2822,-6.2822,-6.2822,-6.3249,-6.4354,-6.4454,-6.4931,-6.6036,-6.6112,-6.6112,-6.6112,-6.6112,-6.6112,-6.6112,-6.6112,-6.6112,-6.6112,-6.6112,-6.6112,-6.6112,-6.6112,-6.6112,-6.6112,-6.6112,-6.6112,-6.6112,-6.6112,-6.6112,-6.6112,-6.6112,-6.6112,-6.6112,-6.6112,-6.6112,-6.6112,-6.6112,-6.6112,-6.6112,0.0,0.0,0.0,0.0,0.0,0.0,0.0,0.0,0.0,0.0,-7.6858,-7.6027,-7.5006,-7.4869,-7.4869,0.0,0.0,0.0,0.0,0.0,0.0,0.0,0.0,0.0,-7.4869,-7.4869,-7.4869,-7.4869,-7.4869,-7.421,-7.2924,-7.2924,-7.2206,-7.0889,-7.0889,-7.0889,0.0,0.0,0.0,0.0,-7.0889,-7.0889,0.0,0.0,0.0,0.0,-6.898,-6.7885,0.0,0.0,0.0,0.0,0.0,0.0,0.0,0.0,-5.8981,-5.9483,-5.9483,0.0,-5.9483,-5.9483,-5.9483,-5.9483,0.0,-5.9483,-5.9483,-5.9483,-5.9483,-5.9659,-6.0211,-6.0788,-6.1366,-6.1918,-6.2471,-6.2822,-6.2822,-6.2822,-6.2822,-6.2822,-6.2822,-6.3249,-6.4354,-6.4454,-6.4931,-6.6036,-6.6112,-6.6112,-6.6112,-6.6112,-6.6112,-6.6112,-6.6112,-6.6112,-6.6112,-6.6112,-6.6112,-6.6112,-6.6112,-6.6112,-6.6112,-6.6112,-6.6112,-6.6112,-6.6112,-6.6112,-6.6112,-6.6112,-6.6112,-6.6112,-6.6112,-6.6112,-6.6112,-6.6112,-6.6112,-6.6112,0.0,0.0,0.0,0.0,0.0,0.0,0.0,0.0,0.0,0.0,0.0,0.0,0.0,0.0,0.0,0.0,0.0,0.0,0.0,0.0,0.0,0.0,0.0,-7.4869,-7.4869,-7.4869,-7.4869,-7.4869,-7.4869,-7.436,-7.3343,-7.3043,-7.2355,-7.1338,-7.1038,-7.0889,-7.0889,-7.0889,-7.0889,-7.0889,-7.0889,0.0,0.0,0.0,0.0,0.0,-6.8575,-6.7512,0.0,-6.5937,-6.3459,-6.0728,0.0,0.0,0.0,0.0,-5.9081,-5.9483,-5.9483,-5.9483,-5.9483,-5.9483,-5.9483,-5.9483,-5.9483,-5.9483,-5.9483,-5.9483,-5.9684,-6.0035,-6.0613,-6.119,-6.1743,-6.2295,-6.2621,-6.2822,-6.2822,-6.2822,-6.2822,-6.2822,-6.2822,-6.3249,-6.4354,-6.4454,-6.4931,-6.6036,-6.6112,-6.6112,-6.6112,-6.6112,-6.6112,-6.6112,-6.6112,-6.6112,-6.6112,-6.6112,-6.6112,-6.6112,-6.6112,-6.6112,-6.6112,-6.6112,-6.6112,-6.6112,-6.6112,-6.6112,-6.6112,-6.6112,-6.6112,-6.6112,-6.6112,-6.6112,-6.6112,-6.6112,-6.6112,-6.6112,0.0,0.0,0.0,0.0,0.0,0.0,0.0,0.0,0.0,0.0,0.0,0.0,0.0,0.0,0.0,0.0,0.0,0.0,0.0,0.0,0.0,0.0,-7.4869,-7.4869,-7.4869,-7.4869,-7.4869,-7.4869,-7.4779,-7.439,-7.3732,-7.3073,-7.2385,-7.1697,-7.1158,-7.0889,-7.0889,-7.0889,-7.0889,-7.0889,-7.0889,0.0,0.0,0.0,0.0,0.0,0.0,0.0,0.0,-6.6007,-6.3712,-6.0837,-6.1337,0.0,0.0,0.0,0.0,0.0,-5.9483,-5.9483,-5.9483,-5.9483,-5.9483,-5.9483,-5.9483,-5.9483,-5.9508,-5.9608,-5.9985,-6.0512,-6.119,-6.1692,-6.2195,-6.2747,-6.2822,-6.2822,-6.2822,-6.2822,-6.2822,-6.2822,-6.2898,-6.335,-6.4379,-6.453,-6.5007,-6.6036,-6.6112,-6.6112,-6.6112,-6.6112,-6.6112,-6.6112,-6.6112,-6.6112,-6.6112,-6.6112,-6.6112,-6.6112,-6.6112,-6.6112,-6.6112,-6.6112,-6.6112,-6.6112,-6.6112,-6.6112,-6.6112,-6.6112,-6.6112,-6.6112,-6.6112,-6.6112,-6.6112,-6.6112,-6.6112,-6.6112,0.0,0.0,0.0,0.0,0.0,0.0,0.0,0.0,0.0,0.0,0.0,0.0,0.0,0.0,0.0,0.0,0.0,0.0,0.0,0.0,0.0,-7.4869,-7.4869,-7.4869,-7.4869,-7.4869,-7.4869,-7.4869,-7.433,-7.3702,-7.3043,-7.2355,-7.1697,-7.1038,-7.0949,-7.0889,-7.0889,-7.0889,-7.0889,-7.0889,-7.0889,0.0,0.0,0.0,0.0,0.0,0.0,0.0,0.0,-6.607,-6.4063,-6.178,-6.2058,0.0,0.0,0.0,0.0,0.0,-5.9483,-5.9483,-5.9483,-5.9483,-5.9483,-5.9483,-5.9483,-5.9483,-5.9633,-6.0085,-6.0261,-6.0638,-6.1692,-6.1943,-6.2195,-6.2747,-6.2822,-6.2822,-6.2822,-6.2822,-6.2822,-6.2822,-6.3249,-6.3802,-6.4404,-6.4881,-6.5434,-6.6061,-6.6112,-6.6112,-6.6112,-6.6112,-6.6112,-6.6112,-6.6112,-6.6112,-6.6112,-6.6112,-6.6112,-6.6112,-6.6112,-6.6112,-6.6112,-6.6112,-6.6112,-6.6112,-6.6112,-6.6112,-6.6112,-6.6112,-6.6112,-6.6112,-6.6112,-6.6112,-6.6112,-6.6112,-6.6112,-6.6112,0.0,0.0,0.0,0.0,0.0,0.0,0.0,0.0,0.0,0.0,0.0,0.0,0.0,0.0,0.0,0.0,0.0,0.0,0.0,0.0,-7.4869,-7.4869,-7.4869,-7.4869,-7.4869,-7.454,-7.436,-7.436,-7.3702,-7.3223,-7.2894,-7.2206,-7.1517,-7.0889,-7.0889,-7.0889,-7.0889,-7.0889,-7.0889,-7.0859,0.0,0.0,0.0,0.0,0.0,0.0,0.0,0.0,0.0,0.0,-6.4287,-6.1985,-6.2404,0.0,0.0,0.0,0.0,0.0,-5.9483,-5.9483,-5.9483,-5.9483,-5.9483,-5.9483,-5.9483,-5.9734,-6.001,-6.0261,-6.0814,-6.1391,-6.1918,-6.2245,-6.2521,-6.2797,-6.2822,-6.2822,-6.2822,-6.2822,-6.2822,-6.2822,-6.335,-6.3902,-6.4404,-6.4982,-6.5509,-6.6061,-6.6112,-6.6112,-6.6112,-6.6112,-6.6112,-6.6112,-6.6112,-6.6112,-6.6112,-6.6112,-6.6112,-6.6112,-6.6112,-6.6112,-6.6112,-6.6112,-6.6112,-6.6112,-6.6112,-6.6112,-6.6112,-6.6112,-6.6112,-6.6112,-6.6112,-6.6112,-6.6112,-6.6112,-6.6112,-6.6112,0.0,0.0,0.0,0.0,0.0,0.0,0.0,0.0,0.0,0.0,0.0,0.0,0.0,0.0,0.0,0.0,0.0,0.0,0.0,-7.4869,-7.4869,-7.4869,-7.4869,-7.4869,-7.4869,-7.424,-7.3881,-7.3881,-7.3073,-7.2595,-7.2445,-7.1906,-7.1398,-7.0889,-7.0889,-7.0889,-7.0889,-7.0889,-7.0889,-7.0859,0.0,0.0,0.0,0.0,0.0,0.0,0.0,0.0,0.0,0.0,0.0,0.0,0.0,0.0,0.0,-5.9382,-5.9483,-5.9483,-5.9483,-5.9483,-5.9483,-5.9483,-5.9483,-5.9533,-5.9659,-6.001,-6.0387,-6.0663,-6.1416,-6.2044,-6.2169,-6.2546,-6.2822,-6.2822,-6.2822,-6.2822,-6.2822,-6.2822,-6.2822,-6.2822,-6.345,-6.4028,-6.4429,-6.5082,-6.566,-6.6086,-6.6112,-6.6112,-6.6112,-6.6112,-6.6112,-6.6112,-6.6112,-6.6112,-6.6112,-6.6112,-6.6112,-6.6112,-6.6112,-6.6112,-6.6112,-6.6112,-6.6112,-6.6112,-6.6112,-6.6112,-6.6112,-6.6112,-6.6112,-6.6112,-6.6112,-6.6112,-6.6112,-6.6112,-6.6112,-6.6112,0.0,0.0,0.0,0.0,0.0,0.0,0.0,0.0,0.0,0.0,0.0,0.0,0.0,0.0,0.0,0.0,0.0,0.0,0.0,-7.4869,-7.4869,-7.4869,-7.4869,-7.4869,-7.4869,-7.424,-7.3881,-7.3881,-7.2595,-7.1637,-7.1038,-7.1009,-7.0949,-7.0889,-7.0889,-7.0889,-7.0889,-7.0889,-7.0889,-7.0859,-7.0231,0.0,0.0,0.0,0.0,0.0,0.0,0.0,0.0,0.0,0.0,0.0,0.0,0.0,-5.9433,-5.9483,-5.9483,-5.9483,-5.9483,-5.9483,-5.9483,-5.9483,-5.9483,-5.9633,-6.0136,-6.0286,-6.0613,-6.1667,-6.1943,-6.2169,-6.2672,-6.2797,-6.2822,-6.2822,-6.2822,-6.2822,-6.2822,-6.2822,-6.2822,-6.2822,-6.3776,-6.4429,-6.4454,-6.5434,-6.6061,-6.6112,-6.6112,-6.6112,-6.6112,-6.6112,-6.6112,-6.6112,-6.6112,-6.6112,-6.6112,-6.6112,-6.6112,-6.6112,-6.6112,-6.6112,-6.6112,-6.6112,-6.6112,-6.6112,-6.6112,-6.6112,-6.6112,-6.6112,-6.6112,-6.6112,-6.6112,-6.6112,-6.6112,-6.6112,-6.6112,-6.6112,0.0,0.0,0.0,0.0,0.0,0.0,0.0,0.0,0.0,0.0,0.0,0.0,0.0,0.0,0.0,0.0,0.0,0.0,0.0,-7.4869,-7.4869,-7.4869,-7.4869,-7.4689,-7.427,-7.3612,-7.3073,-7.2654,-7.1727,-7.1158,-7.0889,-7.0889,-7.0889,-7.0889,-7.0889,-7.0889,-7.0889,-7.0889,-7.0679,-7.026,-6.9632,-6.8974,0.0,0.0,0.0,0.0,0.0,0.0,0.0,0.0,-6.5954,-6.3695,-6.3926,-6.2132,-5.9792,-5.956,-5.9483,-5.9483,-5.9483,-5.9483,-5.9583,-5.991,-6.001,-6.006,-6.0261,-6.0864,-6.1492,-6.1918,-6.227,-6.2571,-6.2797,-6.2822,-6.2822,-6.2822,-6.2822,-6.2822,-6.2822,-6.2822,-6.2822,-6.2822,-6.3802,-6.4454,-6.4454,-6.5459,-6.6112,-6.6112,-6.6112,-6.6112,-6.6112,-6.6112,-6.6112,-6.6112,-6.6112,-6.6112,-6.6112,-6.6112,-6.6112,-6.6112,-6.6112,-6.6112,-6.6112,-6.6112,-6.6112,-6.6112,-6.6112,-6.6112,-6.6112,-6.6112,-6.6112,-6.6112,-6.6112,-6.6112,-6.6112,-6.6112,-6.6112,-6.6112,0.0,0.0,0.0,0.0,0.0,0.0,0.0,0.0,0.0,0.0,0.0,0.0,0.0,0.0,0.0,0.0,0.0,0.0,-7.4869,-7.4869,-7.4869,-7.4869,-7.4869,-7.448,-7.3612,-7.3133,-7.2565,-7.1876,-7.1218,-7.0889,-7.0889,-7.0889,-7.0889,-7.0889,-7.0889,-7.0889,-7.0889,-7.0889,-7.056,-6.9931,-6.9273,-6.8585,0.0,0.0,0.0,0.0,0.0,0.0,0.0,0.0,-6.6795,-6.4869,-6.4623,-6.2825,-6.0685,-5.9792,-5.9483,-5.9483,-5.9483,-5.9483,-5.9633,-6.0186,-6.0462,-6.0638,-6.0814,-6.1441,-6.2044,-6.222,-6.2571,-6.2822,-6.2822,-6.2822,-6.2822,-6.2822,-6.2822,-6.2822,-6.2822,-6.2822,-6.2822,-6.2822,-6.3802,-6.4454,-6.4454,-6.5459,-6.6112,-6.6112,-6.6112,-6.6112,-6.6112,-6.6112,-6.6112,-6.6112,-6.6112,-6.6112,-6.6112,-6.6112,-6.6112,-6.6112,-6.6112,-6.6112,-6.6112,-6.6112,-6.6112,-6.6112,-6.6112,-6.6112,-6.6112,-6.6112,-6.6112,-6.6112,-6.6112,-6.6112,-6.6112,-6.6112,-6.6112,-6.6112,0.0,0.0,0.0,0.0,0.0,0.0,0.0,0.0,0.0,0.0,0.0,0.0,0.0,0.0,0.0,0.0,0.0,0.0,-7.4869,-7.4869,-7.4869,-7.4869,-7.4869,-7.427,-7.2954,-7.2894,-7.2565,-7.1876,-7.1218,-7.0889,-7.0889,-7.0889,-7.0889,-7.0889,-7.0889,-7.0889,-7.0889,-7.0889,-7.053,-6.9901,-6.9243,-6.8585,-6.7897,0.0,0.0,0.0,0.0,0.0,0.0,0.0,-6.8148,-6.6853,-6.5585,-6.3875,-6.204,-6.0074,-5.9483,-5.9483,-5.9483,-5.9483,-5.9633,-6.0186,-6.0763,-6.1341,-6.1893,-6.2019,-6.2169,-6.2722,-6.2822,-6.2822,-6.2822,-6.2822,-6.2822,-6.2822,-6.2822,-6.2822,-6.2822,-6.2822,-6.2822,-6.2822,-6.3802,-6.4454,-6.4454,-6.5459,-6.6112,-6.6112,-6.6112,-6.6112,-6.6112,-6.6112,-6.6112,-6.6112,-6.6112,-6.6112,-6.6112,-6.6112,-6.6112,-6.6112,-6.6112,-6.6112,-6.6112,-6.6112,-6.6112,-6.6112,-6.6112,-6.6112,-6.6112,-6.6112,-6.6112,-6.6112,-6.6112,-6.6112,-6.6112,-6.6112,-6.6112,-6.6112,0.0,0.0,0.0,0.0,0.0,0.0,0.0,0.0,0.0,0.0,0.0,0.0,0.0,0.0,0.0,0.0,0.0,0.0,-7.4869,-7.4869,-7.4869,-7.4869,-7.4869,-7.427,-7.2954,-7.1996,-7.1398,-7.1188,-7.1009,-7.0889,-7.0889,-7.0889,-7.0889,-7.0889,-7.0889,-7.0889,-7.0889,-7.044,-6.9871,-6.9243,-6.8555,-6.7867,-6.7268,0.0,0.0,0.0,0.0,0.0,0.0,0.0,0.0,0.0,-6.5374,-6.3392,-6.0989,-5.9869,-5.9483,-5.9483,-5.9483,-5.9784,-6.0211,-6.0788,-6.1341,-6.1893,-6.2446,-6.2571,-6.2621,-6.2797,-6.2822,-6.2822,-6.2822,-6.2822,-6.2822,-6.2822,-6.2822,-6.2822,-6.2822,-6.2822,-6.2822,-6.2822,-6.3802,-6.4454,-6.4454,-6.5459,-6.6112,-6.6112,-6.6112,-6.6112,-6.6112,-6.6112,-6.6112,-6.6112,-6.6112,-6.6112,-6.6112,-6.6112,-6.6112,-6.6112,-6.6112,-6.6112,-6.6112,-6.6112,-6.6112,-6.6112,-6.6112,-6.6112,-6.6112,-6.6112,-6.6112,-6.6112,-6.6112,-6.6112,-6.6112,-6.6112,-6.6112,-6.6112,0.0,0.0,0.0,0.0,0.0,0.0,0.0,0.0,0.0,0.0,-7.4869,-7.4869,0.0,0.0,0.0,0.0,0.0,0.0,0.0,-7.4869,-7.4869,-7.4869,-7.4869,-7.427,-7.2954,-7.1607,-7.0889,-7.0889,-7.0889,-7.0889,-7.0889,-7.0889,-7.0889,-7.0889,-7.0889,-7.0889,-7.0889,-7.05,-6.9991,-6.9363,-6.8944,-6.8375,-6.7777,0.0,0.0,0.0,0.0,0.0,0.0,0.0,0.0,0.0,-6.5697,-6.3684,-6.1368,-6.0099,-5.9663,-5.9533,-5.9759,-6.006,-6.0512,-6.1316,-6.1768,-6.2144,-6.2697,-6.2822,-6.2822,-6.2822,-6.2822,-6.2822,-6.2822,-6.2822,-6.2822,-6.2822,-6.2822,-6.2822,-6.2822,-6.2822,-6.2923,-6.3149,-6.3927,-6.4555,-6.4781,-6.5584,-6.6112,-6.6112,-6.6112,-6.6112,-6.6112,-6.6112,-6.6112,-6.6112,-6.6112,-6.6112,-6.6112,-6.6112,-6.6112,-6.6112,-6.6112,-6.6112,-6.6112,-6.6112,-6.6112,-6.6112,-6.6112,-6.6112,-6.6112,-6.6112,-6.6112,-6.6112,-6.6112,-6.6112,-6.6112,-6.6112,-6.6112,-6.6112,0.0,0.0,-8.2511,-8.1089,0.0,0.0,0.0,0.0,0.0,0.0,-7.4869,-7.4869,0.0,0.0,0.0,0.0,0.0,0.0,0.0,0.0,-7.4869,-7.4869,-7.4749,-7.4121,-7.2864,-7.1547,-7.0889,-7.0889,-7.0889,-7.0889,-7.0889,-7.0889,-7.0889,-7.0889,-7.0889,-7.0889,-7.0889,-7.0829,-7.05,-6.9961,-6.9901,-6.9542,-6.9004,-6.9004,0.0,0.0,0.0,0.0,0.0,0.0,0.0,0.0,-6.6608,-6.4625,-6.2662,-6.0837,-5.9946,-5.9608,-6.0161,-6.0362,-6.0663,-6.1743,-6.2044,-6.222,-6.2722,-6.2822,-6.2822,-6.2822,-6.2822,-6.2822,-6.2822,-6.2822,-6.2822,-6.2822,-6.2822,-6.2822,-6.2822,-6.2822,-6.3048,-6.3626,-6.4153,-6.468,-6.5233,-6.5785,-6.6112,-6.6112,-6.6112,-6.6112,-6.6112,-6.6112,-6.6112,-6.6112,-6.6112,-6.6112,-6.6112,-6.6112,-6.6112,-6.6112,-6.6112,-6.6112,-6.6112,-6.6112,-6.6112,-6.6112,-6.6112,-6.6112,-6.6112,-6.6112,-6.6112,-6.6112,-6.6112,-6.6112,-6.6112,-6.6112,-6.6112,-6.6112,0.0,0.0,-8.2248,-7.9876,0.0,0.0,0.0,0.0,0.0,0.0,0.0,0.0,0.0,-7.4869,0.0,0.0,0.0,0.0,0.0,0.0,-7.4869,-7.4869,-7.3881,-7.2954,-7.2116,-7.1308,-7.0889,-7.0889,-7.0889,-7.0889,-7.0889,-7.0889,-7.0889,-7.0889,-7.0889,-7.0889,-7.0859,-7.038,-7.0111,-6.9931,-6.9423,-6.9123,-6.9004,-6.9004,-6.9333,0.0,0.0,0.0,0.0,0.0,0.0,0.0,-6.781,-6.5482,-6.2884,-6.2115,-6.0736,-5.9608,-6.0161,-6.0638,-6.1165,-6.1843,-6.2345,-6.2672,-6.2797,-6.2822,-6.2822,-6.2822,-6.2822,-6.2822,-6.2822,-6.2822,-6.2822,-6.2822,-6.2822,-6.2822,-6.2822,-6.2822,-6.3048,-6.3626,-6.4153,-6.468,-6.5233,-6.5785,-6.6112,-6.6112,-6.6112,-6.6112,-6.6112,-6.6112,-6.6112,-6.6112,-6.6112,-6.6112,-6.6112,-6.6112,-6.6112,-6.6112,-6.6112,-6.6112,-6.6112,-6.6112,-6.6112,-6.6112,-6.6112,-6.6112,-6.6112,-6.6112,-6.6112,-6.6112,-6.6112,-6.6112,-6.6112,-6.6112,-6.6112,-6.6112,0.0,0.0,0.0,0.0,0.0,0.0,0.0,0.0,0.0,0.0,0.0,0.0,0.0,-7.4869,0.0,0.0,0.0,0.0,0.0,0.0,-7.4749,-7.442,-7.3462,-7.2595,-7.1906,-7.1248,-7.0889,-7.0889,-7.0889,-7.0889,-7.0889,-7.0889,-7.0889,-7.0889,-7.0889,-7.0889,-7.0889,-7.056,-7.041,-7.038,-7.0051,-6.9901,-6.9901,-6.9901,-7.0141,-7.041,-7.041,0.0,0.0,0.0,0.0,0.0,0.0,0.0,-6.3078,-6.1943,-6.0761,-5.9916,-6.0591,-6.0939,-6.1391,-6.2195,-6.2621,-6.2822,-6.2822,-6.2822,-6.2822,-6.2822,-6.2822,-6.2822,-6.2822,-6.2822,-6.2822,-6.2822,-6.2822,-6.2822,-6.2822,-6.2822,-6.3149,-6.3977,-6.4304,-6.4781,-6.5609,-6.5936,-6.6112,-6.6112,-6.6112,-6.6112,-6.6112,-6.6112,-6.6112,-6.6112,-6.6112,-6.6112,-6.6112,-6.6112,-6.6112,-6.6112,-6.6112,-6.6112,-6.6112,-6.6112,-6.6112,-6.6112,-6.6112,-6.6112,-6.6112,-6.6112,-6.6112,-6.6112,-6.6112,-6.6112,-6.6112,-6.6112,-6.6112,-6.6112,0.0,0.0,0.0,0.0,0.0,0.0,0.0,0.0,0.0,0.0,0.0,0.0,0.0,0.0,0.0,0.0,0.0,0.0,0.0,0.0,0.0,-7.3762,-7.3223,-7.2535,-7.1727,-7.1188,-7.0889,-7.0889,-7.0889,-7.0889,-7.0889,-7.0889,-7.0889,-7.0889,-7.0889,-7.0889,-7.0889,-7.0889,-7.0889,-7.0889,-7.0889,-7.0889,-7.0889,-7.0889,-7.0889,-7.0889,-7.0889,-7.0889,-7.0824,-7.0629,0.0,0.0,0.0,0.0,-6.3929,-6.1793,-6.0863,-6.0661,-6.118,-6.1395,-6.1692,-6.2596,-6.2822,-6.2822,-6.2822,-6.2822,-6.2822,-6.2822,-6.2822,-6.2822,-6.2822,-6.2822,-6.2822,-6.2822,-6.2822,-6.2822,-6.2822,-6.2822,-6.3224,-6.4329,-6.4454,-6.4906,-6.6011,-6.6112,-6.6112,-6.6112,-6.6112,-6.6112,-6.6112,-6.6112,-6.6112,-6.6112,-6.6112,-6.6112,-6.6112,-6.6112,-6.6112,-6.6112,-6.6112,-6.6112,-6.6112,-6.6112,-6.6112,-6.6112,-6.6112,-6.6112,-6.6112,-6.6112,-6.6112,-6.6112,-6.6112,-6.6112,-6.6112,-6.6112,-6.6112,-6.6112,0.0,0.0,0.0,0.0,0.0,0.0,0.0,0.0,0.0,0.0,-7.4869,-7.4869,0.0,0.0,0.0,0.0,0.0,0.0,0.0,0.0,0.0,-7.3103,-7.2954,-7.2325,-7.1068,-7.0949,-7.0889,-7.0889,-7.0889,-7.0889,-7.0889,-7.0889,-7.0889,-7.0889,-7.0889,-7.0889,-7.0889,-7.0889,-7.0889,-7.0889,-7.0889,-7.0889,-7.0889,-7.0889,-7.0889,-7.0889,-7.0889,-7.0889,-7.0694,-6.942,-6.9715,0.0,0.0,0.0,-6.6886,-6.4075,-6.2709,-6.2002,-6.1808,-6.2134,-6.2647,-6.2797,-6.2822,-6.2822,-6.2822,-6.2822,-6.2822,-6.2822,-6.2822,-6.2822,-6.2822,-6.2822,-6.2822,-6.2822,-6.2822,-6.2822,-6.2822,-6.2822,-6.3224,-6.4329,-6.4454,-6.4906,-6.6011,-6.6112,-6.6112,-6.6112,-6.6112,-6.6112,-6.6112,-6.6112,-6.6112,-6.6112,-6.6112,-6.6112,-6.6112,-6.6112,-6.6112,-6.6112,-6.6112,-6.6112,-6.6112,-6.6112,-6.6112,-6.6112,-6.6112,-6.6112,-6.6112,-6.6112,-6.6112,-6.6112,-6.6112,-6.6112,-6.6112,-6.6112,-6.6112,-6.6112,0.0,0.0,0.0,0.0,0.0,0.0,0.0,0.0,0.0,0.0,0.0,-7.4869,0.0,0.0,0.0,-7.4869,0.0,0.0,0.0,0.0,0.0,0.0,-7.2924,-7.2295,-7.0919,-7.0889,-7.0889,-7.0889,-7.0889,-7.0889,-7.0889,-7.0889,-7.0889,-7.0889,-7.0889,-7.0889,-7.0889,-7.0889,-7.0889,-7.0889,-7.0889,-7.0889,-7.0889,-7.0889,-7.0889,-7.0889,-7.0889,-7.0889,-7.0824,-7.014,-7.0337,-7.0563,-6.8383,0.0,0.0,0.0,-6.4002,-6.29,-6.2017,-6.2315,-6.2822,-6.2822,-6.2822,-6.2822,-6.2822,-6.2822,-6.2822,-6.2822,-6.2822,-6.2822,-6.2822,-6.2822,-6.2822,-6.2822,-6.2822,-6.2822,-6.2822,-6.2822,-6.3224,-6.4329,-6.4454,-6.4906,-6.6011,-6.6112,-6.6112,-6.6112,-6.6112,-6.6112,-6.6112,-6.6112,-6.6112,-6.6112,-6.6112,-6.6112,-6.6112,-6.6112,-6.6112,-6.6112,-6.6112,-6.6112,-6.6112,-6.6112,-6.6112,-6.6112,-6.6112,-6.6112,-6.6112,-6.6112,-6.6112,-6.6112,-6.6112,-6.6112,-6.6112,-6.6112,-6.6112,-6.6112,0.0,0.0,0.0,0.0,0.0,0.0,0.0,0.0,0.0,0.0,0.0,0.0,0.0,0.0,0.0,0.0,-7.4869,0.0,0.0,0.0,0.0,0.0,0.0,-7.2295,-7.0919,-7.0889,-7.0889,-7.0889,-7.0889,-7.0889,-7.0889,-7.0889,-7.0889,-7.0889,-7.0889,-7.0889,-7.0889,-7.0889,-7.0889,-7.0889,-7.0889,-7.0889,-7.0889,-7.0889,-7.0889,-7.0889,-7.0889,-7.0889,-7.0824,-7.0498,-7.0629,-7.0563,-6.8654,-6.8654,0.0,0.0,0.0,-6.4237,-6.3281,-6.3513,-6.3988,-6.3529,-6.3448,-6.3286,-6.2904,-6.2822,-6.2822,-6.2822,-6.2822,-6.2822,-6.2822,-6.2822,-6.2822,-6.2822,-6.2822,-6.2822,-6.2822,-6.2822,-6.3224,-6.4329,-6.4454,-6.4906,-6.6011,-6.6112,-6.6112,-6.6112,-6.6112,-6.6112,-6.6112,-6.6112,-6.6112,-6.6112,-6.6112,-6.6112,-6.6112,-6.6112,-6.6112,-6.6112,-6.6112,-6.6112,-6.6112,-6.6112,-6.6112,-6.6112,-6.6112,-6.6112,-6.6112,-6.6112,-6.6112,-6.6112,-6.6112,-6.6112,-6.6112,-6.6112,-6.6112,-6.6112,0.0,0.0,0.0,0.0,0.0,0.0,0.0,0.0,0.0,0.0,0.0,0.0,-7.4869,-7.4869,-7.4869,-7.4869,-7.4869,-7.4869,-7.4869,-7.4869,0.0,0.0,0.0,0.0,-7.0919,-7.0889,-7.0889,-7.0889,-7.0889,-7.0889,-7.0889,-7.0889,-7.0889,-7.0889,-7.0889,-7.0889,-7.0889,-7.0889,-7.0889,-7.0889,-7.0889,-7.0889,-7.0889,-7.0889,-7.0889,-7.0889,-7.0889,-7.0889,-7.0694,-6.9286,-6.9715,-7.0403,-6.7427,-6.8451,-7.0206,0.0,0.0,0.0,-6.6356,-6.6855,-6.7088,-6.5582,-6.5134,-6.4737,-6.3123,-6.2822,-6.2822,-6.2822,-6.2822,-6.2822,-6.2822,-6.2822,-6.2822,-6.2822,-6.2822,-6.2822,-6.2822,-6.2822,-6.3224,-6.4329,-6.4454,-6.4906,-6.6011,-6.6112,-6.6112,-6.6112,-6.6112,-6.6112,-6.6112,-6.6112,-6.6112,-6.6112,-6.6112,-6.6112,-6.6112,-6.6112,-6.6112,-6.6112,-6.6112,-6.6112,-6.6112,-6.6112,-6.6112,-6.6112,-6.6112,-6.6112,-6.6112,-6.6112,-6.6112,-6.6112,-6.6112,-6.6112,-6.6112,-6.6112,-6.6112,-6.6112,0.0,0.0,0.0,0.0,0.0,0.0,0.0,0.0,0.0,0.0,0.0,0.0,0.0,-7.4869,-7.4869,-7.4869,-7.4869,-7.4869,-7.4869,-7.4869,0.0,0.0,0.0,0.0,-7.0919,-7.0889,-7.0889,-7.0889,-7.0889,-7.0889,-7.0889,-7.0889,-7.0889,-7.0889,-7.0889,-7.0889,-7.0889,-7.0889,-7.0337,-6.9516,-6.9516,-6.8885,-6.8112,-6.9086,-6.9516,-6.9582,-7.0563,-7.0889,-7.0824,-7.0272,-7.0468,-7.0694,-6.9648,-7.0009,-7.0587,-6.8972,-6.8694,-6.8696,-6.8048,-6.7954,-6.7931,-6.7395,-6.6261,-6.5134,-6.4523,-6.361,-6.2822,-6.2822,-6.2822,-6.2822,-6.2822,-6.2822,-6.2822,-6.2822,-6.2822,-6.2822,-6.2822,-6.2822,-6.3224,-6.4329,-6.4454,-6.4906,-6.6011,-6.6112,-6.6112,-6.6112,-6.6112,-6.6112,-6.6112,-6.6112,-6.6112,-6.6112,-6.6112,-6.6112,-6.6112,-6.6112,-6.6112,-6.6112,-6.6112,-6.6112,-6.6112,-6.6112,-6.6112,-6.6112,-6.6112,-6.6112,-6.6112,-6.6112,-6.6112,-6.6112,-6.6112,-6.6112,-6.6112,-6.6112,-6.6112,-6.6112,0.0,0.0,0.0,0.0,0.0,0.0,0.0,0.0,-7.4869,-7.4869,0.0,0.0,0.0,0.0,-7.4869,-7.4869,-7.4869,-7.4869,-7.4869,-7.4869,-7.43,0.0,0.0,0.0,-7.0919,-7.0889,-7.0889,-7.0889,-7.0889,-7.0889,-7.0889,-7.0889,-7.0889,-7.0889,-7.0889,-7.0889,-7.0889,-7.0337,-6.9582,-6.8683,-6.8112,-6.7289,-6.6566,-6.8112,-6.8383,-6.8112,-6.9648,-7.014,-7.014,-7.014,-7.0289,-7.0532,-7.1087,-7.1398,-7.147,-7.0922,-7.0907,-7.0906,-7.0178,-6.9951,-6.9765,-6.9093,-6.7958,-6.6677,-6.5529,-6.4443,-6.3448,-6.2904,-6.2822,-6.2822,-6.2822,-6.2822,-6.2822,-6.2822,-6.2822,-6.2822,-6.2822,-6.2822,-6.3224,-6.4329,-6.4454,-6.4906,-6.6011,-6.6112,-6.6112,-6.6112,-6.6112,-6.6112,-6.6112,-6.6112,-6.6112,-6.6112,-6.6112,-6.6112,-6.6112,-6.6112,-6.6112,-6.6112,-6.6112,-6.6112,-6.6112,-6.6112,-6.6112,-6.6112,-6.6112,-6.6112,-6.6112,-6.6112,-6.6112,-6.6112,-6.6112,-6.6112,-6.6112,-6.6112,-6.6112,-6.6112,0.0,0.0,-7.4869,-7.4869,0.0,0.0,0.0,0.0,-7.4869,-7.4869,0.0,0.0,0.0,0.0,0.0,-7.4869,-7.4869,-7.4869,-7.4869,-7.4869,-7.43,-7.2984,0.0,0.0,-7.0919,-7.0889,-7.0889,-7.0889,-7.0889,-7.0889,-7.0889,-7.0889,-7.0889,-7.0889,-7.0889,-7.0919,-7.0759,-6.9286,-6.8683,-6.8519,-6.6943,-6.6314,-6.6426,-6.7975,-6.7633,-6.6524,-6.814,-6.8712,-6.8712,-6.8712,-6.9147,-6.9904,-7.1347,-7.2319,-7.2924,-7.2924,-7.3103,-7.3239,0.0,0.0,0.0,-7.0809,-7.0266,-6.9346,-6.6209,-6.545,-6.4896,-6.3204,-6.2904,-6.2822,-6.2822,-6.2822,-6.2822,-6.2822,-6.2822,-6.2822,-6.2822,-6.2822,-6.3224,-6.4329,-6.4454,-6.4906,-6.6011,-6.6112,-6.6112,-6.6112,-6.6112,-6.6112,-6.6112,-6.6112,-6.6112,-6.6112,-6.6112,-6.6112,-6.6112,-6.6112,-6.6112,-6.6112,-6.6112,-6.6112,-6.6112,-6.6112,-6.6112,-6.6112,-6.6112,-6.6112,-6.6112,-6.6112,-6.6112,-6.6112,-6.6112,-6.6112,-6.6112,-6.6112,-6.6112,-6.6112,0.0,0.0,-7.4869,-7.4869,-7.4869,-7.4869,-7.4869,-7.4869,-7.4869,0.0,0.0,0.0,-7.4869,-7.4869,-7.4869,-7.4869,-7.4869,-7.4869,-7.4869,-7.4869,-7.43,-7.2984,-7.2924,-7.2295,-7.0919,-7.0889,-7.0889,-7.0889,-7.0889,-7.0889,-7.0889,-7.0889,-7.0889,-7.0889,-7.0889,-7.0272,-6.9286,-6.8885,-6.8043,-6.6914,-6.5396,-6.4129,-6.3379,-6.4895,-6.5457,-6.5626,-6.7171,-6.8646,-6.9978,-6.9978,-7.0094,-7.0308,-7.0721,-7.1812,-7.3013,-7.3492,-7.3461,-7.3465,-7.4108,0.0,0.0,0.0,0.0,0.0,-6.9121,-6.7882,-6.6572,-6.4975,-6.4603,-6.4203,-6.2985,-6.2822,-6.2822,-6.2822,-6.2822,-6.2822,-6.2822,-6.2822,-6.3224,-6.4329,-6.4454,-6.4906,-6.6011,-6.6112,-6.6112,-6.6112,-6.6112,-6.6112,-6.6112,-6.6112,-6.6112,-6.6112,-6.6112,-6.6112,-6.6112,-6.6112,-6.6112,-6.6112,-6.6112,-6.6112,-6.6112,-6.6112,-6.6112,-6.6112,-6.6112,-6.6112,-6.6112,-6.6112,-6.6112,-6.6112,-6.6112,-6.6112,-6.6112,-6.6112,-6.6112,-6.6112,-7.4869,-7.4869,-7.4869,-7.4869,-7.4869,-7.4869,-7.4869,-7.4869,-7.4869,0.0,0.0,0.0,-7.4869,-7.4869,-7.4869,-7.4869,-7.4869,-7.4869,-7.4869,-7.4629,-7.4001,-7.2954,-7.2624,-7.1996,-7.0919,-7.0889,-7.0889,-7.0889,-7.0889,-7.0889,-7.0889,-7.0889,-7.0889,-7.0889,-7.0889,-7.0075,-6.8683,-6.8043,-6.6845,-6.5324,-6.3865,-6.2741,-6.2172,-6.3646,-6.4169,-6.431,-6.5874,-6.7317,-6.8568,-6.8568,-6.9593,-7.0865,-7.0491,-7.19,-7.3821,-7.418,-7.4164,-7.4087,-7.4573,-7.4248,-7.3761,-7.3551,0.0,0.0,-7.0413,-6.8868,-6.7242,-6.5661,-6.4737,-6.3988,-6.2985,-6.2822,-6.2822,-6.2822,-6.2822,-6.2822,-6.2822,-6.2822,-6.3224,-6.4329,-6.4454,-6.4906,-6.6011,-6.6112,-6.6112,-6.6112,-6.6112,-6.6112,-6.6112,-6.6112,-6.6112,-6.6112,-6.6112,-6.6112,-6.6112,-6.6112,-6.6112,-6.6112,-6.6112,-6.6112,-6.6112,-6.6112,-6.6112,-6.6112,-6.6112,-6.6112,-6.6112,-6.6112,-6.6112,-6.6112,-6.6112,-6.6112,-6.6137,-6.6388,-6.6488,-6.6513,0.0,-7.4869,-7.4869,-7.4869,-7.4869,-7.4869,-7.4869,-7.4869,-7.4869,0.0,-7.4869,-7.4869,-7.4869,-7.4869,-7.4869,-7.4869,-7.4869,-7.4869,-7.4869,-7.427,-7.3612,-7.2954,-7.2265,-7.1577,-7.0919,-7.0889,-7.0889,-7.0889,-7.0889,-7.0889,-7.0889,-7.0889,-7.0889,-7.0889,-7.0694,-6.9847,-6.8315,-6.6804,-6.5324,-6.3865,-6.2545,-6.1973,-6.2123,-6.3506,-6.3538,-6.3066,-6.4546,-6.5545,-6.6108,-6.6033,-6.8333,-7.1093,-7.0233,-7.2028,-7.4495,-7.4731,-7.48,-7.4731,-7.4387,-7.404,-7.3691,-7.3369,-7.2986,0.0,-7.0809,-6.9318,-6.7778,-6.6209,-6.4683,-6.3584,-6.3367,-6.3367,-6.3367,-6.3367,-6.3204,-6.2985,-6.2822,-6.2822,-6.3224,-6.4329,-6.4454,-6.4906,-6.6011,-6.6112,-6.6112,-6.6112,-6.6112,-6.6112,-6.6112,-6.6112,-6.6112,-6.6112,-6.6112,-6.6112,-6.6112,-6.6112,-6.6112,-6.6112,-6.6112,-6.6112,-6.6112,-6.6112,-6.6112,-6.6112,-6.6187,-6.6212,-6.6212,-6.6262,-6.6262,-6.6212,-6.6212,-6.6237,-6.6363,-6.6865,-6.7066,-6.7141,-7.4869,-7.4869,-7.4869,-7.4869,-7.4869,-7.4869,-7.4869,-7.4869,-7.4869,-7.4869,-7.4869,-7.4869,-7.4869,-7.4869,-7.4869,-7.4869,-7.4869,-7.4869,-7.4869,-7.427,-7.3612,-7.2954,-7.2265,-7.1577,-7.0919,-7.0889,-7.0889,-7.0889,-7.0889,-7.0889,-7.0889,-7.0889,-7.0889,-7.0824,-6.9648,-6.8248,-6.6706,-6.5253,-6.3792,-6.2396,-6.2123,-6.1973,-6.21,-6.2772,-6.3221,-6.3644,-6.4321,-6.5826,-6.7354,-6.6995,-6.8188,-6.9791,-6.9309,-7.0476,-7.2272,-7.3591,-7.397,-7.404,-7.4248,-7.404,-7.3761,-7.3691,-7.334,0.0,-7.2316,-7.1855,-7.1174,-6.9597,-6.897,-6.8338,-6.701,-6.6701,-6.6701,-6.6701,-6.5661,-6.4363,-6.2985,-6.2822,-6.3224,-6.4329,-6.4454,-6.4906,-6.6011,-6.6112,-6.6112,-6.6112,-6.6112,-6.6112,-6.6112,-6.6112,-6.6112,-6.6112,-6.6112,-6.6112,-6.6112,-6.6112,-6.6112,-6.6112,-6.6112,-6.6112,-6.6112,-6.6112,-6.6112,-6.6137,-6.6614,-6.6815,-6.684,-6.7292,-6.7216,-6.6815,-6.6815,-6.7066,-6.7493,-6.7593,-6.7643,-6.7643,-7.4869,-7.4869,-7.4869,-7.4869,-7.4869,-7.4869,-7.4869,-7.4869,-7.4869,-7.4869,-7.4869,-7.4869,-7.4869,-7.4869,-7.4869,-7.4869,-7.4869,-7.4749,-7.442,-7.3762,-7.3103,-7.2445,-7.1757,-7.1248,-7.0919,-7.0889,-7.0889,-7.0889,-7.0889,-7.0889,-7.0889,-7.0889,-7.0889,-7.0824,-6.9353,-6.8248,-6.7427,-6.5182,-6.3792,-6.3011,-6.2321,-6.213,-6.2443,-6.2705,-6.3358,-6.4142,-6.443,-6.5422,-6.6497,-6.6106,-6.7603,-6.9318,-6.8083,-6.9959,-7.2544,-7.2544,-7.3169,-7.386,-7.397,-7.3761,-7.351,-7.351,-7.3199,0.0,0.0,-7.2,-7.1174,-7.0368,-6.957,-6.8717,-6.7855,-6.7702,-6.7702,-6.7702,-6.6339,-6.5292,-6.5266,-6.3827,-6.3224,-6.4329,-6.4454,-6.4906,-6.6011,-6.6112,-6.6112,-6.6112,-6.6112,-6.6112,-6.6112,-6.6112,-6.6112,-6.6112,-6.6112,-6.6112,-6.6112,-6.6112,-6.6112,-6.6112,-6.6112,-6.6112,-6.6112,-6.6112,-6.6262,-6.6564,-6.684,-6.7141,-6.7417,-6.7693,-6.7794,-6.7769,-6.7493,-6.7543,-6.7819,-6.812,-6.8221,-6.8246,-7.4869,-7.4869,-7.4869,-7.4869,-7.4869,-7.4869,-7.4869,-7.4869,-7.4869,-7.4869,-7.4869,-7.4869,-7.4869,-7.4869,-7.4869,-7.4869,-7.4869,-7.4659,-7.4121,-7.3462,-7.2864,-7.2295,-7.1517,-7.1098,-7.1098,-7.0979,-7.0889,-7.0889,-7.0889,-7.0889,-7.0889,-7.0889,-7.0889,-7.0824,-6.9353,-6.8683,-6.8548,-6.5577,-6.4364,-6.4246,-6.2883,-6.2522,-6.2862,-6.3071,-6.3724,-6.456,-6.4665,-6.5005,-6.5371,-6.5292,-6.673,-6.8366,-6.7576,-6.9737,-7.2472,-7.1841,-7.2615,-7.372,-7.3831,-7.358,-7.3228,-7.3298,-7.2915,-7.2602,0.0,0.0,0.0,-7.0662,-6.957,-6.8614,-6.8614,-6.8614,-6.8614,-6.8614,-6.7269,-6.665,-6.8007,-6.5661,-6.4154,-6.5358,-6.4847,-6.505,-6.6499,-6.6283,-6.6112,-6.6112,-6.6112,-6.6112,-6.6112,-6.6112,-6.6112,-6.6112,-6.6112,-6.6112,-6.6112,-6.6112,-6.6112,-6.6112,-6.6112,-6.6112,-6.6112,-6.6237,-6.6538,-6.699,-6.7191,-6.7543,-6.797,-6.807,-6.8371,-6.8723,-6.817,-6.802,-6.817,-6.8622,-6.8773,-6.8848,-7.4869,-7.4869,-7.4869,-7.4869,-7.4869,-7.4869,-7.4869,-7.4869,-7.4869,-7.4869,-7.4869,-7.4869,-7.4869,-7.4869,-7.4869,-7.4869,-7.4869,-7.4839,-7.4779,-7.4151,-7.3762,-7.3672,-7.2445,-7.1787,-7.1787,-7.1188,-7.0889,-7.0889,-7.0889,-7.0889,-7.0889,-7.0889,-7.0889,-7.0824,-6.9353,-6.8683,-6.8577,-6.602,-6.4988,-6.4896,-6.3914,-6.3227,-6.294,-6.3959,-6.443,-6.4587,-6.5109,-6.5318,-6.5529,-6.6521,-6.5923,-6.5345,-6.9065,-6.9365,-6.899,-7.2071,-7.3128,-7.341,-7.404,-7.3691,-7.3298,-7.3621,-7.3199,-7.2602,-7.2602,0.0,-7.2316,-7.2316,0.0,-7.2071,-7.2071,0.0,0.0,-7.2071,-7.0707,-6.9747,-6.9895,-6.8338,-6.7622,-6.8807,-6.6284,-6.5528,-6.8195,-6.7001,-6.6112,-6.6112,-6.6112,-6.6112,-6.6112,-6.6112,-6.6112,-6.6112,-6.6112,-6.6112,-6.6112,-6.6112,-6.6112,-6.6112,-6.6112,-6.6112,-6.6137,-6.6639,-6.6915,-6.7041,-6.802,-6.8472,-6.8572,-6.9049,-6.93,-6.93,-6.8748,-6.8823,-6.9275,-6.9325,-6.9351,-6.9351,-7.4869,-7.4869,-7.4869,-7.4869,-7.4869,-7.4869,-7.4869,-7.4869,-7.4869,-7.4869,-7.4869,-7.4869,-7.4869,-7.4869,-7.4869,-7.4869,-7.4869,-7.4719,-7.433,-7.4061,-7.3732,-7.3343,-7.2774,-7.2295,-7.1906,-7.1607,-7.1278,-7.0889,-7.0889,-7.0889,-7.0889,-7.0889,-7.1098,-7.1392,-6.9939,-6.9942,-7.0893,-6.7229,-6.6129,-6.6889,-6.5889,-6.5418,-6.5231,-6.5739,-6.614,-6.6332,-6.5661,-6.5975,-6.6652,-6.5713,-6.6704,-6.8138,-6.6883,-6.8387,-7.0532,-7.0679,-7.1755,-7.2986,-7.348,-7.3269,-7.2915,-7.3057,-7.2844,-7.2602,-7.2602,-7.2602,-7.2602,-7.2602,0.0,0.0,0.0,0.0,0.0,0.0,-7.1247,-7.0515,-7.1494,-6.9726,-6.8543,-6.9411,-6.8253,-6.7762,-6.8586,-6.8048,-6.7171,-6.6197,-6.7001,-6.7171,-6.6112,-6.6112,-6.6112,-6.6112,-6.6112,-6.6112,-6.6112,-6.6112,-6.6112,-6.6112,-6.6112,-6.6863,-6.8167,-6.8425,-6.9461,-7.0999,-7.0429,-7.0405,-7.0626,-6.9775,-7.003,-7.1023,-7.0791,-7.0843,-7.1049,-7.1049,-7.1049,-7.1049,-7.4869,-7.4869,-7.4869,-7.4869,-7.4869,-7.4869,-7.4869,-7.4869,-7.4869,-7.4869,-7.4869,-7.4869,-7.4869,-7.4869,-7.4869,-7.4869,-7.4869,-7.4659,-7.418,-7.4151,-7.3941,-7.3462,-7.3283,-7.2954,-7.2445,-7.2265,-7.1936,-7.1457,-7.1457,-7.1457,-7.1457,-7.1457,-7.1697,-7.2109,-7.1049,-7.1479,-7.2656,-6.908,-6.82,-6.9122,-6.8105,-6.8056,-6.8354,-6.7483,-6.7175,-6.6963,-6.5845,-6.6445,-6.7476,-6.5739,-6.7399,-6.9644,-6.6236,-6.8062,-7.1174,-6.9913,-7.1,-7.2702,-7.3199,-7.2986,-7.2631,-7.2773,-7.2702,-7.2602,-7.2602,-7.2602,-7.2602,-7.2602,-7.2602,0.0,0.0,0.0,-7.2602,-7.2602,0.0,-7.1532,-7.2749,-7.121,-7.0256,-7.076,-7.0731,-7.0334,-6.9521,-6.9436,-6.869,-6.6916,-6.7964,-6.7964,-6.6197,-6.6515,-6.6601,-6.6112,-6.6601,-6.6601,-6.6112,-6.6112,-6.6344,-6.6831,-6.7009,-6.8286,-7.0418,-7.0735,-7.1991,-7.3943,-7.2808,-7.2527,-7.2837,-7.149,-7.1728,-7.2924,-7.2924,-7.3269,-7.3587,-7.2576,-7.2167,-7.2167,-7.4869,-7.4869,-7.4869,-7.4869,-7.4869,-7.4869,-7.4869,-7.4869,-7.4869,-7.4869,-7.4869,-7.4869,-7.4869,-7.4869,-7.4869,-7.4869,-7.4869,-7.4869,-7.4839,-7.4839,-7.4839,-7.4809,-7.421,-7.3851,-7.3821,-7.3223,-7.2864,-7.2864,-7.2864,-7.2864,-7.2864,-7.2864,-7.2864,-7.2894,-7.2827,-7.2827,-7.282,-7.1783,-7.1387,-7.1304,-7.0339,-7.0915,-7.1956,-6.8943,-6.6808,-6.545,-6.5371,-6.6445,-6.7783,-6.7734,-6.7449,-6.7499,-6.897,-6.8998,-6.8923,-7.0809,-7.1928,-7.2744,-7.3551,-7.3199,-7.2702,-7.3057,-7.2915,-7.2602,-7.2602,-7.2602,-7.2602,-7.2602,-7.2602,-7.2602,-7.2602,-7.2602,-7.2602,-7.2602,-7.3081,0.0,0.0,-7.3516,-7.3676,-7.4284,-7.4032,-7.3085,-7.1364,-7.1203,-7.0474,-6.8773,-6.869,-6.7964,-6.6197,-6.7737,-6.7796,-6.6112,-6.7737,-6.7822,-6.6112,-6.6112,-6.6916,-6.8633,-6.9291,-7.0475,-7.2261,-7.3373,-7.3889,-7.4054,-7.4567,-7.4781,-7.4781,-7.4781,-7.4781,-7.4781,-7.4781,-7.5874,-7.698,-7.3528,-7.2167,-7.2167,-7.4869,-7.4869,-7.4869,-7.4869,-7.4869,-7.4869,-7.4869,-7.4869,-7.4869,-7.4869,-7.4869,-7.4869,-7.4869,-7.4869,-7.4869,-7.4869,-7.4869,-7.4869,-7.4869,-7.4869,-7.4869,-7.4869,-7.4659,-7.433,-7.3911,-7.3672,-7.3343,-7.2924,-7.2924,-7.2924,-7.2924,-7.2924,-7.3163,-7.3552,-7.3552,-7.3821,-7.4142,-7.2771,-7.2195,-7.2124,-7.1827,-7.1379,-7.0696,-6.8593,-6.8744,-6.9839,-6.7707,-6.7985,-6.9093,-6.7806,-6.7985,-6.8442,-6.6548,-6.7783,-6.9969,-6.9765,-7.1073,-7.2702,-7.3269,-7.2986,-7.2631,-7.2773,-7.2702,-7.2602,-7.2602,-7.2602,-7.2602,-7.2602,-7.2602,-7.2747,-7.3182,-7.3269,-7.3414,-7.3792,-7.4053,-7.4082,0.0,-7.3618,-7.3995,-7.504,-7.4051,-7.3191,-7.3007,-7.2984,-7.1845,-6.894,-6.9739,-6.9188,-6.6283,-6.7737,-6.788,-6.6197,-6.7822,-6.8466,-6.7822,-6.8293,-6.9375,-7.1091,-7.0541,-7.1998,-7.5175,-7.4334,-7.5517,-7.811,-7.7142,-7.6649,-7.6567,-7.5371,-7.5623,-7.6649,-7.6649,-7.7827,-7.9095,-7.6649,-7.579,-7.5623,-7.4869,-7.4869,-7.4869,-7.4869,-7.4869,-7.4869,-7.4869,-7.4869,-7.4869,-7.4869,-7.4869,-7.4869,-7.4869,-7.4869,-7.4869,-7.4869,-7.4869,-7.4869,-7.4869,-7.4869,-7.4869,-7.4869,-7.4869,-7.4689,-7.424,-7.424,-7.4031,-7.3612,-7.3612,-7.3612,-7.3612,-7.3612,-7.3821,-7.424,-7.424,-7.448,-7.48,-7.3772,-7.3322,-7.3322,-7.3322,-7.2728,-7.1668,-7.0062,-7.0016,-7.0651,-6.9196,-6.9616,-7.0549,-6.8187,-6.8792,-7.0016,-6.6497,-6.8062,-7.1,-7.0062,-7.0825,-7.2071,-7.2744,-7.2387,-7.1855,-7.2459,-7.2602,-7.2602,-7.2602,-7.2602,-7.2689,-7.2921,-7.2979,-7.3153,-7.3821,-7.3937,-7.4082,-7.4459,-7.4721,-7.4634,0.0,-7.3937,-7.4256,-7.5069,-7.4407,-7.407,-7.4772,-7.4629,-7.3153,-6.9903,-7.0449,0.0,0.0,-6.869,-6.9105,-6.7964,-6.9683,-7.0337,-6.9975,-7.0372,-7.1576,-7.3509,-7.2964,-7.4417,-7.7617,-7.6689,-7.7703,-8.0215,-7.9095,-7.8613,-7.8423,-7.7336,-7.75,-7.8613,-7.8613,-7.9284,-8.0057,-7.8261,-7.7582,-7.7418,-7.4869,-7.4869,-7.4869,-7.4869,-7.4869,-7.4869,-7.4869,-7.4869,-7.4869,-7.4869,-7.4869,-7.4869,-7.4869,-7.4869,-7.4869,-7.4869,-7.4869,-7.4869,-7.4869,-7.4869,-7.4869,-7.4869,-7.4869,-7.4869,-7.4869,-7.4869,-7.4869,-7.4869,-7.4869,-7.4869,-7.4869,-7.4869,-7.4869,-7.4869,-7.4869,-7.4869,-7.4869,-7.4869,-7.4869,-7.4869,-7.4869,-7.4869,-7.4663,-7.3181,-7.0752,-6.8241,-6.9663,-7.1234,-7.2057,-6.9046,-6.9941,-7.1841,-6.882,-6.9691,-7.1841,-7.1465,-7.1117,-7.1089,-7.2287,-7.1494,-7.0662,-7.2244,-7.2602,-7.2631,-7.266,-7.266,-7.2863,-7.3531,-7.3647,-7.385,-7.4459,-7.4576,-7.4707,-7.4663,0.0,0.0,-7.4663,-7.4576,-7.4576,-7.4605,-7.5156,-7.5737,-7.6346,-7.5853,-7.4326,-7.1603,0.0,0.0,0.0,-7.0474,-7.1364,-7.1284,-7.3011,-7.3475,-7.2451,-7.2505,-7.3645,-7.5971,-7.6454,-7.7674,-7.9365,-7.9925,-8.0215,-8.0294,-8.0294,-8.0294,-8.0294,-8.0294,-8.0294,-8.0294,-8.0294,-8.0323,-8.0165,-7.837,-7.7773,-7.7801,-7.4869,-7.4869,-7.4869,-7.4869,-7.4869,-7.4869,-7.4869,-7.4869,-7.4869,-7.4869,-7.4869,-7.4869,-7.4869,-7.4869,-7.4869,-7.4869,-7.4869,-7.4869,-7.4869,-7.4869,-7.4869,-7.4869,-7.4869,-7.4869,-7.4869,-7.4869,-7.4869,-7.4869,-7.4869,-7.4869,-7.4869,-7.4869,-7.4869,-7.4869,-7.4869,-7.4869,-7.4869,-7.4869,-7.4869,-7.4869,-7.4869,-7.4219,-7.3181,-7.3981,-7.304,-7.1335,-7.1769,-7.2128,-7.2372,-7.1553,-7.1016,-7.0549,-6.9439,-7.0357,-7.1841,-7.148,-7.1899,-7.2673,-7.334,-7.2744,-7.2172,-7.2844,-7.2844,-7.2747,-7.324,-7.3356,-7.3531,-7.414,-7.4285,-7.4488,-7.5127,-7.5272,-7.5417,-7.5882,-7.5708,-7.5446,-7.5272,-7.4837,-7.4721,-7.5214,-7.5417,-7.5563,-7.5737,-7.5592,-7.4683,-7.2629,-7.2829,0.0,-7.0718,-7.2244,-7.264,-7.1364,-7.3428,-7.4474,-7.4139,-7.5111,-7.6473,-7.8393,-7.7694,-7.8357,-7.9954,-7.8849,-7.9015,-8.0294,-8.0294,-8.0294,-8.0294,-8.0294,-8.0294,-8.0294,-8.0294,-8.0556,-8.0824,-7.9935,-7.9891,-8.0265,-7.4869,-7.4869,-7.4869,-7.4869,-7.4869,-7.4869,-7.4869,-7.4869,-7.4869,-7.4869,-7.4869,-7.4869,-7.4869,-7.4869,-7.4869,-7.4869,-7.4869,-7.4869,-7.4869,-7.4869,-7.4869,-7.4869,-7.4869,-7.4869,-7.4869,-7.4869,-7.4869,-7.4869,-7.4869,-7.4869,-7.4869,-7.4869,-7.4869,-7.4869,-7.4869,-7.4869,-7.4869,-7.4869,-7.4869,-7.4869,-7.4869,-7.4357,0.0,-7.4594,-7.4357,-7.3533,-7.3533,-7.3533,-7.3462,-7.2728,-7.2343,-7.2057,-7.1089,-7.1884,-7.3082,-7.2728,-7.2615,-7.2786,-7.3621,-7.2786,-7.1971,-7.2986,-7.3148,-7.3153,-7.3531,-7.3821,-7.4169,-7.4808,-7.4953,-7.5156,-7.5795,-7.594,-7.6056,-7.6479,-7.594,-7.5504,-7.5504,-7.5185,-7.4982,-7.5069,-7.533,-7.5388,-7.5098,-7.533,-7.469,-7.2657,-7.3114,-7.3063,0.0,-7.3237,-7.3795,-7.3533,-7.5116,-7.6065,-7.635,-7.732,-7.8452,-7.9743,-7.9112,-7.9284,-8.0294,-7.9284,-7.9364,-8.0294,-8.0294,-8.0294,-8.0294,-8.0294,-8.0294,-8.0323,-8.0585,-8.1078,-8.1601,-8.1252,-8.1339,-8.163,-7.4869,-7.4869,-7.4869,-7.4869,-7.4869,-7.4869,-7.4869,-7.4869,-7.4869,-7.4869,-7.4869,-7.4869,-7.4869,-7.4869,-7.4869,-7.4869,-7.4869,-7.4869,-7.4869,-7.4869,-7.4869,-7.4869,-7.4869,-7.4869,-7.4869,-7.4869,-7.4869,-7.4869,-7.4869,-7.4869,-7.4869,-7.4869,-7.4869,-7.4869,-7.4869,-7.4869,-7.4869,-7.4869,-7.4869,-7.4869,-7.4869,-7.4869,-7.4869,-7.4869,-7.4869,-7.4869,-7.4869,-7.4869,-7.4731,-7.3322,-7.3772,-7.4663,-7.3252,-7.3772,-7.48,-7.4456,-7.3322,-7.2485,-7.3591,-7.2602,-7.1522,-7.3032,-7.3556,-7.3763,-7.385,-7.4256,-7.4837,-7.5504,-7.5621,-7.5795,-7.6346,-7.6538,-7.6538,-7.6538,-7.5998,-7.5621,-7.5621,-7.5621,-7.5388,-7.4721,-7.5214,0.0,-7.4459,-7.5069,-7.4649,-7.2594,-7.297,-7.3308,-7.3393,-7.3816,-7.4877,-7.6579,-7.7188,-7.7856,-7.8524,-7.9133,-7.9714,-8.0294,-8.0294,-8.0294,-8.0294,-8.0294,-8.0294,-8.0294,-8.0294,-8.0352,-8.041,-8.041,-8.0468,-8.0585,-8.1136,-8.1746,-8.2326,-8.2326,-8.2384,-8.2442,-7.4869,-7.4869,-7.4869,-7.4869,-7.4869,-7.4869,-7.4869,-7.4869,-7.4869,-7.4869,-7.4869,-7.4869,-7.4869,-7.4869,-7.4869,-7.4869,-7.4869,-7.4869,-7.4869,-7.4869,-7.4869,-7.4869,-7.4869,-7.4869,-7.4869,-7.4869,-7.4869,-7.4869,-7.4869,-7.4869,-7.4869,-7.4869,-7.4869,-7.4869,-7.4869,-7.4869,-7.4869,-7.4869,-7.4869,-7.4869,-7.4869,-7.4869,-7.4869,-7.4869,-7.4869,-7.4869,-7.4869,-7.4869,-7.4869,-7.4564,-7.4663,-7.4869,-7.4594,-7.4663,-7.4869,-7.48,-7.4357,-7.401,-7.4525,-7.4144,-7.3745,-7.4273,-7.4414,-7.4547,-7.5069,-7.5243,-7.5534,-7.6172,-7.6288,-7.6317,-7.6508,-7.6538,-7.6538,-7.6538,-7.6375,-7.6288,-7.6288,-7.6288,-7.6056,-7.5417,-7.5911,-7.5621,-7.3937,-7.4837,-7.5298,-7.4959,-7.4971,-7.526,-7.5855,0.0,-7.5843,0.0,-7.7885,-7.8524,0.0,0.0,-8.0178,-8.0294,-8.0294,-8.0294,-8.0294,-8.0294,-8.0294,-8.0294,-8.0294,-8.0585,-8.1049,-8.1049,-8.1368,-8.1862,-8.1978,-8.2413,-8.3023,-8.3023,-8.3342,-8.3691,-7.4869,-7.4869,-7.4869,-7.4869,-7.4869,-7.4869,-7.4869,-7.4869,-7.4869,-7.4869,-7.4869,-7.4869,-7.4869,-7.4869,-7.4869,-7.4869,-7.4869,-7.4869,-7.4869,-7.4869,-7.4869,-7.4869,-7.4869,-7.4869,-7.4869,-7.4869,-7.4869,-7.4869,-7.4869,-7.4869,-7.4869,-7.4869,-7.4869,-7.4869,-7.4869,-7.4869,-7.4869,-7.4869,-7.4869,-7.4869,-7.4869,-7.4869,-7.4869,-7.4869,-7.4869,-7.4869,-7.4869,-7.4869,-7.4869,-7.4869,-7.4869,-7.4869,-7.4869,-7.4869,-7.4869,-7.4869,-7.4731,-7.4752,-7.5249,-7.506,-7.4822,-7.5146,-7.5304,-7.5422,-7.552,-7.5766,-7.6085,-7.6404,-7.6538,-7.6538,-7.6538,-7.6538,-7.6538,-7.6538,-7.6538,-7.6538,-7.6538,-7.6538,-7.623,-7.5592,-7.6056,-7.5969,-7.4721,-7.5446,-7.5592,-7.4605,-7.4808,-7.5272,-7.594,0.0,-7.6085,0.0,0.0,0.0,-7.9278,0.0,-8.0294,-8.0294,-8.0294,-8.0294,-8.0294,-8.0294,-8.0468,-8.0759,-8.0759,-8.1136,-8.1717,-8.1717,-8.2094,-8.2704,-8.2704,-8.311,-8.3662,-8.3662,-8.3836,-8.4039,-7.4869,-7.4869,-7.4869,-7.4869,-7.4869,-7.4869,-7.4869,-7.4869,-7.4869,-7.4869,-7.4869,-7.4869,-7.4869,-7.4869,-7.4869,-7.4869,-7.4869,-7.4869,-7.4869,-7.4869,-7.4869,-7.4869,-7.4869,-7.4869,-7.4869,-7.4869,-7.4869,-7.4869,-7.4869,-7.4869,-7.4869,-7.4869,-7.4869,-7.4869,-7.4869,-7.4869,-7.4869,-7.4869,-7.4869,-7.4869,-7.4869,-7.4869,-7.4869,-7.4869,-7.4869,-7.4869,-7.4869,-7.4869,-7.4869,-7.4869,-7.4869,-7.4869,-7.4869,-7.4869,-7.4869,-7.4869,-7.4988,-7.5198,-7.5766,-7.5786,-7.5762,-7.5867,-7.6124,-7.6226,-7.593,-7.6189,-7.6538,-7.6612,-7.6538,-7.6538,-7.6538,-7.6538,-7.6538,-7.6538,-7.6538,-7.6538,-7.6538,-7.6538,-7.623,-7.5592,-7.594,-7.5998,-7.5359,-7.565,-7.5272,-7.3908,-7.4372,-7.4953,-7.5475,0.0,0.0,0.0,0.0,-7.8901,-7.9511,0.0,-8.0294,-8.0294,-8.0294,-8.0381,-8.0497,-8.0497,-8.0817,-8.1397,-8.1397,-8.1775,-8.2413,-8.253,-8.2907,-8.3371,-8.3371,-8.3662,-8.4097,-8.4097,-8.4097,-8.4097,-7.4869,-7.4869,-7.4869,-7.4869,-7.4869,-7.4869,-7.4869,-7.4869,-7.4869,-7.4869,-7.4869,-7.4869,-7.4869,-7.4869,-7.4869,-7.4869,-7.4869,-7.4869,-7.4869,-7.4869,-7.4869,-7.4869,-7.4869,-7.4869,-7.4869,-7.4869,-7.4869,-7.4869,-7.4869,-7.4869,-7.4869,-7.4869,-7.4869,-7.4869,-7.4869,-7.4869,-7.4869,-7.4869,-7.4869,-7.4869,-7.4869,-7.4869,-7.4869,-7.4869,-7.4869,-7.4869,-7.4869,-7.4869,-7.4869,-7.4869,-7.4869,-7.4869,-7.4869,-7.4869,-7.4869,-7.4869,-7.5318,-7.5826,-7.5886,-7.6472,-7.6936,-7.6664,-7.6828,-7.7002,-7.6927,-7.6733,-7.6612,-7.6941,-7.6762,-7.6538,-7.6538,-7.6538,-7.6538,-7.6538,-7.6538,-7.6538,-7.6538,-7.6538,-7.623,-7.5592,-7.5563,-7.533,-7.4663,-7.4169,-7.4024,-7.4401,-7.504,-7.5446,-7.5504,0.0,0.0,-7.8262,-7.8901,-7.954,-8.0207,-8.0265,-8.0294,-8.0294,-8.0294,-8.0585,-8.1107,-8.1107,-8.1484,-8.2094,-8.2094,-8.2471,-8.3139,-8.3691,-8.3952,-8.401,-8.401,-8.4039,-8.4097,-8.4097,-8.4097,-8.4097,-7.4869,-7.4869,-7.4869,-7.4869,-7.4869,-7.4869,-7.4869,-7.4869,-7.4869,-7.4869,-7.4869,-7.4869,-7.4869,-7.4869,-7.4869,-7.4869,-7.4869,-7.4869,-7.4869,-7.4869,-7.4869,-7.4869,-7.4869,-7.4869,-7.4869,-7.4869,-7.4869,-7.4869,-7.4869,-7.4869,-7.4869,-7.4869,-7.4869,-7.4869,-7.4869,-7.4869,-7.4869,-7.4869,-7.4869,-7.4869,-7.4869,-7.4869,-7.4869,-7.4869,-7.4869,-7.4869,-7.4869,-7.4869,-7.4869,-7.4869,-7.4869,-7.4869,-7.4869,-7.4869,-7.4958,-7.5377,-7.5677,-7.6066,-7.6844,-7.727,-7.7563,-7.7588,-7.7666,-7.7726,-7.7431,-7.7135,-7.6941,-7.709,-7.6762,-7.6538,-7.6538,-7.6538,-7.6538,-7.6538,-7.6538,-7.6538,-7.6538,-7.6538,-7.6375,-7.6114,-7.6085,-7.5969,-7.5708,-7.5127,-7.5011,-7.5621,-7.4488,-7.4285,-7.5446,-7.5737,0.0,-7.8349,0.0,-7.9627,-8.0294,-8.0294,-8.0294,-8.0294,-8.0672,-8.0962,-8.1194,-8.1601,-8.2152,-8.282,-8.3168,-8.3487,-8.3749,-8.3981,-8.4097,-8.4097,-8.4097,-8.4097,-8.4097,-8.4097,-8.4097,-8.4097,-7.4869,-7.4869,-7.4869,-7.4869,-7.4869,-7.4869,-7.4869,-7.4869,-7.4869,-7.4869,-7.4869,-7.4869,-7.4869,-7.4869,-7.4869,-7.4869,-7.4869,-7.4869,-7.4869,-7.4869,-7.4869,-7.4869,-7.4869,-7.4869,-7.4869,-7.4869,-7.4869,-7.4869,-7.4869,-7.4869,-7.4869,-7.4869,-7.4869,-7.4869,-7.4869,-7.4869,-7.4869,-7.4869,-7.4869,-7.4869,-7.4869,-7.4869,-7.4869,-7.4869,-7.4869,-7.4869,-7.4869,-7.4869,-7.4869,-7.4869,-7.5018,-7.5168,-7.5168,-7.5168,-7.5318,-7.5976,-7.6305,-7.6664,-7.7562,-7.7951,-7.8148,-7.8163,-7.8209,-7.8136,-7.7843,-7.7505,-7.7209,-7.7209,-7.6986,-7.6837,-7.6687,-7.6687,-7.6612,-7.6538,-7.6538,-7.6538,-7.6538,-7.6538,-7.6538,-7.6538,-7.6288,-7.6259,-7.6508,-7.5882,-7.5766,-7.6479,-7.4779,-7.443,-7.5969,-7.6056,-7.6869,0.0,0.0,0.0,-8.0294,-8.0294,-8.0381,-8.0556,-8.0991,-8.1397,-8.1804,-8.2442,-8.3023,-8.3487,-8.3923,-8.4097,-8.4097,-8.4097,-8.4097,-8.4097,-8.4097,-8.4097,-8.4097,-8.4097,-8.4097,-8.4097,-7.4869,-7.4869,-7.4869,-7.4869,-7.4869,-7.4869,-7.4869,-7.4869,-7.4869,-7.4869,-7.4869,-7.4869,-7.4869,-7.4869,-7.4869,-7.4869,-7.4869,-7.4869,-7.4869,-7.4869,-7.4869,-7.4869,-7.4869,-7.4869,-7.4869,-7.4869,-7.4869,-7.4869,-7.4869,-7.4869,-7.4869,-7.4869,-7.4869,-7.4869,-7.4869,-7.4869,-7.4869,-7.4869,-7.4869,-7.4869,-7.4869,-7.4869,-7.4869,-7.4869,-7.4869,-7.4869,-7.4869,-7.4869,-7.4869,-7.4869,-7.5318,-7.5886,-7.5886,-7.5886,-7.6006,-7.6634,-7.7293,-7.7801,-7.7801,-7.828,-7.8717,-7.8282,-7.8209,-7.8209,-7.8209,-7.7917,-7.7623,-7.7623,-7.7623,-7.7505,-7.7164,-7.709,-7.6941,-7.6538,-7.6538,-7.6538,-7.6538,-7.6538,-7.6538,-7.6538,-7.5911,-7.5766,-7.6479,-7.5882,-7.5766,-7.6479,-7.6508,-7.6695,-7.7333,-7.7391,-7.7972,-7.9249,-7.9946,0.0,-8.0294,-8.0294,-8.0585,-8.1194,-8.1194,-8.1891,-8.3197,-8.3778,-8.4068,-8.4068,-8.4097,-8.4097,-8.4097,-8.4097,-8.4097,-8.4097,-8.4097,-8.4097,-8.4097,-8.4097,-8.4097,-8.4097,-7.4869,-7.4869,-7.4869,-7.4869,-7.4869,-7.4869,-7.4869,-7.4869,-7.4869,-7.4869,-7.4869,-7.4869,-7.4869,-7.4869,-7.4869,-7.4869,-7.4869,-7.4869,-7.4869,-7.4869,-7.4869,-7.4869,-7.4869,-7.4869,-7.4869,-7.4869,-7.4869,-7.4869,-7.4869,-7.4869,-7.4869,-7.4869,-7.4869,-7.4869,-7.4869,-7.4869,-7.4869,-7.4869,-7.4869,-7.4869,-7.4869,-7.4869,-7.4869,-7.4869,-7.4869,-7.4869,-7.4869,-7.5168,-7.5587,-7.5587,-7.6006,-7.6604,-7.7053,-7.6904,-7.6664,-7.7322,-7.7652,-7.7921,-7.837,-7.8639,-7.8789,-7.8644,-7.8644,-7.8644,-7.8644,-7.8282,-7.7917,-7.7696,-7.7431,-7.7238,-7.709,-7.6866,-7.6612,-7.6538,-7.6538,-7.6538,-7.6538,0.0,-7.6538,-7.6538,-7.6666,-7.6869,-7.7072,-7.6927,-7.6869,-7.7101,-7.6695,-7.6724,-7.7362,-7.7827,0.0,0.0,-7.9946,0.0,-8.0294,-8.0701,-8.0991,-8.1194,-8.2123,-8.2994,-8.3807,-8.401,-8.4097,-8.4097,-8.4097,-8.4097,-8.4097,-8.4097,-8.4097,-8.4097,-8.4097,-8.4097,-8.4097,-8.4097,-8.4097,-8.4155,-7.4869,-7.4869,-7.4869,-7.4869,-7.4869,-7.4869,-7.4869,-7.4869,-7.4869,-7.4869,-7.4869,-7.4869,-7.4869,-7.4869,-7.4869,-7.4869,-7.4869,-7.4869,-7.4869,-7.4869,-7.4869,-7.4869,-7.4869,-7.4869,-7.4869,-7.4869,-7.4869,-7.4869,-7.4869,-7.4869,-7.4869,-7.4869,-7.4869,-7.4869,-7.4869,-7.4869,-7.4869,-7.4869,-7.4869,-7.4869,-7.4869,-7.4869,-7.4869,-7.4869,-7.5048,-7.5258,-7.5258,-7.5677,-7.6245,-7.6245,-7.6664,-7.7263,-7.7682,-7.7711,-7.7652,-7.8041,-7.819,-7.828,-7.8669,-7.8789,-7.8789,-7.8789,-7.8789,-7.8789,-7.8789,-7.8572,-7.8354,-7.8136,-7.7873,-7.7652,-7.7505,-7.7283,-7.706,-7.6762,-7.6687,-7.6687,-7.6538,-7.6666,-7.6811,0.0,-7.7391,-7.7769,-7.7769,-7.7972,-7.8117,-7.8117,-7.7972,-7.8088,-7.8465,0.0,-7.8785,-7.9656,-8.0091,-8.041,-8.0643,-8.0991,-8.1455,-8.1949,-8.3023,-8.372,-8.4097,-8.4097,-8.4097,-8.4097,-8.4097,-8.4097,-8.4097,-8.4097,-8.4097,-8.4097,-8.4097,-8.4097,-8.4097,-8.4097,-8.4242,-8.4533,-7.4869,-7.4869,-7.4869,-7.4869,-7.4869,-7.4869,-7.4869,-7.4869,-7.4869,-7.4869,-7.4869,-7.4869,-7.4869,-7.4869,-7.4869,-7.4869,-7.4869,-7.4869,-7.4869,-7.4869,-7.4869,-7.4869,-7.4869,-7.4869,-7.4869,-7.4869,-7.4869,-7.4869,-7.4869,-7.4869,-7.4869,-7.4869,-7.4869,-7.4869,-7.4869,-7.4869,-7.4869,-7.4869,-7.4869,-7.4869,-7.4869,-7.4899,-7.4958,-7.4958,-7.5377,-7.5976,-7.5976,-7.6365,-7.6904,-7.6904,-7.7322,-7.7891,-7.7891,-7.831,-7.8789,-7.8789,-7.8789,-7.8789,-7.8789,-7.8789,-7.8789,-7.8789,-7.8789,-7.8789,-7.8789,-7.8789,-7.8789,-7.8789,-7.8789,-7.8644,-7.8282,-7.8209,-7.7917,-7.7238,-7.709,-7.6941,-7.6671,-7.7043,-7.742,-7.7478,-7.8059,-7.8465,-7.8465,-7.9017,-7.9336,-7.9249,-7.9888,-8.0265,-8.0178,0.0,-7.9075,-8.0265,-8.0352,-8.0643,-8.1194,-8.1281,-8.1978,-8.3255,-8.3807,-8.4097,-8.4097,-8.4097,-8.4097,-8.4097,-8.4097,-8.4097,-8.4097,-8.4097,-8.4097,-8.4097,-8.4097,-8.4097,-8.4097,-8.4126,-8.4562,-8.5084,-7.4869,-7.4869,-7.4869,-7.4869,-7.4869,-7.4869,-7.4869,-7.4869,-7.4869,-7.4869,-7.4869,-7.4869,-7.4869,-7.4869,-7.4869,-7.4869,-7.4869,-7.4869,-7.4869,-7.4869,-7.4869,-7.4869,-7.4869,-7.4869,-7.4869,-7.4869,-7.4869,-7.4869,-7.4869,-7.4869,-7.4869,-7.4869,-7.4869,-7.4869,-7.4869,-7.4869,-7.4869,-7.4869,-7.4869,-7.4869,-7.4869,-7.5198,-7.5647,-7.5647,-7.6066,-7.6604,-7.6604,-7.7023,-7.7562,-7.7562,-7.8011,-7.8549,-7.8549,-7.8669,-7.8789,-7.8789,-7.8789,-7.8789,-7.8789,-7.8789,-7.8789,-7.8789,-7.8789,-7.8789,-7.8789,-7.8789,-7.8789,-7.8789,-7.8572,-7.8282,-7.8209,-7.799,-7.7696,-7.7475,-7.7312,-7.7265,-7.7554,-7.7532,-7.7595,0.0,-7.8698,-7.9075,-7.9075,-7.9685,-7.9656,0.0,-7.9656,-7.9888,-7.8901,-7.9481,-7.9975,-8.0294,-8.0759,-8.1049,-8.1194,-8.221,-8.311,-8.3865,-8.401,-8.4097,-8.4097,-8.4097,-8.4097,-8.4097,-8.4097,-8.4097,-8.4097,-8.4097,-8.4097,-8.4097,-8.4097,-8.4097,-8.4155,-8.4649,-8.4939,-8.5229,-7.4869,-7.4869,-7.4869,-7.4869,-7.4869,-7.4869,-7.4869,-7.4869,-7.4869,-7.4869,-7.4869,-7.4869,-7.4869,-7.4869,-7.4869,-7.4869,-7.4869,-7.4869,-7.4869,-7.4869,-7.4869,-7.4869,-7.4869,-7.4869,-7.4869,-7.4869,-7.4869,-7.4869,-7.4869,-7.4869,-7.4869,-7.4869,-7.4869,-7.4869,-7.4869,-7.5048,-7.5347,-7.5347,-7.5497,-7.5766,-7.5766,-7.6006,-7.6335,-7.6335,-7.6724,-7.7293,-7.7293,-7.7711,-7.825,-7.825,-7.8489,-7.8789,-7.8789,-7.8789,-7.8789,-7.8789,-7.8789,-7.8789,-7.8789,-7.8789,-7.8789,-7.8789,-7.8789,-7.8789,-7.8789,-7.8789,-7.8789,-7.8789,-7.8644,-7.8499,-7.8499,-7.8282,-7.8063,-7.7917,-7.7814,-7.7944,-7.8238,-7.8418,-7.8715,-7.9064,-7.9676,-7.9977,-7.9743,-8.0091,-8.0004,-7.9307,-7.9917,0.0,-7.9307,-8.0178,-8.0701,-8.0701,-8.102,-8.1484,-8.2094,-8.311,-8.3778,-8.4097,-8.4097,-8.4097,-8.4097,-8.4097,-8.4097,-8.4097,-8.4097,-8.4097,-8.4097,-8.4097,-8.4097,-8.4126,-8.4416,-8.4533,-8.462,-8.5287,-8.5694,-8.6042,-7.4869,-7.4869,-7.4869,-7.4869,-7.4958,-7.5018,-7.5018,-7.5108,-7.5168,-7.5168,-7.5168,-7.5168,-7.5168,-7.5168,-7.5168,-7.5168,-7.5168,-7.5078,-7.4899,-7.4869,-7.4869,-7.4869,-7.4869,-7.4929,-7.5018,-7.5138,-7.5168,-7.5168,-7.5168,-7.5168,-7.5168,-7.5168,-7.5168,-7.5168,-7.5168,-7.5497,-7.6036,-7.6036,-7.6335,-7.6814,-7.6814,-7.6874,-7.6963,-7.6963,-7.7382,-7.7951,-7.7951,-7.831,-7.8789,-7.8789,-7.8789,-7.8789,-7.8789,-7.8789,-7.8789,-7.8789,-7.8789,-7.8789,-7.8789,-7.8789,-7.8789,-7.8789,-7.8789,-7.8789,-7.8789,-7.8789,-7.8789,-7.8789,-7.8789,-7.8789,-7.8789,-7.8789,-7.8746,-7.8503,-7.8538,-7.8759,-7.8936,0.0,-7.9957,-8.0044,-8.0493,-8.0687,-8.0294,-8.0294,-8.0294,-8.0294,-8.0294,-8.0352,-8.0439,-8.0904,-8.1281,-8.1484,-8.1484,-8.2094,-8.3313,-8.3836,-8.4097,-8.4097,-8.4097,-8.4097,-8.4097,-8.4097,-8.4097,-8.4097,-8.4097,-8.4097,-8.4097,-8.4097,-8.4155,-8.43,-8.4881,-8.5142,-8.5316,-8.5926,-8.6506,-8.7,-7.4869,-7.4869,-7.4869,-7.4869,-7.5347,-7.5736,-7.5736,-7.6185,-7.6544,-7.6544,-7.6544,-7.6544,-7.6544,-7.6544,-7.6544,-7.6544,-7.6544,-7.6066,-7.4958,-7.4869,-7.4869,-7.4869,-7.4869,-7.5138,-7.5736,-7.6245,-7.6544,-7.6544,-7.6544,-7.6544,-7.6544,-7.6544,-7.6544,-7.6544,-7.6544,-7.6574,-7.6694,-7.6694,-7.6724,-7.6814,-7.6814,-7.7173,-7.7652,-7.7652,-7.8071,-7.8639,-7.8639,-7.8699,-7.8789,-7.8789,-7.8789,-7.8789,-7.8789,-7.8789,-7.8789,-7.8789,-7.8789,-7.8789,-7.8789,-7.8789,-7.8789,-7.8789,-7.8789,-7.8789,-7.8789,-7.8789,-7.8789,-7.8789,-7.8789,-7.8789,-7.8789,-7.8789,-7.8968,-7.9494,-7.9277,-7.9501,-8.0629,0.0,-8.0103,-8.0688,-8.0551,-8.0373,-8.0294,-8.0294,-8.0294,-8.0294,-8.0294,-8.0527,-8.102,-8.1136,-8.1717,-8.2849,-8.2878,-8.3226,-8.3952,-8.4039,-8.4097,-8.4097,-8.4097,-8.4097,-8.4097,-8.4097,-8.4097,-8.4097,-8.4097,-8.4097,-8.4097,-8.4097,-8.4416,-8.4939,-8.5055,-8.5403,-8.5955,-8.6594,-8.6884,-8.7058,-7.5437,-7.5707,-7.5916,-7.5916,-7.6185,-7.6395,-7.6395,-7.6634,-7.6814,-7.6814,-7.6814,-7.6814,-7.6814,-7.6814,-7.6814,-7.6814,-7.6814,-7.6574,-7.5976,-7.5916,-7.5916,-7.5916,-7.5916,-7.6066,-7.6395,-7.6694,-7.6814,-7.6814,-7.6814,-7.6814,-7.6814,-7.6814,-7.6814,-7.6814,-7.6814,-7.7023,-7.7352,-7.7352,-7.7562,-7.7891,-7.7891,-7.8071,-7.834,-7.834,-7.8519,-7.8789,-7.8789,-7.8789,-7.8789,-7.8789,-7.8789,-7.8789,-7.8789,-7.8789,-7.8789,-7.8789,-7.8789,-7.8789,-7.8789,-7.8789,-7.8789,-7.8789,-7.8789,-7.8789,-7.8789,-7.8789,-7.8789,-7.8789,-7.8789,-7.8789,-7.8789,-7.9088,-7.9447,-7.9776,-8.0109,-8.0541,-8.1391,-8.1294,-8.1161,-8.1485,-8.136,-8.1078,-8.0687,-8.0609,-8.053,-8.0294,-8.0585,-8.0904,-8.1194,-8.1891,-8.2559,-8.3168,-8.3517,-8.3807,-8.4097,-8.4097,-8.4097,-8.4097,-8.4097,-8.4097,-8.4097,-8.4097,-8.4097,-8.4097,-8.4097,-8.43,-8.462,-8.462,-8.4997,-8.5636,-8.5984,-8.6274,-8.6623,-8.7261,-8.7493,-8.7523,-7.6125,-7.6514,-7.6814,-7.6814,-7.6963,-7.7053,-7.7053,-7.7173,-7.7293,-7.7293,-7.7293,-7.7293,-7.7293,-7.7293,-7.7293,-7.7293,-7.7293,-7.7293,-7.7293,-7.7293,-7.7143,-7.6844,-7.6963,-7.7053,-7.7053,-7.7203,-7.7293,-7.7293,-7.7293,-7.7293,-7.7293,-7.7293,-7.7293,-7.7293,-7.7293,-7.7562,-7.8041,-7.8041,-7.834,-7.8789,-7.8789,-7.8789,-7.8789,-7.8789,-7.8789,-7.8789,-7.8789,-7.8789,-7.8789,-7.8789,-7.8789,-7.8789,-7.8789,-7.8789,-7.8789,-7.8789,-7.8789,-7.8789,-7.8789,-7.8789,-7.8789,-7.8789,-7.8789,-7.8789,-7.8789,-7.8789,-7.8789,-7.8789,-7.8789,-7.8849,-7.8998,-7.9447,-7.9926,-8.0225,0.0,-8.154,-8.1991,-8.2061,-8.2053,-8.2053,-8.1976,-8.1669,-8.1,-8.0922,-8.0766,-8.0294,-8.0846,-8.1252,-8.1426,-8.2559,-8.3255,-8.34,-8.3865,-8.4097,-8.4097,-8.4097,-8.4097,-8.4097,-8.4097,-8.4097,-8.4097,-8.4097,-8.4097,-8.4097,-8.4242,-8.462,-8.5084,-8.5258,-8.5694,-8.6303,-8.6797,-8.7087,-8.7261,-8.7755,-8.7929,-8.7929,-7.6754,-7.6784,-7.6814,-7.6814,-7.7322,-7.7741,-7.7741,-7.825,-7.8639,-7.8639,-7.8639,-7.8639,-7.8639,-7.8639,-7.8639,-7.8639,-7.8639,-7.8639,-7.8639,-7.8639,-7.81,-7.6874,-7.7412,-7.7741,-7.7741,-7.834,-7.8639,-7.8639,-7.8639,-7.8639,-7.8639,-7.8639,-7.8639,-7.8639,-7.8639,-7.8669,-7.8729,-7.8729,-7.8729,-7.8789,-7.8789,-7.8789,-7.8789,-7.8789,-7.8789,-7.8789,-7.8789,-7.8789,-7.8789,-7.8789,-7.8789,-7.8789,-7.8789,-7.8789,-7.8789,-7.8789,-7.8789,-7.8789,-7.8789,-7.8789,-7.8789,-7.8789,-7.8789,-7.8789,-7.8789,-7.8789,-7.8789,-7.8789,-7.8789,-7.8998,-7.9627,-7.9776,-8.0225,-8.1452,0.0,0.0,-8.2589,-8.2329,-8.2053,-8.2053,-8.1746,-8.136,-8.0922,-8.0922,-8.0766,-8.0294,-8.0846,-8.1455,-8.2094,-8.2791,-8.3458,-8.401,-8.4068,-8.4097,-8.4097,-8.4097,-8.4097,-8.4097,-8.4097,-8.4097,-8.4097,-8.4097,-8.4097,-8.4126,-8.4736,-8.5026,-8.5142,-8.5723,-8.6332,-8.6913,-8.6971,-8.7348,-8.7871,-8.79,-8.7929,-8.7929,-7.7442,-7.7771,-7.8041,-7.8041,-7.825,-7.843,-7.843,-7.8639,-7.8789,-7.8789,-7.8789,-7.8789,-7.8789,-7.8789,-7.8789,-7.8789,-7.8789,-7.8789,-7.8789,-7.8789,-7.8579,-7.8071,-7.828,-7.843,-7.843,-7.8669,-7.8789,-7.8789,-7.8789,-7.8789,-7.8789,-7.8789,-7.8789,-7.8789,-7.8789,-7.8789,-7.8789,-7.8789,-7.8789,-7.8789,-7.8789,-7.8789,-7.8789,-7.8789,-7.8789,-7.8789,-7.8789,-7.8789,-7.8789,-7.8789,-7.8789,-7.8789,-7.8789,-7.8789,-7.8789,-7.8789,-7.8789,-7.8789,-7.8789,-7.8789,-7.8789,-7.8789,-7.8789,-7.8789,-7.8789,-7.8789,-7.8789,-7.8789,-7.9118,-7.9507,-7.9776,-8.0494,-8.1212,-8.1691,0.0,-8.2469,-8.2709,-8.2693,-8.2511,-8.2511,-8.2388,-8.213,-8.1669,-8.1669,-8.1614,-8.1635,-8.2013,-8.2496,-8.3138,-8.3564,-8.3865,-8.4068,-8.4097,-8.4097,-8.4097,-8.4097,-8.4097,-8.4097,-8.4097,-8.4097,-8.4097,-8.4097,-8.4097,-8.4126,-8.4794,-8.5316,-8.5723,-8.6361,-8.7,-8.7581,-8.7581,-8.7726,-8.7929,-8.7929,-8.7929,-8.7929,-7.81,-7.8489,-7.8789,-7.8789,-7.8789,-7.8789,-7.8789,-7.8789,-7.8789,-7.8789,-7.8789,-7.8789,-7.8789,-7.8789,-7.8789,-7.8789,-7.8789,-7.8789,-7.8789,-7.8789,-7.8789,-7.8789,-7.8789,-7.8789,-7.8789,-7.8789,-7.8789,-7.8789,-7.8789,-7.8789,-7.8789,-7.8789,-7.8789,-7.8789,-7.8789,-7.8789,-7.8789,-7.8789,-7.8789,-7.8789,-7.8789,-7.8789,-7.8789,-7.8789,-7.8789,-7.8789,-7.8789,-7.8789,-7.8789,-7.8789,-7.8789,-7.8789,-7.8789,-7.8789,-7.8789,-7.8789,-7.8789,-7.8789,-7.8789,-7.8789,-7.8789,-7.8789,-7.8789,-7.8789,-7.8789,-7.8789,-7.8849,-7.9058,-7.9477,-7.9956,-8.0345,-8.1183,-8.1841,-8.205,-8.2469,-8.2844,-8.2844,-8.2844,-8.2844,-8.2844,-8.2844,-8.2617,-8.213,-8.2338,-8.248,-8.2458,-8.2887,-8.3328,-8.389,-8.4029,-8.4097,-8.4097,-8.4097,-8.4097,-8.4097,-8.4097,-8.4097,-8.4097,-8.4097,-8.4097,-8.4097,-8.4097,-8.4184,-8.4445,-8.5084,-8.5752,-8.6361,-8.7,-8.7552,-8.7929,-8.7929,-8.7929,-8.7929,-8.7929,-8.7929,-8.7929,-7.8789,-7.8789,-7.8789,-7.8789,-7.8789,-7.8789,-7.8789,-7.8789,-7.8789,-7.8789,-7.8789,-7.8789,-7.8789,-7.8789,-7.8789,-7.8789,-7.8789,-7.8789,-7.8789,-7.8789,-7.8789,-7.8789,-7.8789,-7.8789,-7.8789,-7.8789,-7.8789,-7.8789,-7.8789,-7.8789,-7.8789,-7.8789,-7.8789,-7.8789,-7.8789,-7.8789,-7.8789,-7.8789,-7.8789,-7.8789,-7.8789,-7.8789,-7.8789,-7.8789,-7.8789,-7.8789,-7.8789,-7.8789,-7.8789,-7.8789,-7.8789,-7.8789,-7.8789,-7.8789,-7.8789,-7.8789,-7.8789,-7.8789,-7.8789,-7.8789,-7.8789,-7.8789,-7.8789,-7.8789,-7.8789,-7.8789,-7.8998,-7.9686,-7.9836,-8.0225,-8.1542,-8.1781,-8.1991,-8.2649,-8.2844,-8.2844,-8.2844,-8.2844,-8.2844,-8.2844,-8.2844,-8.2617,-8.213,-8.2724,-8.2955,-8.2565,-8.3298,-8.389,-8.4151,-8.4097,-8.4097,-8.4097,-8.4097,-8.4097,-8.4097,-8.4097,-8.4097,-8.4097,-8.4097,-8.4097,-8.4097,-8.4097,-8.4445,-8.5113,-8.5752,-8.639,-8.7029,-8.7668,-8.7929,-8.7929,-8.7929,-8.7929,-8.7929,-8.7929,-8.7929,-8.7929,-7.8789,-7.8789,-7.8789,-7.8789,-7.8789,-7.8789,-7.8789,-7.8789,-7.8789,-7.8789,-7.8789,-7.8789,-7.8789,-7.8789,-7.8789,-7.8789,-7.8789,-7.8789,-7.8789,-7.8789,-7.8789,-7.8789,-7.8789,-7.8789,-7.8789,-7.8789,-7.8789,-7.8789,-7.8789,-7.8789,-7.8789,-7.8789,-7.8789,-7.8789,-7.8789,-7.8789,-7.8789,-7.8789,-7.8789,-7.8789,-7.8789,-7.8789,-7.8789,-7.8789,-7.8789,-7.8789,-7.8789,-7.8789,-7.8789,-7.8789,-7.8789,-7.8789,-7.8789,-7.8789,-7.8789,-7.8789,-7.8789,-7.8789,-7.8789,-7.8789,-7.8789,-7.8789,-7.8789,-7.8908,-7.9387,-7.9507,-7.9686,-8.0375,-8.0883,-8.1332,-8.1721,-8.217,-8.2529,-8.2814,-8.2844,-8.2844,-8.2844,-8.2844,-8.2844,-8.2844,-8.2844,-8.2769,-8.2587,-8.3138,-8.3705,-8.3997,-8.4852,-8.5148,-8.4591,-8.462,-8.4427,-8.4097,-8.4097,-8.4097,-8.4097,-8.4097,-8.4097,-8.4097,-8.4097,-8.4097,-8.4097,-8.4591,-8.491,-8.5142,-8.6245,-8.6797,-8.7029,-8.7668,-8.7929,-8.7929,-8.7929,-8.7929,-8.7929,-8.7929,-8.7929,-8.7929,-7.8789,-7.8789,-7.8789,-7.8789,-7.8789,-7.8789,-7.8789,-7.8789,-7.8789,-7.8789,-7.8789,-7.8789,-7.8789,-7.8789,-7.8789,-7.8789,-7.8789,-7.8789,-7.8789,-7.8789,-7.8789,-7.8789,-7.8789,-7.8789,-7.8789,-7.8789,-7.8789,-7.8789,-7.8789,-7.8789,-7.8789,-7.8789,-7.8789,-7.8789,-7.8789,-7.8789,-7.8789,-7.8789,-7.8789,-7.8789,-7.8789,-7.8789,-7.8789,-7.8789,-7.8789,-7.8789,-7.8789,-7.8789,-7.8789,-7.8789,-7.8789,-7.8789,-7.8789,-7.8789,-7.8789,-7.8789,-7.8789,-7.8789,-7.8789,-7.8789,-7.8849,-7.9118,-7.9208,-7.9297,-7.9716,-8.0016,-8.0405,-8.1063,-8.1512,-8.1871,-8.211,-8.2499,-8.2844,-8.2844,-8.2844,-8.2844,-8.2844,-8.2844,-8.2844,-8.2844,-8.2844,-8.2858,-8.3128,-8.3726,-8.4427,-8.5197,-8.5794,-8.5759,-8.4866,-8.4784,-8.462,-8.4097,-8.4097,-8.4097,-8.4097,-8.4097,-8.4097,-8.4097,-8.4097,-8.4097,-8.4097,-8.4765,-8.5229,-8.552,-8.6536,-8.7116,-8.7377,-8.7784,-8.7929,-8.7929,-8.7929,-8.7929,-8.7929,-8.7929,-8.7929,-8.7929,-7.8789,-7.8789,-7.8789,-7.8789,-7.8789,-7.8789,-7.8789,-7.8789,-7.8789,-7.8789,-7.8789,-7.8789,-7.8789,-7.8789,-7.8789,-7.8789,-7.8789,-7.8789,-7.8789,-7.8789,-7.8789,-7.8789,-7.8789,-7.8789,-7.8789,-7.8789,-7.8789,-7.8789,-7.8789,-7.8789,-7.8789,-7.8789,-7.8789,-7.8789,-7.8789,-7.8789,-7.8789,-7.8789,-7.8789,-7.8789,-7.8789,-7.8789,-7.8789,-7.8789,-7.8789,-7.8789,-7.8789,-7.8789,-7.8789,-7.8789,-7.8789,-7.8789,-7.8789,-7.8789,-7.8789,-7.8789,-7.8789,-7.8789,-7.8878,-7.8878,-7.9058,-7.9746,-7.9956,-7.9986,-7.9986,-8.0464,-8.1063,-8.1721,-8.1871,-8.205,-8.2649,-8.2844,-8.2844,-8.2844,-8.2844,-8.2844,-8.2844,-8.2844,-8.2844,-8.2844,-8.2844,-8.3008,-8.3666,-8.4384,-8.5186,-8.6071,-8.616,-8.5759,-8.4947,-8.4866,-8.462,-8.418,-8.4097,-8.4097,-8.4097,-8.4097,-8.4097,-8.4097,-8.4097,-8.4126,-8.4184,-8.4881,-8.552,-8.6158,-8.6797,-8.7377,-8.7929,-8.7929,-8.7929,-8.7929,-8.7929,-8.7929,-8.7929,-8.7929,-8.7929,-8.7929,-7.8789,-7.8789,-7.8789,-7.8789,-7.8789,-7.8789,-7.8789,-7.8789,-7.8789,-7.8789,-7.8789,-7.8789,-7.8789,-7.8789,-7.8789,-7.8789,-7.8789,-7.8789,-7.8789,-7.8789,-7.8789,-7.8789,-7.8789,-7.8789,-7.8789,-7.8789,-7.8789,-7.8789,-7.8789,-7.8789,-7.8789,-7.8789,-7.8789,-7.8789,-7.8789,-7.8789,-7.8789,-7.8789,-7.8789,-7.8789,-7.8789,-7.8789,-7.8789,-7.8789,-7.8789,-7.8789,-7.8789,-7.8789,-7.8789,-7.8789,-7.8789,-7.8789,-7.8789,-7.8789,-7.8789,-7.8789,-7.8789,-7.8908,-7.9447,-7.9597,-7.9746,-8.0434,-8.0973,-8.1362,-8.1362,-8.1452,-8.1751,-8.2409,-8.2559,-8.2589,-8.2739,-8.2844,-8.2844,-8.2844,-8.2844,-8.2844,-8.2844,-8.2844,-8.2844,-8.2844,-8.2844,-8.3008,-8.3666,-8.4803,-8.5821,-8.6549,-8.6609,-8.637,-8.5839,-8.5487,-8.5081,-8.4702,-8.4262,-8.4097,-8.4097,-8.4097,-8.4097,-8.4097,-8.4097,-8.4358,-8.4881,-8.552,-8.6187,-8.6826,-8.7435,-8.7813,-8.7929,-8.7929,-8.7929,-8.7929,-8.7929,-8.7929,-8.7929,-8.7929,-8.7929,-8.7929,-7.8789,-7.8789,-7.8789,-7.8789,-7.8789,-7.8789,-7.8789,-7.8789,-7.8789,-7.8789,-7.8789,-7.8789,-7.8789,-7.8789,-7.8789,-7.8789,-7.8789,-7.8789,-7.8789,-7.8789,-7.8789,-7.8789,-7.8789,-7.8789,-7.8789,-7.8789,-7.8789,-7.8789,-7.8789,-7.8789,-7.8789,-7.8789,-7.8789,-7.8789,-7.8789,-7.8789,-7.8789,-7.8789,-7.8789,-7.8789,-7.8789,-7.8789,-7.8789,-7.8789,-7.8789,-7.8789,-7.8789,-7.8789,-7.8789,-7.8789,-7.8789,-7.8789,-7.8789,-7.8789,-7.8849,-7.9178,-7.9297,-7.9417,-8.0105,-8.0285,-8.0434,-8.1093,-8.1512,-8.1781,-8.1781,-8.202,-8.235,-8.2754,-8.2844,-8.2844,-8.2844,-8.2844,-8.2844,-8.2844,-8.2844,-8.2844,-8.2844,-8.2844,-8.2844,-8.2844,-8.3038,-8.3606,-8.4564,-8.5581,-8.6299,-8.6659,-8.6689,-8.653,-8.616,-8.589,-8.5568,-8.5081,-8.4673,-8.4427,-8.4427,-8.418,-8.4097,-8.4097,-8.4097,-8.4445,-8.5113,-8.5752,-8.639,-8.7,-8.7668,-8.7929,-8.7929,-8.7929,-8.7929,-8.7929,-8.7929,-8.7929,-8.7929,-8.7929,-8.7929,-8.7929,-7.8789,-7.8789,-7.8789,-7.8789,-7.8789,-7.8789,-7.8789,-7.8789,-7.8789,-7.8789,-7.8789,-7.8789,-7.8789,-7.8789,-7.8789,-7.8789,-7.8789,-7.8789,-7.8789,-7.8789,-7.8789,-7.8789,-7.8789,-7.8789,-7.8789,-7.8789,-7.8789,-7.8789,-7.8789,-7.8789,-7.8789,-7.8789,-7.8789,-7.8789,-7.8789,-7.8789,-7.8789,-7.8789,-7.8789,-7.8789,-7.8789,-7.8789,-7.8789,-7.8789,-7.8789,-7.8789,-7.8789,-7.8789,-7.8789,-7.8789,-7.8789,-7.8789,-7.8789,-7.8878,-7.9088,-7.9656,-7.9896,-8.0135,-8.0794,-8.0973,-8.1123,-8.1781,-8.1961,-8.1961,-8.1961,-8.238,-8.2844,-8.2844,-8.2844,-8.2844,-8.2844,-8.2844,-8.2844,-8.2844,-8.2844,-8.2844,-8.2844,-8.2844,-8.2798,-8.2918,-8.3606,-8.4504,-8.5581,-8.6299,-8.6689,-8.6689,-8.6689,-8.653,-8.624,-8.616,-8.592,-8.5568,-8.5081,-8.4866,-8.4784,-8.4427,-8.418,-8.4097,-8.4213,-8.462,-8.5258,-8.5897,-8.6536,-8.7174,-8.7697,-8.7929,-8.7929,-8.7929,-8.7929,-8.7929,-8.7929,-8.7929,-8.7929,-8.7929,-8.7929,-8.7929,-7.8789,-7.8789,-7.8789,-7.8789,-7.8789,-7.8789,-7.8789,-7.8789,-7.8789,-7.8789,-7.8789,-7.8789,-7.8789,-7.8789,-7.8789,-7.8789,-7.8789,-7.8789,-7.8789,-7.8789,-7.8789,-7.8789,-7.8789,-7.8789,-7.8789,-7.8789,-7.8789,-7.8789,-7.8789,-7.8789,-7.8789,-7.8789,-7.8789,-7.8789,-7.8789,-7.8789,-7.8789,-7.8789,-7.8789,-7.8789,-7.8789,-7.8789,-7.8789,-7.8789,-7.8789,-7.8789,-7.8789,-7.8789,-7.8789,-7.8789,-7.8789,-7.8789,-7.8789,-7.9208,-7.9686,-7.9806,-8.0225,-8.0823,-8.1482,-8.1631,-8.1811,-8.2469,-8.2619,-8.2619,-8.2619,-8.2709,-8.2844,-8.2844,-8.2844,-8.2844,-8.2844,-8.2844,-8.2844,-8.2844,-8.2844,-8.2844,-8.2844,-8.2844,-8.2978,-8.3547,-8.4684,-8.5492,-8.5671,-8.6299,-8.6689,-8.6689,-8.6689,-8.6689,-8.6609,-8.632,-8.608,-8.6,-8.5568,-8.5162,-8.4784,-8.4702,-8.4509,-8.4097,-8.4678,-8.5287,-8.5926,-8.6565,-8.7203,-8.7813,-8.7871,-8.7929,-8.7929,-8.7929,-8.7929,-8.7929,-8.7929,-8.7929,-8.7929,-8.7929,-8.7929,-8.7929,-7.8789,-7.8789,-7.8789,-7.8789,-7.8789,-7.8789,-7.8789,-7.8789,-7.8789,-7.8789,-7.8789,-7.8789,-7.8789,-7.8789,-7.8789,-7.8789,-7.8789,-7.8789,-7.8789,-7.8789,-7.8789,-7.8789,-7.8789,-7.8789,-7.8789,-7.8789,-7.8789,-7.8789,-7.8789,-7.8789,-7.8789,-7.8789,-7.8789,-7.8789,-7.8789,-7.8789,-7.8789,-7.8789,-7.8789,-7.8789,-7.8789,-7.8789,-7.8789,-7.8789,-7.8789,-7.8849,-7.9238,-7.9357,-7.9417,-7.9776,-7.9926,-7.9926,-7.9926,-8.0135,-8.0434,-8.0823,-8.1123,-8.1482,-8.214,-8.232,-8.2409,-8.2754,-8.2844,-8.2844,-8.2844,-8.2844,-8.2844,-8.2844,-8.2844,-8.2844,-8.2844,-8.2844,-8.2844,-8.2844,-8.2844,-8.2844,-8.2844,-8.2844,-8.3128,-8.4145,-8.5103,-8.5851,-8.621,-8.6509,-8.6689,-8.6689,-8.6689,-8.6689,-8.6689,-8.653,-8.645,-8.645,-8.605,-8.5729,-8.5516,-8.5029,-8.4702,-8.4538,-8.5226,-8.5752,-8.6042,-8.6681,-8.7319,-8.7929,-8.7929,-8.7929,-8.7929,-8.7929,-8.7929,-8.7929,-8.7929,-8.7929,-8.7929,-8.7929,-8.7929,-8.7929]},{"header":{"parameterUnit":"m.s-1","parameterCategory":1,"la1":30.6,"la2":28.766,"lo1":-90.7593,"lo2":-88.6598,"dy":0.0162,"dx":0.0183,"nx":116,"ny":114,"refTime":"2024-03-22T06:00:00:Z","depth":0,"parameterNumber":3,"parameterNumberName":"V-component_of_WINDS"},"data":[0.0,0.0,0.0,0.0,0.0,0.0,0.0,0.0,0.0,0.0,0.0,0.0,0.0,0.0,0.0,0.0,0.0,0.0,0.0,0.0,0.0,0.0,0.0,0.0,0.0,0.0,0.0,0.0,0.0,0.0,0.0,0.0,0.0,0.0,0.0,0.0,0.0,0.0,0.0,0.0,0.0,0.0,0.0,0.0,0.0,0.0,0.0,0.0,0.0,0.0,0.0,0.0,0.0,0.0,0.0,0.0,0.0,0.0,0.0,0.0,0.0,0.0,0.0,0.0,0.0,0.0,0.0,0.0,0.0,0.0,0.0,0.0,0.0,0.0,0.0,0.0,0.0,0.0,0.0,0.0,0.0,0.0,0.0,0.0,0.0,0.0,0.0,0.0,0.0,0.0,0.0,0.0,0.0,0.0,0.0,0.0,0.0,0.0,0.0,0.0,0.0,0.0,0.0,0.0,0.0,0.0,0.0,0.0,0.0,0.0,0.0,0.0,0.0,0.0,0.0,0.0,0.0,0.0,0.0,0.0,0.0,0.0,0.0,0.0,0.0,0.0,0.0,0.0,0.0,0.0,0.0,0.0,0.0,0.0,0.0,0.0,0.0,0.0,0.0,0.0,0.0,0.0,0.0,0.0,0.0,0.0,0.0,0.0,0.0,0.0,0.0,0.0,0.0,0.0,0.0,0.0,0.0,0.0,0.0,0.0,0.0,0.0,0.0,0.0,0.0,0.0,0.0,0.0,0.0,0.0,0.0,0.0,0.0,0.0,0.0,0.0,0.0,0.0,0.0,0.0,0.0,0.0,0.0,0.0,0.0,0.0,0.0,0.0,0.0,0.0,0.0,0.0,0.0,0.0,0.0,0.0,0.0,0.0,0.0,0.0,0.0,0.0,0.0,0.0,0.0,0.0,0.0,0.0,0.0,0.0,0.0,0.0,0.0,0.0,0.0,0.0,0.0,0.0,0.0,0.0,0.0,0.0,0.0,0.0,0.0,0.0,0.0,0.0,0.0,0.0,0.0,0.0,0.0,0.0,0.0,0.0,0.0,0.0,0.0,0.0,0.0,0.0,0.0,0.0,0.0,0.0,0.0,0.0,0.0,0.0,0.0,0.0,0.0,0.0,0.0,0.0,0.0,0.0,0.0,0.0,0.0,0.0,0.0,0.0,0.0,0.0,0.0,0.0,0.0,0.0,0.0,0.0,0.0,0.0,0.0,0.0,0.0,0.0,0.0,0.0,0.0,0.0,0.0,0.0,0.0,0.0,0.0,0.0,0.0,0.0,0.0,0.0,0.0,0.0,0.0,0.0,0.0,0.0,0.0,0.0,0.0,0.0,0.0,0.0,0.0,0.0,0.0,0.0,0.0,0.0,0.0,0.0,0.0,0.0,0.0,0.0,0.0,0.0,0.0,0.0,0.0,0.0,0.0,0.0,0.0,0.0,0.0,0.0,0.0,0.0,0.0,0.0,0.0,0.0,0.0,0.0,0.0,0.0,0.0,0.0,0.0,0.0,0.0,0.0,0.0,0.0,0.0,0.0,0.0,0.0,0.0,0.0,0.0,0.0,0.0,0.0,0.0,0.0,0.0,0.0,0.0,0.0,0.0,0.0,0.0,0.0,0.0,0.0,0.0,0.0,0.0,0.0,0.0,0.0,0.0,0.0,0.0,0.0,0.0,0.0,0.0,0.0,0.0,0.0,0.0,0.0,0.0,0.0,0.0,0.0,0.0,0.0,0.0,0.0,0.0,0.0,0.0,0.0,0.0,0.0,0.0,0.0,0.0,0.0,0.0,0.0,0.0,0.0,0.0,0.0,0.0,0.0,0.0,0.0,0.0,0.0,0.0,0.0,0.0,0.0,0.0,0.0,0.0,0.0,0.0,0.0,0.0,0.0,0.0,0.0,0.0,0.0,0.0,0.0,0.0,0.0,0.0,0.0,0.0,0.0,0.0,0.0,0.0,0.0,0.0,0.0,0.0,0.0,0.0,0.0,0.0,0.0,0.0,0.0,0.0,0.0,0.0,0.0,0.0,0.0,0.0,0.0,0.0,0.0,0.0,0.0,0.0,0.0,0.0,0.0,0.0,0.0,0.0,0.0,0.0,0.0,0.0,0.0,0.0,0.0,0.0,0.0,0.0,0.0,0.0,0.0,0.0,0.0,0.0,0.0,0.0,0.0,0.0,0.0,0.0,0.0,0.0,0.0,0.0,0.0,0.0,0.0,0.0,0.0,0.0,0.0,0.0,0.0,0.0,0.0,0.0,0.0,0.0,0.0,0.0,0.0,0.0,0.0,0.0,0.0,0.0,0.0,0.0,0.0,0.0,0.0,0.0,0.0,0.0,0.0,0.0,0.0,0.0,0.0,0.0,0.0,0.0,0.0,0.0,0.0,0.0,0.0,0.0,0.0,0.0,0.0,0.0,0.0,0.0,0.0,0.0,0.0,0.0,0.0,0.0,0.0,0.0,0.0,0.0,0.0,0.0,0.0,0.0,0.0,0.0,0.0,0.0,0.0,0.0,0.0,0.0,0.0,0.0,0.0,0.0,0.0,0.0,0.0,0.0,0.0,0.0,0.0,0.0,0.0,0.0,0.0,0.0,0.0,0.0,0.0,0.0,0.0,0.0,0.0,0.0,0.0,0.0,0.0,0.0,0.0,0.0,0.0,0.0,0.0,0.0,0.0,0.0,0.0,0.0,0.0,0.0,0.0,0.0,0.0,0.0,0.0,0.0,0.0,0.0,0.0,0.0,0.0,0.0,0.0,0.0,0.0,0.0,0.0,0.0,0.0,0.0,0.0,0.0,0.0,0.0,0.0,0.0,0.0,0.0,0.0,0.0,0.0,0.0,0.0,0.0,0.0,0.0,0.0,0.0,0.0,0.0,0.0,0.0,0.0,0.0,0.0,0.0,0.0,0.0,0.0,0.0,0.0,0.0,0.0,0.0,0.0,0.0,0.0,0.0,0.0,0.0,0.0,0.0,0.0,0.0,0.0,0.0,0.0,0.0,0.0,0.0,0.0,0.0,0.0,0.0,0.0,0.0,0.0,0.0,0.0,0.0,0.0,0.0,0.0,0.0,0.0,0.0,0.0,0.0,0.0,0.0,0.0,0.0,0.0,0.0,0.0,0.0,0.0,0.0,0.0,0.0,0.0,0.0,0.0,0.0,0.0,0.0,0.0,0.0,0.0,0.0,0.0,0.0,0.0,0.0,0.0,0.0,0.0,0.0,0.0,0.0,0.0,0.0,0.0,0.0,0.0,0.0,0.0,0.0,0.0,0.0,0.0,0.0,0.0,0.0,0.0,0.0,0.0,0.0,0.0,0.0,0.0,0.0,0.0,0.0,0.0,0.0,0.0,0.0,0.0,0.0,0.0,0.0,0.0,0.0,0.0,0.0,0.0,0.0,0.0,0.0,0.0,0.0,0.0,0.0,0.0,0.0,0.0,0.0,0.0,0.0,0.0,0.0,0.0,0.0,0.0,0.0,0.0,0.0,0.0,0.0,0.0,0.0,0.0,0.0,0.0,0.0,0.0,0.0,0.0,0.0,0.0,0.0,0.0,0.0,0.0,0.0,0.0,0.0,0.0,0.0,0.0,0.0,0.0,0.0,0.0,0.0,0.0,0.0,0.0,0.0,0.0,0.0,0.0,0.0,0.0,0.0,0.0,0.0,0.0,0.0,0.0,0.0,0.0,0.0,0.0,0.0,0.0,0.0,0.0,0.0,0.0,0.0,0.0,0.0,0.0,0.0,0.0,0.0,0.0,0.0,0.0,0.0,0.0,0.0,0.0,0.0,0.0,0.0,0.0,0.0,0.0,0.0,0.0,0.0,0.0,0.0,0.0,0.0,0.0,0.0,0.0,0.0,0.0,0.0,0.0,0.0,0.0,0.0,0.0,0.0,0.0,0.0,0.0,0.0,0.0,0.0,0.0,0.0,0.0,0.0,0.0,0.0,0.0,0.0,0.0,0.0,0.0,0.0,0.0,0.0,0.0,0.0,0.0,0.0,0.0,0.0,0.0,0.0,0.0,0.0,0.0,0.0,0.0,0.0,0.0,0.0,0.0,0.0,0.0,0.0,0.0,0.0,0.0,0.0,0.0,0.0,0.0,0.0,0.0,0.0,0.0,0.0,0.0,0.0,0.0,0.0,0.0,0.0,0.0,0.0,0.0,0.0,0.0,0.0,0.0,0.0,0.0,0.0,0.0,0.0,0.0,0.0,0.0,0.0,0.0,0.0,0.0,0.0,0.0,0.0,0.0,0.0,0.0,0.0,0.0,0.0,0.0,0.0,0.0,0.0,0.0,0.0,0.0,0.0,0.0,0.0,0.0,0.0,0.0,0.0,0.0,0.0,0.0,0.0,0.0,0.0,0.0,0.0,0.0,0.0,0.0,0.0,0.0,0.0,0.0,0.0,0.0,0.0,0.0,0.0,0.0,0.0,0.0,0.0,0.0,0.0,0.0,0.0,0.0,0.0,0.0,0.0,0.0,0.0,0.0,0.0,0.0,0.0,0.0,0.0,0.0,0.0,0.0,0.0,0.0,0.0,0.0,0.0,0.0,0.0,0.0,0.0,0.0,0.0,0.0,0.0,0.0,0.0,0.0,0.0,0.0,0.0,0.0,0.0,0.0,0.0,0.0,0.0,0.0,0.0,0.0,0.0,0.0,0.0,0.0,0.0,0.0,0.0,0.0,0.0,0.0,0.0,0.0,0.0,0.0,0.0,0.0,0.0,0.0,0.0,0.0,0.0,0.0,0.0,0.0,0.0,0.0,0.0,0.0,0.0,0.0,0.0,0.0,0.0,0.0,0.0,0.0,0.0,0.0,0.0,0.0,0.0,0.0,0.0,0.0,0.0,0.0,0.0,0.0,0.0,0.0,0.0,0.0,0.0,0.0,0.0,0.0,0.0,0.0,0.0,0.0,0.0,0.0,0.0,0.0,0.0,0.0,0.0,0.0,0.0,0.0,0.0,0.0,0.0,0.0,0.0,0.0,0.0,0.0,0.0,0.0,0.0,0.0,0.0,0.0,0.0,0.0,0.0,0.0,0.0,0.0,0.0,0.0,0.0,0.0,0.0,0.0,0.0,0.0,0.0,0.0,0.0,0.0,0.0,0.0,0.0,0.0,0.0,0.0,0.0,0.0,0.0,0.0,0.0,0.0,0.0,0.0,0.0,0.0,0.0,0.0,0.0,0.0,0.0,0.0,0.0,0.0,0.0,0.0,0.0,0.0,0.0,0.0,0.0,0.0,0.0,0.0,0.0,0.0,0.0,0.0,0.0,0.0,0.0,0.0,0.0,0.0,0.0,0.0,0.0,0.0,0.0,0.0,0.0,0.0,0.0,0.0,0.0,0.0,0.0,0.0,0.0,0.0,0.0,0.0,0.0,0.0,0.0,0.0,0.0,0.0,0.0,0.0,0.0,0.0,0.0,0.0,0.0,0.0,0.0,0.0,0.0,0.0,0.0,0.0,0.0,0.0,0.0,0.0,0.0,0.0,0.0,0.0,0.0,0.0,0.0,0.0,0.0,0.0,0.0,0.0,0.0,0.0,0.0,0.0,0.0,0.0,0.0,0.0,0.0,0.0,0.0,0.0,0.0,0.0,0.0,0.0,0.0,0.0,0.0,0.0,0.0,0.0,0.0,0.0,0.0,0.0,0.0,0.0,0.0,0.0,0.0,0.0,0.0,0.0,0.0,0.0,0.0,0.0,0.0,0.0,0.0,0.0,0.0,0.0,0.0,0.0,0.0,0.0,0.0,0.0,0.0,0.0,0.0,0.0,0.0,0.0,0.0,0.0,0.0,0.0,0.0,0.0,0.0,0.0,0.0,0.0,0.0,0.0,0.0,0.0,0.0,0.0,0.0,0.0,0.0,0.0,0.0,0.0,0.0,0.0,0.0,0.0,0.0,0.0,0.0,0.0,0.0,0.0,0.0,0.0,0.0,0.0,0.0,0.0,0.0,0.0,0.0,0.0,0.0,0.0,0.0,0.0,0.0,0.0,0.0,0.0,0.0,0.0,0.0,0.0,0.0,0.0,0.0,0.0,0.0,0.0,0.0,0.0,0.0,0.0,0.0,0.0,0.0,0.0,0.0,0.0,0.0,0.0,8.0486,8.0527,0.0,0.0,0.0,0.0,0.0,0.0,0.0,0.0,0.0,0.0,0.0,0.0,0.0,0.0,0.0,0.0,0.0,0.0,0.0,0.0,0.0,0.0,0.0,0.0,0.0,0.0,6.2822,6.2822,6.2822,6.2822,0.0,0.0,0.0,0.0,6.4466,6.5079,6.5371,6.5371,6.6132,6.6936,6.768,6.768,6.7245,6.6523,0.0,0.0,0.0,0.0,0.0,0.0,0.0,0.0,0.0,0.0,0.0,0.0,0.0,0.0,0.0,0.0,0.0,0.0,0.0,0.0,0.0,0.0,0.0,0.0,0.0,0.0,0.0,0.0,0.0,0.0,0.0,0.0,0.0,0.0,0.0,0.0,0.0,0.0,0.0,0.0,0.0,0.0,0.0,0.0,0.0,0.0,0.0,0.0,0.0,0.0,0.0,0.0,0.0,0.0,0.0,0.0,0.0,0.0,0.0,0.0,0.0,0.0,0.0,0.0,0.0,0.0,0.0,0.0,0.0,0.0,8.1347,8.0932,0.0,0.0,0.0,0.0,0.0,0.0,0.0,0.0,0.0,0.0,0.0,0.0,0.0,0.0,0.0,0.0,0.0,0.0,0.0,0.0,0.0,0.0,0.0,6.2822,6.2822,6.2822,6.2822,6.2822,6.2822,6.2822,6.2822,6.2904,6.3635,6.4145,6.4225,6.5,6.5529,6.5845,6.7399,6.9018,7.0549,7.0549,6.9839,6.8621,6.8317,0.0,0.0,0.0,0.0,0.0,0.0,0.0,0.0,0.0,0.0,0.0,0.0,0.0,0.0,0.0,0.0,0.0,0.0,0.0,0.0,0.0,0.0,0.0,0.0,0.0,0.0,0.0,0.0,0.0,0.0,0.0,0.0,0.0,0.0,0.0,0.0,0.0,0.0,0.0,0.0,0.0,0.0,0.0,0.0,0.0,0.0,0.0,0.0,0.0,0.0,0.0,0.0,0.0,0.0,0.0,0.0,0.0,0.0,0.0,0.0,0.0,0.0,0.0,8.3833,8.4059,8.5043,8.3994,8.4027,8.498,8.2783,8.2007,8.2343,8.3372,0.0,0.0,0.0,0.0,0.0,0.0,0.0,0.0,0.0,0.0,0.0,0.0,0.0,0.0,0.0,0.0,0.0,0.0,0.0,6.2822,6.2822,6.2822,6.2822,6.2822,6.2822,6.2822,6.2822,6.2822,6.2985,6.3392,6.3878,6.4306,6.4707,6.5159,6.6054,6.7503,6.9018,7.0651,7.22,7.22,7.2057,7.1841,7.043,6.9663,6.9514,0.0,0.0,0.0,0.0,0.0,0.0,0.0,0.0,0.0,0.0,0.0,0.0,0.0,0.0,0.0,0.0,0.0,0.0,0.0,0.0,0.0,0.0,0.0,0.0,0.0,0.0,0.0,0.0,0.0,0.0,0.0,0.0,0.0,0.0,0.0,0.0,0.0,0.0,0.0,0.0,0.0,7.983,7.99,0.0,0.0,0.0,0.0,0.0,0.0,0.0,0.0,0.0,0.0,0.0,0.0,0.0,8.4696,8.4696,8.4917,8.5011,8.5011,8.4917,8.4917,8.5106,8.4917,8.4917,8.5106,8.4728,0.0,8.5567,8.6339,0.0,0.0,0.0,0.0,0.0,0.0,0.0,0.0,0.0,0.0,0.0,0.0,0.0,0.0,0.0,0.0,0.0,0.0,0.0,0.0,0.0,6.2822,6.2822,6.2822,6.2822,6.2822,6.2822,6.2822,6.2904,6.3067,6.3554,6.3958,6.4386,6.484,6.6419,6.9093,7.0651,7.2272,7.3842,7.3842,7.3842,7.3842,7.3082,7.1812,7.0107,7.0107,0.0,0.0,0.0,0.0,0.0,0.0,0.0,0.0,0.0,0.0,0.0,0.0,0.0,0.0,0.0,0.0,0.0,0.0,0.0,0.0,0.0,0.0,0.0,0.0,0.0,0.0,0.0,0.0,0.0,0.0,0.0,0.0,0.0,0.0,0.0,0.0,0.0,0.0,0.0,7.983,8.0041,8.0492,8.0182,8.0041,0.0,0.0,0.0,0.0,0.0,0.0,0.0,0.0,0.0,8.5106,8.585,8.6216,8.6216,8.6971,8.7327,8.7327,8.6579,8.6579,8.7327,8.6579,8.6672,8.7327,8.7327,8.7526,8.774,8.6871,8.663,8.6815,0.0,0.0,0.0,0.0,8.9316,8.9414,0.0,0.0,0.0,0.0,0.0,0.0,0.0,0.0,0.0,0.0,0.0,0.0,6.2822,6.2822,6.2822,6.2822,6.2822,6.2822,6.2822,6.2822,6.2822,6.2822,6.323,6.3716,6.4039,6.5424,6.7449,7.0107,7.2128,7.3772,7.4869,7.4869,7.4869,7.4869,7.4869,7.3603,7.1307,7.1307,7.1307,7.1307,0.0,0.0,0.0,0.0,0.0,0.0,0.0,0.0,0.0,0.0,0.0,0.0,0.0,0.0,0.0,0.0,0.0,0.0,0.0,0.0,0.0,0.0,0.0,0.0,0.0,0.0,0.0,0.0,0.0,0.0,0.0,0.0,0.0,0.0,0.0,0.0,0.0,8.0111,8.0422,8.101,8.0562,8.0601,0.0,0.0,0.0,0.0,0.0,0.0,8.5542,8.5603,8.5788,8.6095,8.709,8.7595,8.7595,8.8586,8.9072,8.9072,8.8094,8.8152,8.9072,8.8094,8.8152,8.9072,8.9072,8.9072,8.9027,8.7672,8.7382,8.7786,8.8884,8.954,8.9935,9.0258,9.0386,9.0514,0.0,0.0,0.0,0.0,0.0,0.0,0.0,0.0,0.0,0.0,0.0,6.2822,6.2822,6.2822,6.2822,6.2822,6.2822,6.2822,6.2822,6.2822,6.2822,6.2822,6.323,6.3716,6.4039,6.7855,6.9959,7.0107,7.3222,7.48,7.4869,7.4869,7.4869,7.4869,7.4869,7.48,7.4663,7.4663,7.4663,7.4663,7.4663,0.0,0.0,0.0,0.0,0.0,0.0,0.0,0.0,0.0,0.0,0.0,0.0,0.0,0.0,0.0,0.0,0.0,0.0,0.0,0.0,0.0,0.0,0.0,0.0,0.0,0.0,0.0,0.0,0.0,0.0,0.0,0.0,0.0,0.0,0.0,0.0,0.0,0.0,8.1079,8.1079,0.0,0.0,0.0,0.0,8.4917,8.498,8.5603,8.6912,8.7031,8.7595,8.8847,8.8959,8.9016,8.9016,8.9072,8.9072,8.9072,8.9016,8.9016,8.9072,8.9016,8.9016,8.9072,8.9072,8.9072,8.914,8.977,8.9634,8.9282,9.1345,9.1844,9.1525,9.2909,9.3394,9.3394,0.0,0.0,0.0,0.0,0.0,0.0,0.0,0.0,6.2822,6.2822,6.2822,6.2822,6.2822,6.2822,6.2822,6.2822,6.2822,6.2822,6.2822,6.2822,6.2822,6.2822,6.2985,6.3827,6.5608,6.8614,7.0622,7.1596,7.3842,7.4869,7.4869,7.4869,7.4869,7.4869,7.4869,7.4869,7.4869,7.4869,7.4869,7.4869,7.4869,7.4869,0.0,0.0,0.0,0.0,0.0,0.0,0.0,0.0,0.0,0.0,0.0,0.0,0.0,0.0,0.0,0.0,0.0,0.0,0.0,0.0,0.0,0.0,0.0,0.0,0.0,0.0,0.0,0.0,0.0,0.0,0.0,0.0,0.0,0.0,0.0,0.0,0.0,8.1079,8.1839,0.0,8.3048,8.3865,8.4917,8.6277,8.6398,8.6971,8.8324,8.8381,8.8586,8.9072,8.8632,8.8395,8.8395,8.7922,8.7685,8.7685,8.7685,8.7922,8.8395,8.8395,8.8632,8.9072,8.9072,8.9072,8.9106,8.9376,8.9599,8.9994,9.1233,9.1825,9.2177,9.3191,9.3571,9.3571,0.0,0.0,0.0,0.0,0.0,0.0,0.0,0.0,6.2822,6.2822,6.2822,6.2822,6.2822,6.2822,6.2822,6.2822,6.2822,6.2822,6.2822,6.2822,6.2822,6.2822,6.3067,6.4013,6.5687,6.8614,7.0622,7.1668,7.3842,7.4869,7.4869,7.4869,7.4869,7.4869,7.4869,7.4869,7.4869,7.4869,7.4869,7.4869,7.4869,7.4869,7.4869,0.0,0.0,0.0,0.0,0.0,0.0,0.0,0.0,0.0,0.0,0.0,0.0,0.0,0.0,0.0,0.0,0.0,0.0,0.0,0.0,0.0,0.0,0.0,0.0,0.0,0.0,0.0,0.0,0.0,0.0,0.0,0.0,0.0,0.0,8.091,8.1079,8.1079,8.228,8.3311,8.3736,8.498,8.6338,8.7654,8.777,8.8051,8.8678,8.8734,8.8598,8.8361,8.7888,8.7617,8.7617,8.7144,8.6907,8.6907,8.6907,8.7177,8.7617,8.7617,8.7888,8.8361,8.8361,8.8361,8.8361,8.8632,8.9004,8.9579,9.0527,9.1541,9.2489,9.2996,9.3368,9.3571,0.0,0.0,0.0,0.0,0.0,0.0,6.2822,6.2822,6.2822,6.2822,6.2822,6.2822,6.2822,6.2822,6.2822,6.2822,6.2822,6.2822,6.2822,6.2822,6.2822,6.2822,6.3635,6.4119,6.42,6.8007,7.0107,7.0181,7.3322,7.4869,7.4869,7.4869,7.4869,7.4869,7.4869,7.4869,7.4869,7.4869,7.4869,7.4869,7.4869,7.4869,7.4869,0.0,0.0,0.0,0.0,0.0,0.0,0.0,0.0,0.0,0.0,0.0,0.0,0.0,0.0,0.0,0.0,0.0,0.0,0.0,0.0,0.0,0.0,0.0,0.0,0.0,0.0,0.0,0.0,0.0,0.0,0.0,0.0,0.0,8.1079,8.1079,8.1148,8.1148,8.2347,8.3671,8.5043,8.6338,8.7679,8.8982,8.9038,8.87,8.7989,8.7955,8.7651,8.6941,8.6907,8.6873,8.6873,8.6839,8.6839,8.6839,8.6839,8.6839,8.6873,8.6873,8.6907,8.6907,8.6907,8.6907,8.6974,8.7685,8.7955,8.8125,8.9613,9.1102,9.2353,9.2387,9.2861,9.3537,0.0,0.0,0.0,0.0,0.0,0.0,6.2822,6.2822,6.2822,6.2822,6.2822,6.2822,6.2822,6.2822,6.2822,6.2822,6.2822,6.2822,6.2822,6.2822,6.2822,6.2822,6.3635,6.4655,6.5818,6.7526,6.9542,7.1841,7.2728,7.3772,7.4869,7.4869,7.4869,7.4869,7.4869,7.4869,7.4869,7.4869,7.4869,7.4869,7.4869,7.4869,7.4869,0.0,0.0,0.0,0.0,0.0,0.0,0.0,0.0,0.0,0.0,0.0,0.0,0.0,0.0,0.0,0.0,0.0,0.0,0.0,0.0,0.0,0.0,0.0,0.0,0.0,0.0,0.0,0.0,0.0,0.0,0.0,8.091,8.0979,8.1079,8.1079,8.1461,8.2414,8.3736,8.5106,8.6398,8.7303,8.7925,8.8294,8.782,8.7414,8.7211,8.7211,8.711,8.6907,8.6366,8.6095,8.6095,8.552,8.5249,8.5249,8.5249,8.5554,8.6095,8.6095,8.6399,8.6907,8.6907,8.6907,8.6941,8.7144,8.7211,8.7414,8.9444,9.0459,9.0865,9.1406,9.2083,9.2827,0.0,0.0,0.0,0.0,0.0,0.0,6.2822,6.2822,6.2822,6.2822,6.2822,6.2822,6.2822,6.2822,6.2822,6.2822,6.2822,6.2822,6.2822,6.2822,6.2822,6.2822,6.3473,6.4335,6.545,6.6832,6.8792,7.1452,7.2128,7.3322,7.4869,7.4869,7.4869,7.4869,7.4869,7.4869,7.4869,7.4869,7.4869,7.4869,7.4869,7.4869,7.4869,7.4869,7.4869,7.4869,7.4869,7.4869,7.4869,7.4869,0.0,0.0,0.0,0.0,0.0,0.0,0.0,0.0,0.0,0.0,0.0,0.0,0.0,0.0,0.0,0.0,0.0,0.0,0.0,0.0,0.0,0.0,0.0,0.0,8.0894,8.0986,8.0709,8.0894,8.1299,8.1771,8.3063,8.4243,8.5303,8.6181,8.6982,8.7494,8.7144,8.6771,8.6467,8.6433,8.6298,8.596,8.552,8.5317,8.5317,8.4843,8.464,8.464,8.464,8.4843,8.5317,8.5317,8.5554,8.596,8.596,8.596,8.5993,8.6298,8.6433,8.6602,0.0,0.0,0.0,0.0,9.0662,9.1135,0.0,0.0,0.0,0.0,0.0,0.0,6.2822,6.2822,6.2822,6.2822,6.2822,6.2822,6.2822,6.2822,6.2822,6.2822,6.2822,6.2822,6.2822,6.2822,6.2822,6.2822,6.323,6.3635,6.4039,6.5923,6.7855,7.0033,7.1524,7.3181,7.4869,7.4869,7.4869,7.4869,7.4869,7.4869,7.4869,7.4869,7.4869,7.4869,7.4869,7.4869,7.4869,7.4869,7.4869,7.4869,7.4869,7.4869,7.4869,7.4869,0.0,0.0,0.0,0.0,0.0,0.0,0.0,0.0,0.0,0.0,0.0,0.0,0.0,0.0,0.0,0.0,0.0,0.0,0.0,0.0,0.0,0.0,0.0,0.0,8.0463,8.0648,8.0063,8.0494,8.0686,8.0236,8.1419,8.2461,8.3188,8.4346,8.5558,8.6662,8.6704,8.6366,8.5689,8.5655,0.0,0.0,0.0,8.464,8.464,8.464,8.464,8.464,8.464,8.464,8.464,8.464,8.464,8.464,8.464,8.464,8.4674,8.5384,8.5655,8.5723,8.6602,8.7313,8.7955,8.87,8.897,8.9072,0.0,0.0,0.0,0.0,0.0,0.0,6.2822,6.2822,6.2822,6.2822,6.2822,6.2822,6.2822,6.2822,6.2822,6.2822,6.2822,6.2822,6.2822,6.2822,6.2822,6.2822,6.323,6.3554,6.3635,6.4655,6.6704,6.9663,7.0255,7.2028,7.4869,7.4869,7.4869,7.4869,7.4869,7.4869,7.4869,7.4869,7.4869,7.4869,7.4869,7.4869,7.4869,7.4869,7.4869,7.4869,7.4869,7.4869,7.4869,7.4869,7.4869,7.4869,7.4869,7.4869,0.0,0.0,0.0,0.0,0.0,0.0,0.0,0.0,0.0,0.0,0.0,0.0,0.0,0.0,0.0,0.0,0.0,0.0,0.0,7.9201,7.9386,7.9447,7.9324,7.9417,7.9857,8.0762,8.2046,8.3285,8.4471,8.527,8.5776,8.5993,8.5418,8.5012,8.4843,8.4843,8.4776,8.464,8.464,8.464,8.464,8.464,8.464,8.464,8.464,0.0,8.464,8.464,8.464,8.464,8.464,8.464,8.464,8.4776,8.4843,8.4979,8.6366,8.7008,8.7211,8.7955,8.8192,8.8328,0.0,0.0,0.0,0.0,0.0,0.0,6.2822,6.2822,6.2822,6.2822,6.2822,6.2822,6.2822,6.2822,6.2822,6.2822,6.2822,6.2822,6.2822,6.2822,6.2822,6.2822,6.2985,6.323,6.3473,6.3958,6.5398,6.8007,6.9187,7.106,7.3433,7.4426,7.4869,7.4869,7.4869,7.4869,7.4869,7.4869,7.4869,7.4869,7.4869,7.4869,7.4869,7.4869,7.4869,7.4869,7.4869,7.4869,7.4869,7.4869,7.4869,7.4869,7.4869,7.4869,7.4869,0.0,0.0,0.0,0.0,0.0,0.0,0.0,0.0,0.0,0.0,0.0,0.0,0.0,0.0,7.691,7.7411,0.0,7.8154,7.8493,7.8555,7.8555,7.8555,7.8278,7.8653,8.0331,8.1029,8.2106,8.3672,8.411,8.4518,8.5128,8.4843,8.464,8.464,8.464,8.464,8.464,8.464,8.464,8.464,8.5012,8.5215,8.5215,8.5587,8.5757,8.5757,8.5757,8.5757,8.5757,8.5757,8.5554,8.5182,8.4776,8.464,8.4708,8.5486,8.5757,8.579,8.6163,8.6298,8.6433,0.0,0.0,0.0,0.0,0.0,0.0,0.0,6.2822,6.2822,6.2822,6.2822,6.2822,6.2822,6.2822,6.2822,6.2822,6.2822,6.2822,6.2822,6.2822,6.2822,6.2822,6.2822,6.2985,6.3392,6.3473,6.4443,6.6339,6.8083,6.9783,7.1495,7.3433,7.4357,7.4426,7.4731,7.4869,7.4869,7.4869,7.4869,7.4869,7.4869,7.4869,7.4869,7.4869,7.4869,7.4869,7.4869,7.4869,7.4869,7.4869,7.4869,7.4869,7.4869,7.4869,7.4869,7.4869,7.4869,0.0,0.0,0.0,0.0,0.0,0.0,0.0,0.0,7.6051,7.6258,7.673,7.6831,7.68,7.6646,7.7077,7.7447,7.7447,7.7447,7.7447,7.7447,7.6954,7.7352,7.9258,7.9826,8.0659,8.2182,8.2774,8.3476,8.45,8.464,8.464,8.464,8.464,8.464,8.464,8.464,8.4708,8.4843,8.5486,8.5858,8.5993,8.6636,8.6907,8.6907,8.6907,8.6907,8.6907,8.6907,8.6569,8.596,8.5317,8.508,8.508,8.508,8.508,8.5046,8.4911,8.4843,8.4979,0.0,0.0,0.0,0.0,0.0,0.0,0.0,0.0,6.2822,6.2822,6.2822,6.2822,6.2822,6.2822,6.2822,6.2822,6.2822,6.2822,6.2822,6.2822,6.2822,6.2822,6.2822,6.2822,6.2904,6.3311,6.4283,6.5844,6.6546,6.7855,6.9783,7.1495,7.2414,7.2799,7.4288,7.4869,7.4869,7.4869,7.4869,7.4869,7.4869,7.4869,7.4869,7.4869,7.4869,7.4869,7.4869,7.4869,7.4869,7.4869,7.4869,7.4869,7.4869,7.4869,7.4869,7.4869,7.4869,7.4869,7.4869,7.4869,7.4749,7.4151,7.4654,7.5482,0.0,7.6221,7.637,7.6181,7.6123,7.5938,7.5323,7.5292,7.5353,7.5353,7.5353,7.5353,7.5353,7.5261,7.5957,7.7871,7.9672,8.0777,8.0977,8.3054,8.4446,8.4587,8.464,8.464,8.464,8.464,8.464,8.464,8.464,8.4945,8.5655,8.5757,8.6129,8.6771,8.6873,8.6907,8.6907,8.6907,8.6907,8.6907,8.6907,8.6873,8.6771,8.6704,8.6636,8.6636,8.6636,8.6636,8.6569,8.5892,8.5655,8.5757,0.0,0.0,0.0,0.0,0.0,0.0,0.0,0.0,0.0,6.2822,6.2822,6.2822,6.2822,6.2822,6.2822,6.2822,6.2822,6.2822,6.2822,6.2822,6.2822,6.2822,6.2822,6.2822,6.2822,6.2985,6.3448,6.4042,6.5398,6.6546,6.7368,6.9262,7.0374,7.0842,7.2485,7.3293,7.3533,7.4495,7.4869,7.4869,7.4869,7.4869,7.4839,7.445,7.43,7.43,7.43,7.43,0.0,7.43,7.4061,7.3791,7.418,7.4031,7.3732,7.3732,7.3732,7.3732,7.3732,7.3732,7.3672,7.3402,7.3589,7.4068,7.4372,7.48,7.5038,7.5089,7.5286,7.5323,7.5046,7.5015,7.5015,7.5015,7.4676,7.4553,7.4953,7.5015,7.5422,7.6646,7.85,8.026,8.1737,8.2886,8.3784,8.4553,8.464,8.464,8.464,8.464,8.464,8.464,8.5046,8.5452,8.579,8.6636,8.7245,8.755,8.7989,8.8158,8.8158,8.8158,8.8158,8.8158,8.7719,8.755,8.7516,8.7076,8.6907,8.6907,8.6907,8.6907,8.6873,8.6569,8.6433,8.6501,0.0,0.0,0.0,0.0,0.0,0.0,0.0,0.0,0.0,0.0,6.2822,6.2822,6.2822,6.2822,6.2822,6.2822,6.2822,6.2822,6.2822,6.2822,6.2822,6.2822,6.2822,6.2822,6.2822,6.2822,6.2822,6.2822,6.4258,6.5029,6.5187,6.7165,6.8284,6.8737,7.0447,7.1668,7.2414,7.3672,7.4495,7.4869,7.4689,7.4599,7.454,7.3881,7.3612,7.3612,7.3612,7.3612,7.3612,7.3612,7.3313,7.2984,7.3462,7.3283,7.2924,7.2924,7.2924,7.2864,7.2684,7.2774,7.2864,7.2684,7.2841,7.3094,7.3329,7.3688,7.405,7.4161,7.4387,7.4549,7.4491,7.4461,7.4461,7.4461,7.403,7.3968,7.4615,7.4707,7.5046,7.5907,7.724,7.9062,8.1447,8.1944,8.2718,8.3981,8.4089,8.4197,8.4553,8.4843,8.4945,8.4945,8.5689,8.6196,8.6399,8.7448,8.8091,8.8294,8.8835,8.9072,8.9072,8.9072,8.9072,8.9038,8.8531,8.8294,8.826,8.7719,8.7516,8.7516,8.7516,8.7516,8.7516,8.7516,8.738,8.7245,0.0,0.0,0.0,0.0,0.0,0.0,0.0,0.0,0.0,0.0,0.0,0.0,0.0,6.2822,6.2822,6.2822,6.2822,6.2822,6.2822,6.2822,6.2822,6.2822,6.2822,6.2822,6.2822,6.2822,6.2822,6.2822,6.2822,6.3148,6.3635,6.5187,6.6156,6.665,6.8662,7.0476,7.1927,7.2414,7.3462,7.4809,7.418,7.3911,7.3851,7.3193,7.2954,7.2954,7.2954,7.2954,7.2954,7.2954,7.2924,7.2924,7.2924,7.2924,7.2924,7.2924,7.2924,7.2774,7.2116,7.2385,7.2744,7.2086,7.2649,7.3395,7.3395,7.3723,7.3898,7.3581,7.3555,7.3435,7.3105,7.3045,7.3045,7.3045,7.3014,7.326,7.3937,7.403,7.4522,7.5846,7.6031,7.6827,7.8816,8.0171,8.1388,8.2661,8.2774,8.331,8.45,8.5351,8.5757,8.5757,8.6501,8.7211,8.7922,8.7989,8.8361,8.9038,8.9072,8.9072,8.9072,8.9072,8.9072,8.9072,8.9072,8.9038,8.9038,8.9038,8.9004,8.9004,8.9004,8.9004,8.9004,8.9004,8.8564,8.8057,0.0,0.0,0.0,0.0,0.0,0.0,0.0,0.0,0.0,0.0,0.0,0.0,0.0,0.0,0.0,0.0,6.2822,6.2822,6.2822,6.2822,6.2822,6.2822,6.2822,6.2822,6.2822,6.2822,6.2822,6.2822,6.2822,6.2904,6.3067,6.3584,6.4042,6.4603,6.6312,6.7675,6.8812,7.0033,7.1367,7.2578,7.2372,7.2699,7.3163,7.2475,7.2235,7.2176,0.0,7.1846,7.2235,7.2235,7.1936,7.1667,7.2086,7.1936,7.1577,7.1577,7.1577,7.1517,7.1308,7.1398,7.1517,7.1278,7.1463,7.1773,7.1773,7.2034,7.2232,7.2119,7.2311,7.2568,7.2639,7.2671,7.2734,7.2983,7.3353,7.3722,7.3968,7.4769,7.5507,7.5969,7.64,7.6934,7.7605,7.8817,8.005,8.133,8.1447,8.2198,8.4044,8.4366,8.5158,8.6501,8.7245,8.7753,8.7989,8.8463,8.8835,8.9072,8.9072,8.9072,8.9072,8.9072,8.9072,8.9072,8.9072,8.9072,8.9072,8.9072,8.9072,8.9072,8.9072,8.9072,8.9072,8.9072,8.8937,8.8767,0.0,0.0,0.0,0.0,0.0,0.0,0.0,0.0,0.0,0.0,0.0,0.0,0.0,0.0,0.0,0.0,0.0,6.2822,6.2822,6.2822,6.2822,6.2822,6.2822,6.2822,6.2822,6.2822,6.2822,6.2822,6.2822,6.2822,6.2822,6.2822,6.2985,6.3311,6.4418,6.5556,6.6701,6.7686,6.9003,7.0478,7.002,7.0628,7.171,7.1029,7.1093,0.0,7.1038,7.1188,7.1517,7.1517,7.1248,7.0979,7.1398,7.1248,7.0889,7.0889,7.0889,7.0889,7.0889,7.0889,7.0889,7.0889,7.0889,7.0889,7.0889,7.1113,7.1242,7.1371,7.1628,7.1913,7.2231,7.242,7.267,7.3103,7.3628,7.4153,7.4645,7.5476,7.6092,7.6338,7.6769,7.7016,7.7016,7.7734,7.8754,8.005,8.011,8.1003,8.3052,8.3407,8.4283,8.583,8.6587,8.7218,8.7709,8.8146,8.8643,8.9072,8.9072,8.9072,8.9072,8.9072,8.9072,8.9072,8.9072,8.9072,8.9072,8.9072,8.9072,8.9072,8.9072,8.9072,8.9072,8.9072,8.9072,8.9072,0.0,0.0,0.0,0.0,0.0,0.0,0.0,0.0,0.0,0.0,0.0,0.0,0.0,0.0,0.0,0.0,0.0,0.0,6.2822,6.2822,6.2822,6.2822,6.2822,6.2822,6.2822,6.2822,6.2822,6.2822,6.2822,6.2822,6.2822,6.2822,6.2822,6.2822,6.323,6.4283,6.566,6.5547,6.6628,6.8326,6.7129,6.782,6.9485,6.8915,6.9582,7.0759,7.0889,7.0889,7.0889,7.0889,7.0889,7.0889,7.0889,7.0889,7.0889,7.0889,7.0889,7.0889,7.0889,7.0889,7.0889,7.0889,7.0889,7.0889,7.0889,7.0889,7.0954,7.1307,7.1341,7.15,7.1913,7.2231,7.2697,7.3369,7.384,7.4522,7.5815,7.6031,7.6308,7.6954,7.7016,7.7016,7.7016,7.7016,7.7507,7.8691,7.8848,7.9696,8.1626,8.2523,8.3266,8.404,8.4749,8.5727,8.6971,8.7031,8.7654,8.9016,8.9016,8.9016,8.9016,8.9072,8.9072,8.9016,8.9072,8.9072,8.9072,8.9016,8.9016,8.9072,8.9016,8.9016,8.9072,8.9072,8.9072,8.9072,0.0,0.0,0.0,0.0,0.0,0.0,0.0,0.0,0.0,0.0,0.0,0.0,0.0,0.0,0.0,0.0,0.0,0.0,6.2822,6.2822,6.2822,6.2822,6.2822,6.2822,6.2822,6.2822,6.2822,6.2822,6.2822,6.2822,6.2822,6.2822,6.2822,6.2822,6.2904,6.3367,6.4042,6.3612,6.4324,6.5652,6.522,6.5788,6.6903,6.8237,6.8952,6.942,7.0498,7.0889,7.0889,7.0889,7.0889,7.0889,7.0889,7.0889,7.0889,7.0889,7.0889,7.0889,7.0889,7.0889,7.0889,7.0889,7.0889,7.0889,7.0889,7.0889,7.0889,7.1048,7.1048,7.1178,7.15,7.185,7.2444,7.3369,7.4209,7.5046,7.5907,7.6431,7.6831,7.6985,7.7016,7.7016,7.7016,7.7016,7.7147,7.7442,7.7972,7.9117,8.1157,8.192,8.3131,8.4752,8.5009,8.5293,8.5603,8.5603,8.6277,8.7595,8.7595,8.7595,8.7654,8.8643,8.8586,8.7654,8.8643,8.9072,8.9016,8.8036,8.8209,8.9016,8.8003,8.8209,8.9072,8.9072,8.9072,8.9072,0.0,0.0,0.0,0.0,0.0,0.0,0.0,0.0,0.0,0.0,0.0,0.0,0.0,0.0,0.0,0.0,0.0,0.0,0.0,6.2822,6.2822,6.2822,6.2822,6.2822,6.2822,6.2822,6.2822,6.2822,6.2822,6.2822,6.2822,6.2822,6.2822,6.2822,6.2822,6.2985,6.3179,6.237,6.2527,0.0,0.0,6.3446,6.4984,6.6048,6.6984,6.7907,6.9353,7.0337,7.0889,7.0889,7.0889,7.0889,7.0889,7.0889,7.0889,7.0889,7.0889,7.0889,7.0889,7.0889,7.0889,7.0889,7.0889,7.0889,7.0889,7.0889,7.0889,7.0889,7.0889,7.0984,7.1148,7.1741,7.2486,7.354,7.4534,7.5467,7.6304,7.6769,7.7016,7.7016,7.7016,7.7016,7.7016,7.7016,7.7139,7.7447,7.7816,7.8641,8.0151,8.0838,8.1893,8.3313,8.3345,8.3671,8.4219,8.4791,8.548,8.6216,8.6216,8.6216,8.6277,8.7595,8.7503,8.6277,8.7654,8.7887,8.7268,8.6519,8.6639,8.7327,8.715,8.7209,8.7419,8.8036,8.7829,8.7386,0.0,0.0,0.0,0.0,0.0,0.0,0.0,0.0,0.0,0.0,0.0,0.0,0.0,0.0,0.0,0.0,0.0,0.0,0.0,0.0,6.2822,6.2822,6.2822,6.2822,6.2822,6.2822,6.2822,6.2822,6.2822,6.2822,6.2822,6.2822,6.2822,6.2822,6.2822,6.2822,6.2747,6.1642,6.1429,6.1644,6.0581,6.1342,6.3152,0.0,6.4581,6.6286,6.8043,6.9516,7.0629,7.0824,7.0889,7.0889,7.0889,7.0889,7.0889,7.0889,7.0889,7.0889,7.0889,7.0889,7.0889,7.0889,7.0889,7.0889,7.0889,7.0889,7.0889,7.0889,7.0889,7.0889,7.0889,7.1688,7.2741,7.3763,7.4759,7.5789,7.6726,7.6884,7.6884,7.695,7.695,7.695,7.7016,7.7016,7.7293,7.797,7.8124,7.8493,7.9201,7.9878,8.0494,8.1048,8.1079,8.1635,8.2783,8.3962,8.4665,8.4854,8.4854,8.4854,8.4854,8.6216,8.6095,8.4917,8.6277,8.6156,8.5106,8.4917,8.4917,8.5231,8.6156,8.5972,8.5231,8.6398,8.6095,8.5293,0.0,0.0,0.0,0.0,0.0,0.0,0.0,0.0,0.0,0.0,6.1895,6.2822,0.0,0.0,0.0,0.0,0.0,0.0,0.0,0.0,0.0,6.2822,6.2822,6.2822,6.2822,6.2822,6.2822,6.2822,6.2822,6.2822,6.2822,6.2822,6.2822,6.2822,6.2822,6.2822,6.2747,6.1642,6.127,6.1248,6.0426,6.0329,6.0913,6.2857,0.0,0.0,6.7604,6.8885,6.9286,7.0498,7.0889,7.0889,7.0889,7.0889,7.0889,7.0889,7.0889,7.0889,7.0889,7.0889,7.0889,7.0889,7.0889,7.0889,7.0889,7.0889,7.0889,7.0889,7.0889,7.0889,7.0889,7.1688,7.2611,7.334,7.4365,7.5297,7.6063,7.6185,7.6288,7.6554,7.662,7.6686,7.695,7.7016,7.7293,7.797,7.8585,7.9232,7.9909,8.0555,8.0956,8.1079,8.1079,8.1186,8.1461,8.1703,8.2347,8.341,8.341,8.341,8.3475,8.4854,8.4728,8.3541,8.4854,8.5293,8.5043,8.393,8.4091,8.5043,8.4123,8.4347,8.5106,8.5355,8.5293,8.5168,0.0,0.0,0.0,0.0,0.0,0.0,0.0,5.5509,5.7653,5.853,6.1101,6.2822,6.2822,6.2822,0.0,0.0,0.0,0.0,0.0,0.0,0.0,6.2822,6.2822,6.2822,6.2822,6.2822,6.2822,6.2822,0.0,6.2822,6.2822,6.2822,6.2822,6.2822,6.2822,6.2672,6.2345,6.1542,6.1014,6.0663,6.0067,5.9894,6.0176,0.0,0.0,0.0,6.6566,6.8043,6.8952,7.0403,7.0889,7.0889,7.0889,7.0889,7.0889,7.0889,7.0889,7.0889,7.0889,7.0889,7.0889,7.0889,7.0889,7.0889,7.0889,7.0889,7.0889,7.0889,7.0889,7.0889,7.0889,7.1858,7.2835,7.3334,7.4402,7.5389,7.5923,7.5954,7.6021,7.6221,7.6221,7.6258,7.6421,7.6926,7.755,7.8225,7.893,7.9551,8.0094,8.074,8.0979,8.0771,8.101,8.101,8.0771,8.101,8.1392,8.2042,8.2042,8.2042,8.2078,8.3475,8.3345,8.2146,8.3475,8.3671,8.295,8.2347,8.2481,8.3016,8.3114,8.3048,8.3082,8.38,8.3606,8.3082,0.0,0.0,0.0,0.0,0.0,0.0,0.0,5.4565,5.6901,5.7223,6.0159,6.2388,6.2741,6.2822,6.2822,0.0,0.0,0.0,0.0,0.0,0.0,0.0,0.0,0.0,6.2822,0.0,0.0,6.2822,6.2822,0.0,0.0,0.0,0.0,0.0,6.2647,6.2345,6.1793,6.124,6.0738,0.0,0.0,5.9714,5.9971,0.0,0.0,0.0,0.0,6.6636,6.8043,6.9781,7.0403,7.0498,7.0824,7.0889,7.0889,7.0889,7.0889,7.0889,7.0889,7.0889,7.0889,7.0889,7.0889,7.0889,7.0889,7.0889,7.0889,7.0889,7.0889,7.0889,7.0889,7.1996,7.296,7.3293,7.4406,7.5414,7.5715,7.5752,7.5722,7.585,7.5819,7.5887,7.5984,7.6831,7.7673,7.8277,7.9132,7.9728,8.0035,8.0564,8.0701,8.0422,8.0701,8.0701,8.0352,8.0701,8.084,8.084,8.084,8.091,8.0979,8.2078,8.2011,8.1117,8.2213,8.2011,8.0979,8.0979,8.091,8.0979,8.198,8.174,8.0979,8.2047,8.174,8.0979,0.0,0.0,0.0,0.0,0.0,0.0,0.0,5.3544,5.5444,5.705,5.904,6.0935,6.2659,6.2822,6.2822,0.0,0.0,0.0,0.0,0.0,0.0,0.0,0.0,0.0,0.0,0.0,0.0,6.2822,6.2822,0.0,0.0,0.0,0.0,0.0,0.0,6.1768,6.1215,6.0638,0.0,0.0,0.0,0.0,0.0,0.0,0.0,0.0,0.0,6.4174,6.5039,6.7907,6.8885,6.9153,7.0498,7.0889,7.0889,7.0889,7.0889,7.0889,7.0889,7.0889,7.0889,7.0889,7.0889,7.0889,7.0889,7.0889,7.0889,7.0889,7.0889,7.0889,7.0889,7.1996,7.2924,7.2894,7.4069,7.4937,7.5006,7.5006,7.5074,7.5414,7.5414,7.555,7.5984,7.6561,7.7266,7.7935,7.915,7.988,7.988,8.0011,7.9971,7.9971,7.9971,7.9971,7.9971,7.9971,8.0041,8.0041,8.0041,8.0182,8.0562,8.0671,8.091,8.1148,8.1186,8.0979,8.0562,8.0562,8.0352,8.0041,8.0182,8.0111,8.0041,8.0182,8.0111,8.0041,0.0,0.0,0.0,0.0,0.0,0.0,5.1791,5.43,5.6468,5.7223,5.9907,6.1977,6.2741,6.2822,6.2822,0.0,0.0,0.0,0.0,0.0,0.0,0.0,0.0,0.0,0.0,0.0,6.2822,6.2822,6.2822,0.0,0.0,0.0,0.0,0.0,0.0,6.119,6.0638,6.0412,0.0,0.0,0.0,0.0,0.0,0.0,0.0,0.0,0.0,0.0,6.5766,6.7544,6.873,6.9518,6.9679,7.0021,7.041,7.0799,7.0889,7.0889,7.0889,7.0889,7.0889,7.0889,7.0889,7.0889,7.0889,7.0889,7.0889,7.0889,7.0889,7.0889,7.0889,7.1996,7.2924,7.2924,7.4031,7.4869,7.4869,7.4869,7.4937,7.5074,7.5074,7.5142,7.5278,7.6447,7.7642,7.87,7.9274,7.9505,7.9291,7.9688,7.983,7.9647,7.9759,7.9759,7.9576,7.9759,7.99,7.99,7.99,7.9971,8.0111,8.0111,8.0182,8.0422,8.0422,8.0282,8.0111,8.0111,8.0041,7.99,7.99,7.99,7.99,7.99,7.99,7.99,0.0,0.0,0.0,0.0,0.0,5.1791,5.1791,5.4477,5.6728,5.7223,6.0075,6.2224,6.2741,6.2822,6.2822,6.2822,0.0,0.0,0.0,0.0,0.0,0.0,0.0,0.0,0.0,0.0,6.2822,6.2822,6.2822,6.2747,0.0,0.0,6.1818,6.1492,0.0,0.0,0.0,0.0,0.0,0.0,0.0,0.0,0.0,0.0,0.0,0.0,0.0,0.0,0.0,0.0,0.0,6.8484,6.887,6.9453,7.0051,7.05,7.0769,7.0889,7.0889,7.0889,7.0889,7.0889,7.0889,7.0889,7.0889,7.0889,7.0889,7.0889,7.0889,7.0889,7.0889,7.1996,7.2924,7.2924,7.4031,7.4869,7.4869,7.4869,7.4869,7.4869,7.4869,7.4869,7.4869,7.6343,7.7806,7.9129,7.922,7.9076,7.8789,7.9261,7.9505,7.922,7.9434,7.9475,7.922,7.9505,7.9546,7.9546,7.9546,7.9617,7.9759,7.9759,7.983,7.99,7.99,7.983,7.9759,7.9759,7.9688,7.9546,7.9546,7.9546,7.9546,7.9546,7.9546,7.9546,0.0,0.0,0.0,0.0,0.0,0.0,5.1791,5.3455,5.5269,5.705,5.8955,6.0768,6.2577,6.2822,6.2822,6.2822,0.0,0.0,0.0,0.0,0.0,0.0,0.0,0.0,0.0,0.0,6.2822,6.2822,6.2822,6.2546,6.2019,6.1994,6.1416,6.0337,0.0,0.0,0.0,0.0,0.0,0.0,0.0,0.0,0.0,0.0,0.0,0.0,0.0,0.0,0.0,0.0,0.0,0.0,0.0,6.9453,6.9991,6.9991,7.041,7.0889,7.0889,7.0889,7.0889,7.0889,7.0889,7.0889,7.0889,7.0889,7.0889,7.0889,7.0889,7.0889,7.0889,7.1996,7.2924,7.2924,7.4031,7.4869,7.4869,7.4869,7.4869,7.4869,7.4869,7.4869,7.4869,7.6066,7.7382,7.8699,7.8789,7.8789,7.8789,7.8789,7.8789,7.8789,7.8789,7.8789,7.8789,7.8789,7.8789,7.8789,7.8789,7.9005,7.9363,7.9363,7.9576,7.99,7.99,7.9688,7.9363,7.9363,7.9148,7.8789,7.8789,7.8789,7.8789,7.8789,7.8789,7.8789,0.0,0.0,0.0,0.0,0.0,0.0,0.0,5.5247,5.716,5.8955,6.0768,6.2142,6.2741,6.2822,6.2822,6.2822,0.0,0.0,0.0,0.0,0.0,0.0,0.0,0.0,0.0,6.2822,6.2822,6.2822,6.2822,6.2546,6.1994,6.1617,6.104,6.0311,5.9935,5.9659,0.0,0.0,0.0,0.0,0.0,0.0,5.9483,0.0,0.0,0.0,0.0,0.0,0.0,0.0,0.0,0.0,0.0,0.0,0.0,6.9303,7.0081,7.0889,7.0889,7.0889,7.0889,7.0889,7.0889,7.0889,7.0889,7.0889,7.0889,7.0889,7.0889,7.0889,7.0889,7.1996,7.2924,7.2924,7.4031,7.4869,7.4869,7.4869,7.4869,7.4869,7.4869,7.5228,7.6125,7.6574,7.7382,7.8699,7.8789,7.8789,7.8789,7.8789,7.8789,7.8789,7.8789,7.8789,7.8789,7.8789,7.8789,7.8789,7.8789,7.8861,7.9005,7.9005,7.9076,7.9148,7.9148,7.9076,7.9005,7.9005,7.8933,7.8789,7.8789,7.8789,7.8789,7.8789,7.8789,7.8789,0.0,0.0,0.0,0.0,0.0,0.0,0.0,5.5684,5.7738,5.887,6.1208,6.2822,6.2822,6.2822,6.2822,6.2822,0.0,0.0,0.0,0.0,0.0,0.0,0.0,0.0,6.2822,6.2822,6.2822,6.2822,6.2822,6.2446,6.1692,6.1341,6.0763,5.9985,5.9659,5.9483,0.0,0.0,0.0,0.0,0.0,0.0,5.9483,0.0,0.0,0.0,0.0,0.0,0.0,0.0,0.0,0.0,0.0,0.0,0.0,0.0,6.9901,7.0889,7.0889,7.0889,7.0889,7.0889,7.0889,7.0889,7.0889,7.0889,7.0889,7.0889,7.0889,7.0979,7.1218,7.2176,7.2984,7.3253,7.418,7.4869,7.4869,7.4869,7.4869,7.4869,7.4869,7.5377,7.6694,7.6814,7.7382,7.8699,7.8789,7.8789,7.8789,7.8789,7.8789,7.8789,7.8789,7.8789,7.8789,7.8789,7.8789,7.8789,7.8789,7.8789,7.8789,7.8789,7.8789,7.8789,7.8789,7.8789,0.0,7.8789,7.8789,7.8789,7.8789,7.8789,7.8789,7.8789,7.8789,7.8789,0.0,0.0,0.0,0.0,0.0,0.0,0.0,0.0,5.7223,5.7481,6.0493,6.2659,6.2822,6.2822,6.2822,6.2822,0.0,0.0,0.0,0.0,0.0,0.0,0.0,0.0,6.2822,6.2822,6.2822,6.2822,6.2822,6.227,6.119,6.119,6.0588,5.9483,5.9483,5.9483,0.0,0.0,0.0,0.0,5.9483,5.9483,0.0,0.0,0.0,0.0,0.0,0.0,0.0,0.0,0.0,0.0,0.0,0.0,0.0,0.0,0.0,0.0,0.0,7.0889,7.0889,7.0889,7.0889,7.0889,7.0889,7.0889,0.0,7.0889,7.0889,7.1098,7.1757,7.2445,7.3133,7.3791,7.445,7.4869,7.4869,7.4869,7.4869,7.4869,7.4869,7.5377,7.6694,7.6814,7.7382,7.8699,7.8789,7.8789,7.8789,7.8789,7.8789,7.8789,7.8789,7.8789,7.8789,7.8789,7.8789,7.8789,7.8789,7.8789,7.8789,7.8789,7.8789,7.8789,7.8789,7.8789,7.8789,7.8789,7.8789,7.8789,7.8789,7.8789,7.8789,7.8789,7.8789,7.8789,0.0,0.0,0.0,0.0,0.0,0.0,0.0,0.0,0.0,0.0,6.0183,6.1291,6.2659,6.2822,6.2822,0.0,0.0,0.0,0.0,0.0,0.0,0.0,0.0,0.0,6.2822,6.2822,6.2822,6.2822,6.2822,6.227,6.119,6.119,6.0588,5.9483,5.9483,5.9483,0.0,0.0,0.0,0.0,5.9483,5.9483,0.0,0.0,0.0,0.0,5.8655,5.8493,0.0,0.0,0.0,0.0,0.0,0.0,0.0,0.0,7.029,7.0889,7.0889,0.0,7.0889,7.0889,7.0889,7.0889,0.0,7.0889,7.0889,7.0889,7.0889,7.1098,7.1757,7.2445,7.3133,7.3791,7.445,7.4869,7.4869,7.4869,7.4869,7.4869,7.4869,7.5377,7.6694,7.6814,7.7382,7.8699,7.8789,7.8789,7.8789,7.8789,7.8789,7.8789,7.8789,7.8789,7.8789,7.8789,7.8789,7.8789,7.8789,7.8789,7.8789,7.8789,7.8789,7.8789,7.8789,7.8789,7.8789,7.8789,7.8789,7.8789,7.8789,7.8789,7.8789,7.8789,7.8789,7.8789,0.0,0.0,0.0,0.0,0.0,0.0,0.0,0.0,0.0,0.0,0.0,0.0,0.0,0.0,0.0,0.0,0.0,0.0,0.0,0.0,0.0,0.0,0.0,6.2822,6.2822,6.2822,6.2822,6.2822,6.2822,6.2395,6.1542,6.1291,6.0713,5.9859,5.9608,5.9483,5.9483,5.9483,5.9483,5.9483,5.9483,0.0,0.0,0.0,0.0,0.0,5.7925,5.7788,0.0,5.7698,5.9958,6.2886,0.0,0.0,0.0,0.0,7.041,7.0889,7.0889,7.0889,7.0889,7.0889,7.0889,7.0889,7.0889,7.0889,7.0889,7.0889,7.1128,7.1547,7.2235,7.2924,7.3582,7.424,7.4629,7.4869,7.4869,7.4869,7.4869,7.4869,7.4869,7.5377,7.6694,7.6814,7.7382,7.8699,7.8789,7.8789,7.8789,7.8789,7.8789,7.8789,7.8789,7.8789,7.8789,7.8789,7.8789,7.8789,7.8789,7.8789,7.8789,7.8789,7.8789,7.8789,7.8789,7.8789,7.8789,7.8789,7.8789,7.8789,7.8789,7.8789,7.8789,7.8789,7.8789,7.8789,0.0,0.0,0.0,0.0,0.0,0.0,0.0,0.0,0.0,0.0,0.0,0.0,0.0,0.0,0.0,0.0,0.0,0.0,0.0,0.0,0.0,0.0,6.2822,6.2822,6.2822,6.2822,6.2822,6.2822,6.2747,6.2421,6.1868,6.1316,6.0738,6.0161,5.9709,5.9483,5.9483,5.9483,5.9483,5.9483,5.9483,0.0,0.0,0.0,0.0,0.0,0.0,0.0,0.0,5.7379,5.9804,6.2998,6.3655,0.0,0.0,0.0,0.0,0.0,7.0889,7.0889,7.0889,7.0889,7.0889,7.0889,7.0889,7.0889,7.0919,7.1038,7.1487,7.2116,7.2924,7.3522,7.4121,7.4779,7.4869,7.4869,7.4869,7.4869,7.4869,7.4869,7.4958,7.5497,7.6724,7.6904,7.7472,7.8699,7.8789,7.8789,7.8789,7.8789,7.8789,7.8789,7.8789,7.8789,7.8789,7.8789,7.8789,7.8789,7.8789,7.8789,7.8789,7.8789,7.8789,7.8789,7.8789,7.8789,7.8789,7.8789,7.8789,7.8789,7.8789,7.8789,7.8789,7.8789,7.8789,7.8789,0.0,0.0,0.0,0.0,0.0,0.0,0.0,0.0,0.0,0.0,0.0,0.0,0.0,0.0,0.0,0.0,0.0,0.0,0.0,0.0,0.0,6.2822,6.2822,6.2822,6.2822,6.2822,6.2822,6.2822,6.237,6.1843,6.1291,6.0713,6.0161,5.9608,5.9533,5.9483,5.9483,5.9483,5.9483,5.9483,5.9483,0.0,0.0,0.0,0.0,0.0,0.0,0.0,0.0,5.7307,6.0001,6.328,6.4263,0.0,0.0,0.0,0.0,0.0,7.0889,7.0889,7.0889,7.0889,7.0889,7.0889,7.0889,7.0889,7.1068,7.1607,7.1816,7.2265,7.3522,7.3821,7.4121,7.4779,7.4869,7.4869,7.4869,7.4869,7.4869,7.4869,7.5377,7.6036,7.6754,7.7322,7.7981,7.8729,7.8789,7.8789,7.8789,7.8789,7.8789,7.8789,7.8789,7.8789,7.8789,7.8789,7.8789,7.8789,7.8789,7.8789,7.8789,7.8789,7.8789,7.8789,7.8789,7.8789,7.8789,7.8789,7.8789,7.8789,7.8789,7.8789,7.8789,7.8789,7.8789,7.8789,0.0,0.0,0.0,0.0,0.0,0.0,0.0,0.0,0.0,0.0,0.0,0.0,0.0,0.0,0.0,0.0,0.0,0.0,0.0,0.0,6.2822,6.2822,6.2822,6.2822,6.2822,6.2546,6.2395,6.2395,6.1843,6.1441,6.1165,6.0588,6.001,5.9483,5.9483,5.9483,5.9483,5.9483,5.9483,5.9458,0.0,0.0,0.0,0.0,0.0,0.0,0.0,0.0,0.0,0.0,5.9818,6.3353,6.4199,0.0,0.0,0.0,0.0,0.0,7.0889,7.0889,7.0889,7.0889,7.0889,7.0889,7.0889,7.1188,7.1517,7.1816,7.2475,7.3163,7.3791,7.418,7.451,7.4839,7.4869,7.4869,7.4869,7.4869,7.4869,7.4869,7.5497,7.6155,7.6754,7.7442,7.8071,7.8729,7.8789,7.8789,7.8789,7.8789,7.8789,7.8789,7.8789,7.8789,7.8789,7.8789,7.8789,7.8789,7.8789,7.8789,7.8789,7.8789,7.8789,7.8789,7.8789,7.8789,7.8789,7.8789,7.8789,7.8789,7.8789,7.8789,7.8789,7.8789,7.8789,7.8789,0.0,0.0,0.0,0.0,0.0,0.0,0.0,0.0,0.0,0.0,0.0,0.0,0.0,0.0,0.0,0.0,0.0,0.0,0.0,6.2822,6.2822,6.2822,6.2822,6.2822,6.2822,6.2295,6.1994,6.1994,6.1316,6.0914,6.0788,6.0337,5.991,5.9483,5.9483,5.9483,5.9483,5.9483,5.9483,5.9458,0.0,0.0,0.0,0.0,0.0,0.0,0.0,0.0,0.0,0.0,0.0,0.0,0.0,0.0,0.0,7.0769,7.0889,7.0889,7.0889,7.0889,7.0889,7.0889,7.0889,7.0949,7.1098,7.1517,7.1966,7.2295,7.3193,7.3941,7.4091,7.454,7.4869,7.4869,7.4869,7.4869,7.4869,7.4869,7.4869,7.4869,7.5617,7.6305,7.6784,7.7562,7.825,7.8759,7.8789,7.8789,7.8789,7.8789,7.8789,7.8789,7.8789,7.8789,7.8789,7.8789,7.8789,7.8789,7.8789,7.8789,7.8789,7.8789,7.8789,7.8789,7.8789,7.8789,7.8789,7.8789,7.8789,7.8789,7.8789,7.8789,7.8789,7.8789,7.8789,7.8789,0.0,0.0,0.0,0.0,0.0,0.0,0.0,0.0,0.0,0.0,0.0,0.0,0.0,0.0,0.0,0.0,0.0,0.0,0.0,6.2822,6.2822,6.2822,6.2822,6.2822,6.2822,6.2295,6.1994,6.1994,6.0914,6.0111,5.9608,5.9583,5.9533,5.9483,5.9483,5.9483,5.9483,5.9483,5.9483,5.9458,5.893,0.0,0.0,0.0,0.0,0.0,0.0,0.0,0.0,0.0,0.0,0.0,0.0,0.0,7.0829,7.0889,7.0889,7.0889,7.0889,7.0889,7.0889,7.0889,7.0889,7.1068,7.1667,7.1846,7.2235,7.3492,7.3821,7.4091,7.4689,7.4839,7.4869,7.4869,7.4869,7.4869,7.4869,7.4869,7.4869,7.4869,7.6006,7.6784,7.6814,7.7981,7.8729,7.8789,7.8789,7.8789,7.8789,7.8789,7.8789,7.8789,7.8789,7.8789,7.8789,7.8789,7.8789,7.8789,7.8789,7.8789,7.8789,7.8789,7.8789,7.8789,7.8789,7.8789,7.8789,7.8789,7.8789,7.8789,7.8789,7.8789,7.8789,7.8789,7.8789,7.8789,0.0,0.0,0.0,0.0,0.0,0.0,0.0,0.0,0.0,0.0,0.0,0.0,0.0,0.0,0.0,0.0,0.0,0.0,0.0,6.2822,6.2822,6.2822,6.2822,6.2672,6.232,6.1768,6.1316,6.0964,6.0186,5.9709,5.9483,5.9483,5.9483,5.9483,5.9483,5.9483,5.9483,5.9483,5.9307,5.8956,5.8428,5.7876,0.0,0.0,0.0,0.0,0.0,0.0,0.0,0.0,5.9909,6.3418,6.4346,6.7361,7.0629,7.0824,7.0889,7.0889,7.0889,7.0889,7.1009,7.1398,7.1517,7.1577,7.1816,7.2535,7.3283,7.3791,7.421,7.4569,7.4839,7.4869,7.4869,7.4869,7.4869,7.4869,7.4869,7.4869,7.4869,7.4869,7.6036,7.6814,7.6814,7.8011,7.8789,7.8789,7.8789,7.8789,7.8789,7.8789,7.8789,7.8789,7.8789,7.8789,7.8789,7.8789,7.8789,7.8789,7.8789,7.8789,7.8789,7.8789,7.8789,7.8789,7.8789,7.8789,7.8789,7.8789,7.8789,7.8789,7.8789,7.8789,7.8789,7.8789,7.8789,7.8789,0.0,0.0,0.0,0.0,0.0,0.0,0.0,0.0,0.0,0.0,0.0,0.0,0.0,0.0,0.0,0.0,0.0,0.0,6.2822,6.2822,6.2822,6.2822,6.2822,6.2496,6.1768,6.1366,6.0889,6.0311,5.9759,5.9483,5.9483,5.9483,5.9483,5.9483,5.9483,5.9483,5.9483,5.9483,5.9207,5.8679,5.8127,5.7549,0.0,0.0,0.0,0.0,0.0,0.0,0.0,0.0,5.9617,6.278,6.4202,6.6931,6.981,7.0629,7.0889,7.0889,7.0889,7.0889,7.1068,7.1727,7.2056,7.2265,7.2475,7.3223,7.3941,7.4151,7.4569,7.4869,7.4869,7.4869,7.4869,7.4869,7.4869,7.4869,7.4869,7.4869,7.4869,7.4869,7.6036,7.6814,7.6814,7.8011,7.8789,7.8789,7.8789,7.8789,7.8789,7.8789,7.8789,7.8789,7.8789,7.8789,7.8789,7.8789,7.8789,7.8789,7.8789,7.8789,7.8789,7.8789,7.8789,7.8789,7.8789,7.8789,7.8789,7.8789,7.8789,7.8789,7.8789,7.8789,7.8789,7.8789,7.8789,7.8789,0.0,0.0,0.0,0.0,0.0,0.0,0.0,0.0,0.0,0.0,0.0,0.0,0.0,0.0,0.0,0.0,0.0,0.0,6.2822,6.2822,6.2822,6.2822,6.2822,6.232,6.1215,6.1165,6.0889,6.0311,5.9759,5.9483,5.9483,5.9483,5.9483,5.9483,5.9483,5.9483,5.9483,5.9483,5.9182,5.8654,5.8102,5.7549,5.6972,0.0,0.0,0.0,0.0,0.0,0.0,0.0,5.9502,6.1934,6.4451,6.658,6.8451,7.0337,7.0889,7.0889,7.0889,7.0889,7.1068,7.1727,7.2415,7.3103,7.3762,7.3911,7.4091,7.4749,7.4869,7.4869,7.4869,7.4869,7.4869,7.4869,7.4869,7.4869,7.4869,7.4869,7.4869,7.4869,7.6036,7.6814,7.6814,7.8011,7.8789,7.8789,7.8789,7.8789,7.8789,7.8789,7.8789,7.8789,7.8789,7.8789,7.8789,7.8789,7.8789,7.8789,7.8789,7.8789,7.8789,7.8789,7.8789,7.8789,7.8789,7.8789,7.8789,7.8789,7.8789,7.8789,7.8789,7.8789,7.8789,7.8789,7.8789,7.8789,0.0,0.0,0.0,0.0,0.0,0.0,0.0,0.0,0.0,0.0,0.0,0.0,0.0,0.0,0.0,0.0,0.0,0.0,6.2822,6.2822,6.2822,6.2822,6.2822,6.232,6.1215,6.0412,5.991,5.9734,5.9583,5.9483,5.9483,5.9483,5.9483,5.9483,5.9483,5.9483,5.9483,5.9106,5.8629,5.8102,5.7524,5.6947,5.6445,0.0,0.0,0.0,0.0,0.0,0.0,0.0,0.0,0.0,6.4665,6.7094,6.9545,7.0563,7.0889,7.0889,7.0889,7.1248,7.1757,7.2445,7.3103,7.3762,7.442,7.4569,7.4629,7.4839,7.4869,7.4869,7.4869,7.4869,7.4869,7.4869,7.4869,7.4869,7.4869,7.4869,7.4869,7.4869,7.6036,7.6814,7.6814,7.8011,7.8789,7.8789,7.8789,7.8789,7.8789,7.8789,7.8789,7.8789,7.8789,7.8789,7.8789,7.8789,7.8789,7.8789,7.8789,7.8789,7.8789,7.8789,7.8789,7.8789,7.8789,7.8789,7.8789,7.8789,7.8789,7.8789,7.8789,7.8789,7.8789,7.8789,7.8789,7.8789,0.0,0.0,0.0,0.0,0.0,0.0,0.0,0.0,0.0,0.0,6.2822,6.2822,0.0,0.0,0.0,0.0,0.0,0.0,0.0,6.2822,6.2822,6.2822,6.2822,6.232,6.1215,6.0085,5.9483,5.9483,5.9483,5.9483,5.9483,5.9483,5.9483,5.9483,5.9483,5.9483,5.9483,5.9156,5.873,5.8202,5.7851,5.7374,5.6872,0.0,0.0,0.0,0.0,0.0,0.0,0.0,0.0,0.0,6.456,6.6817,6.9211,7.0367,7.0789,7.0949,7.1218,7.1577,7.2116,7.3073,7.3612,7.4061,7.4719,7.4869,7.4869,7.4869,7.4869,7.4869,7.4869,7.4869,7.4869,7.4869,7.4869,7.4869,7.4869,7.4869,7.4988,7.5258,7.6185,7.6933,7.7203,7.816,7.8789,7.8789,7.8789,7.8789,7.8789,7.8789,7.8789,7.8789,7.8789,7.8789,7.8789,7.8789,7.8789,7.8789,7.8789,7.8789,7.8789,7.8789,7.8789,7.8789,7.8789,7.8789,7.8789,7.8789,7.8789,7.8789,7.8789,7.8789,7.8789,7.8789,7.8789,7.8789,0.0,0.0,6.0085,5.9185,0.0,0.0,0.0,0.0,0.0,0.0,6.2822,6.2822,0.0,0.0,0.0,0.0,0.0,0.0,0.0,0.0,6.2822,6.2822,6.2722,6.2195,6.114,6.0035,5.9483,5.9483,5.9483,5.9483,5.9483,5.9483,5.9483,5.9483,5.9483,5.9483,5.9483,5.9433,5.9156,5.8704,5.8654,5.8353,5.7901,5.7901,0.0,0.0,0.0,0.0,0.0,0.0,0.0,0.0,6.3902,6.5907,6.7936,6.9678,7.0498,7.1038,7.1697,7.1936,7.2295,7.3582,7.3941,7.4151,7.4749,7.4869,7.4869,7.4869,7.4869,7.4869,7.4869,7.4869,7.4869,7.4869,7.4869,7.4869,7.4869,7.4869,7.5138,7.5826,7.6455,7.7083,7.7741,7.84,7.8789,7.8789,7.8789,7.8789,7.8789,7.8789,7.8789,7.8789,7.8789,7.8789,7.8789,7.8789,7.8789,7.8789,7.8789,7.8789,7.8789,7.8789,7.8789,7.8789,7.8789,7.8789,7.8789,7.8789,7.8789,7.8789,7.8789,7.8789,7.8789,7.8789,7.8789,7.8789,0.0,0.0,6.0445,6.0877,0.0,0.0,0.0,0.0,0.0,0.0,0.0,0.0,0.0,6.2822,0.0,0.0,0.0,0.0,0.0,0.0,6.2822,6.2822,6.1994,6.1215,6.0512,5.9834,5.9483,5.9483,5.9483,5.9483,5.9483,5.9483,5.9483,5.9483,5.9483,5.9483,5.9458,5.9056,5.883,5.8679,5.8252,5.8001,5.7901,5.7901,5.8177,0.0,0.0,0.0,0.0,0.0,0.0,0.0,6.2683,6.5055,6.773,6.8383,6.9715,7.1038,7.1697,7.2265,7.2894,7.3702,7.43,7.4689,7.4839,7.4869,7.4869,7.4869,7.4869,7.4869,7.4869,7.4869,7.4869,7.4869,7.4869,7.4869,7.4869,7.4869,7.5138,7.5826,7.6455,7.7083,7.7741,7.84,7.8789,7.8789,7.8789,7.8789,7.8789,7.8789,7.8789,7.8789,7.8789,7.8789,7.8789,7.8789,7.8789,7.8789,7.8789,7.8789,7.8789,7.8789,7.8789,7.8789,7.8789,7.8789,7.8789,7.8789,7.8789,7.8789,7.8789,7.8789,7.8789,7.8789,7.8789,7.8789,0.0,0.0,0.0,0.0,0.0,0.0,0.0,0.0,0.0,0.0,0.0,0.0,0.0,6.2822,0.0,0.0,0.0,0.0,0.0,0.0,6.2722,6.2446,6.1642,6.0914,6.0337,5.9784,5.9483,5.9483,5.9483,5.9483,5.9483,5.9483,5.9483,5.9483,5.9483,5.9483,5.9483,5.9207,5.9081,5.9056,5.878,5.8654,5.8654,5.8654,5.8855,5.9081,5.9081,0.0,0.0,0.0,0.0,0.0,0.0,0.0,6.7496,6.8644,6.9744,7.0933,7.205,7.2624,7.3163,7.4121,7.4629,7.4869,7.4869,7.4869,7.4869,7.4869,7.4869,7.4869,7.4869,7.4869,7.4869,7.4869,7.4869,7.4869,7.4869,7.4869,7.5258,7.6245,7.6634,7.7203,7.819,7.8579,7.8789,7.8789,7.8789,7.8789,7.8789,7.8789,7.8789,7.8789,7.8789,7.8789,7.8789,7.8789,7.8789,7.8789,7.8789,7.8789,7.8789,7.8789,7.8789,7.8789,7.8789,7.8789,7.8789,7.8789,7.8789,7.8789,7.8789,7.8789,7.8789,7.8789,7.8789,7.8789,0.0,0.0,0.0,0.0,0.0,0.0,0.0,0.0,0.0,0.0,0.0,0.0,0.0,0.0,0.0,0.0,0.0,0.0,0.0,0.0,0.0,6.1893,6.1441,6.0864,6.0186,5.9734,5.9483,5.9483,5.9483,5.9483,5.9483,5.9483,5.9483,5.9483,5.9483,5.9483,5.9483,5.9483,5.9483,5.9483,5.9483,5.9483,5.9483,5.9483,5.9483,5.9483,5.9483,5.9483,5.956,5.9792,0.0,0.0,0.0,0.0,6.6636,6.8779,6.9707,7.04,7.2268,7.3006,7.3522,7.4599,7.4869,7.4869,7.4869,7.4869,7.4869,7.4869,7.4869,7.4869,7.4869,7.4869,7.4869,7.4869,7.4869,7.4869,7.4869,7.4869,7.5347,7.6664,7.6814,7.7352,7.8669,7.8789,7.8789,7.8789,7.8789,7.8789,7.8789,7.8789,7.8789,7.8789,7.8789,7.8789,7.8789,7.8789,7.8789,7.8789,7.8789,7.8789,7.8789,7.8789,7.8789,7.8789,7.8789,7.8789,7.8789,7.8789,7.8789,7.8789,7.8789,7.8789,7.8789,7.8789,7.8789,7.8789,0.0,0.0,0.0,0.0,0.0,0.0,0.0,0.0,0.0,0.0,6.2822,6.2822,0.0,0.0,0.0,0.0,0.0,0.0,0.0,0.0,0.0,6.1341,6.1215,6.0688,5.9633,5.9533,5.9483,5.9483,5.9483,5.9483,5.9483,5.9483,5.9483,5.9483,5.9483,5.9483,5.9483,5.9483,5.9483,5.9483,5.9483,5.9483,5.9483,5.9483,5.9483,5.9483,5.9483,5.9483,5.9714,6.1014,6.0736,0.0,0.0,0.0,6.3611,6.6496,6.7839,6.9012,7.1732,7.3559,7.4659,7.4839,7.4869,7.4869,7.4869,7.4869,7.4869,7.4869,7.4869,7.4869,7.4869,7.4869,7.4869,7.4869,7.4869,7.4869,7.4869,7.4869,7.5347,7.6664,7.6814,7.7352,7.8669,7.8789,7.8789,7.8789,7.8789,7.8789,7.8789,7.8789,7.8789,7.8789,7.8789,7.8789,7.8789,7.8789,7.8789,7.8789,7.8789,7.8789,7.8789,7.8789,7.8789,7.8789,7.8789,7.8789,7.8789,7.8789,7.8789,7.8789,7.8789,7.8789,7.8789,7.8789,7.8789,7.8789,0.0,0.0,0.0,0.0,0.0,0.0,0.0,0.0,0.0,0.0,0.0,6.2822,0.0,0.0,0.0,6.2822,0.0,0.0,0.0,0.0,0.0,0.0,6.119,6.0663,5.9508,5.9483,5.9483,5.9483,5.9483,5.9483,5.9483,5.9483,5.9483,5.9483,5.9483,5.9483,5.9483,5.9483,5.9483,5.9483,5.9483,5.9483,5.9483,5.9483,5.9483,5.9483,5.9483,5.9483,5.956,6.0304,6.0074,5.9869,6.2115,0.0,0.0,0.0,6.6566,6.8194,7.15,7.361,7.4869,7.4869,7.4869,7.4869,7.4869,7.4869,7.4869,7.4869,7.4869,7.4869,7.4869,7.4869,7.4869,7.4869,7.4869,7.4869,7.4869,7.4869,7.5347,7.6664,7.6814,7.7352,7.8669,7.8789,7.8789,7.8789,7.8789,7.8789,7.8789,7.8789,7.8789,7.8789,7.8789,7.8789,7.8789,7.8789,7.8789,7.8789,7.8789,7.8789,7.8789,7.8789,7.8789,7.8789,7.8789,7.8789,7.8789,7.8789,7.8789,7.8789,7.8789,7.8789,7.8789,7.8789,7.8789,7.8789,0.0,0.0,0.0,0.0,0.0,0.0,0.0,0.0,0.0,0.0,0.0,0.0,0.0,0.0,0.0,0.0,6.2822,0.0,0.0,0.0,0.0,0.0,0.0,6.0663,5.9508,5.9483,5.9483,5.9483,5.9483,5.9483,5.9483,5.9483,5.9483,5.9483,5.9483,5.9483,5.9483,5.9483,5.9483,5.9483,5.9483,5.9483,5.9483,5.9483,5.9483,5.9483,5.9483,5.9483,5.956,5.9946,5.9792,5.9869,6.1816,6.1816,0.0,0.0,0.0,6.7692,7.0435,7.2423,7.3772,7.4219,7.4288,7.4426,7.48,7.4869,7.4869,7.4869,7.4869,7.4869,7.4869,7.4869,7.4869,7.4869,7.4869,7.4869,7.4869,7.4869,7.5347,7.6664,7.6814,7.7352,7.8669,7.8789,7.8789,7.8789,7.8789,7.8789,7.8789,7.8789,7.8789,7.8789,7.8789,7.8789,7.8789,7.8789,7.8789,7.8789,7.8789,7.8789,7.8789,7.8789,7.8789,7.8789,7.8789,7.8789,7.8789,7.8789,7.8789,7.8789,7.8789,7.8789,7.8789,7.8789,7.8789,7.8789,0.0,0.0,0.0,0.0,0.0,0.0,0.0,0.0,0.0,0.0,0.0,0.0,6.2822,6.2822,6.2822,6.2822,6.2822,6.2822,6.2822,6.2822,0.0,0.0,0.0,0.0,5.9508,5.9483,5.9483,5.9483,5.9483,5.9483,5.9483,5.9483,5.9483,5.9483,5.9483,5.9483,5.9483,5.9483,5.9483,5.9483,5.9483,5.9483,5.9483,5.9483,5.9483,5.9483,5.9483,5.9483,5.9714,6.1165,6.0736,5.9997,6.3152,6.204,6.0227,0.0,0.0,0.0,6.782,6.9079,7.0696,7.22,7.2657,7.3011,7.4564,7.4869,7.4869,7.4869,7.4869,7.4869,7.4869,7.4869,7.4869,7.4869,7.4869,7.4869,7.4869,7.4869,7.5347,7.6664,7.6814,7.7352,7.8669,7.8789,7.8789,7.8789,7.8789,7.8789,7.8789,7.8789,7.8789,7.8789,7.8789,7.8789,7.8789,7.8789,7.8789,7.8789,7.8789,7.8789,7.8789,7.8789,7.8789,7.8789,7.8789,7.8789,7.8789,7.8789,7.8789,7.8789,7.8789,7.8789,7.8789,7.8789,7.8789,7.8789,0.0,0.0,0.0,0.0,0.0,0.0,0.0,0.0,0.0,0.0,0.0,0.0,0.0,6.2822,6.2822,6.2822,6.2822,6.2822,6.2822,6.2822,0.0,0.0,0.0,0.0,5.9508,5.9483,5.9483,5.9483,5.9483,5.9483,5.9483,5.9483,5.9483,5.9483,5.9483,5.9483,5.9483,5.9483,6.0074,6.0964,6.0964,6.1617,6.2413,6.1391,6.0964,6.0888,5.9869,5.9483,5.956,6.015,5.992,5.9714,6.0812,6.0457,6.0021,6.2513,6.4199,6.5619,6.7016,6.8549,6.9885,7.0402,7.1524,7.2657,7.3252,7.4149,7.4869,7.4869,7.4869,7.4869,7.4869,7.4869,7.4869,7.4869,7.4869,7.4869,7.4869,7.4869,7.5347,7.6664,7.6814,7.7352,7.8669,7.8789,7.8789,7.8789,7.8789,7.8789,7.8789,7.8789,7.8789,7.8789,7.8789,7.8789,7.8789,7.8789,7.8789,7.8789,7.8789,7.8789,7.8789,7.8789,7.8789,7.8789,7.8789,7.8789,7.8789,7.8789,7.8789,7.8789,7.8789,7.8789,7.8789,7.8789,7.8789,7.8789,0.0,0.0,0.0,0.0,0.0,0.0,0.0,0.0,6.2822,6.2822,0.0,0.0,0.0,0.0,6.2822,6.2822,6.2822,6.2822,6.2822,6.2822,6.2345,0.0,0.0,0.0,5.9508,5.9483,5.9483,5.9483,5.9483,5.9483,5.9483,5.9483,5.9483,5.9483,5.9483,5.9483,5.9483,6.0074,6.0888,6.1842,6.2413,6.3299,6.4002,6.2413,6.2115,6.2413,6.0812,6.0304,6.0304,6.0304,6.0431,6.0507,5.9914,5.991,6.037,6.1788,6.2871,6.3984,6.5586,6.6963,6.8111,6.8792,6.9913,7.119,7.23,7.3322,7.4288,7.48,7.4869,7.4869,7.4869,7.4869,7.4869,7.4869,7.4869,7.4869,7.4869,7.4869,7.5347,7.6664,7.6814,7.7352,7.8669,7.8789,7.8789,7.8789,7.8789,7.8789,7.8789,7.8789,7.8789,7.8789,7.8789,7.8789,7.8789,7.8789,7.8789,7.8789,7.8789,7.8789,7.8789,7.8789,7.8789,7.8789,7.8789,7.8789,7.8789,7.8789,7.8789,7.8789,7.8789,7.8789,7.8789,7.8789,7.8789,7.8789,0.0,0.0,6.2822,6.2822,0.0,0.0,0.0,0.0,6.2822,6.2822,0.0,0.0,0.0,0.0,0.0,6.2822,6.2822,6.2822,6.2822,6.2822,6.2345,6.124,0.0,0.0,5.9508,5.9483,5.9483,5.9483,5.9483,5.9483,5.9483,5.9483,5.9483,5.9483,5.9483,5.9508,5.9637,6.1165,6.1842,6.1966,6.3665,6.4319,6.4147,6.2561,6.2931,6.4102,6.2439,6.1868,6.1868,6.1868,6.226,6.2529,6.0936,6.0817,6.119,6.119,6.1886,6.2691,0.0,0.0,0.0,6.7195,6.7707,6.8593,7.1625,7.2372,7.287,7.4495,7.48,7.4869,7.4869,7.4869,7.4869,7.4869,7.4869,7.4869,7.4869,7.4869,7.5347,7.6664,7.6814,7.7352,7.8669,7.8789,7.8789,7.8789,7.8789,7.8789,7.8789,7.8789,7.8789,7.8789,7.8789,7.8789,7.8789,7.8789,7.8789,7.8789,7.8789,7.8789,7.8789,7.8789,7.8789,7.8789,7.8789,7.8789,7.8789,7.8789,7.8789,7.8789,7.8789,7.8789,7.8789,7.8789,7.8789,7.8789,0.0,0.0,6.2822,6.2822,6.2822,6.2822,6.2822,6.2822,6.2822,0.0,0.0,0.0,6.2822,6.2822,6.2822,6.2822,6.2822,6.2822,6.2822,6.2822,6.2345,6.124,6.119,6.0663,5.9508,5.9483,5.9483,5.9483,5.9483,5.9483,5.9483,5.9483,5.9483,5.9483,5.9483,6.015,6.1165,6.1617,6.2487,6.3638,6.5253,6.6553,6.7374,6.5751,6.5744,6.6346,6.4725,6.3734,6.3147,6.3147,6.3252,6.3306,6.2844,6.2014,6.1266,6.1667,6.2189,6.2607,6.2876,0.0,0.0,0.0,0.0,0.0,6.882,6.9988,7.1234,7.2799,7.3181,7.3533,7.4731,7.4869,7.4869,7.4869,7.4869,7.4869,7.4869,7.4869,7.5347,7.6664,7.6814,7.7352,7.8669,7.8789,7.8789,7.8789,7.8789,7.8789,7.8789,7.8789,7.8789,7.8789,7.8789,7.8789,7.8789,7.8789,7.8789,7.8789,7.8789,7.8789,7.8789,7.8789,7.8789,7.8789,7.8789,7.8789,7.8789,7.8789,7.8789,7.8789,7.8789,7.8789,7.8789,7.8789,7.8789,7.8789,6.2822,6.2822,6.2822,6.2822,6.2822,6.2822,6.2822,6.2822,6.2822,0.0,0.0,0.0,6.2822,6.2822,6.2822,6.2822,6.2822,6.2822,6.2822,6.2621,6.2094,6.1215,6.0939,6.0412,5.9508,5.9483,5.9483,5.9483,5.9483,5.9483,5.9483,5.9483,5.9483,5.9483,5.9483,6.038,6.1842,6.2487,6.3711,6.5324,6.686,6.8022,6.8596,6.7069,6.7325,6.8215,6.6596,6.5865,6.564,6.564,6.4896,6.4088,6.5019,6.3752,6.1943,6.2245,6.2507,6.2719,6.2991,6.3554,6.4119,6.436,0.0,0.0,6.7553,6.9018,7.0549,7.2128,7.3011,7.3772,7.4731,7.4869,7.4869,7.4869,7.4869,7.4869,7.4869,7.4869,7.5347,7.6664,7.6814,7.7352,7.8669,7.8789,7.8789,7.8789,7.8789,7.8789,7.8789,7.8789,7.8789,7.8789,7.8789,7.8789,7.8789,7.8789,7.8789,7.8789,7.8789,7.8789,7.8789,7.8789,7.8789,7.8789,7.8789,7.8789,7.8789,7.8789,7.8789,7.8789,7.8789,7.8789,7.8819,7.9118,7.9238,7.9267,0.0,6.2822,6.2822,6.2822,6.2822,6.2822,6.2822,6.2822,6.2822,0.0,6.2822,6.2822,6.2822,6.2822,6.2822,6.2822,6.2822,6.2822,6.2822,6.232,6.1768,6.1215,6.0638,6.006,5.9508,5.9483,5.9483,5.9483,5.9483,5.9483,5.9483,5.9483,5.9483,5.9483,5.9714,6.0584,6.219,6.3811,6.5324,6.686,6.8256,6.8828,6.8692,6.7362,6.8136,6.9735,6.8315,6.8171,6.8606,6.8678,6.7005,6.5288,6.7233,6.5713,6.3204,6.2985,6.2904,6.2985,6.3392,6.3797,6.42,6.4627,6.5,0.0,6.7195,6.8566,7.0033,7.1625,7.3111,7.412,7.4357,7.4357,7.4357,7.4357,7.4495,7.4731,7.4869,7.4869,7.5347,7.6664,7.6814,7.7352,7.8669,7.8789,7.8789,7.8789,7.8789,7.8789,7.8789,7.8789,7.8789,7.8789,7.8789,7.8789,7.8789,7.8789,7.8789,7.8789,7.8789,7.8789,7.8789,7.8789,7.8789,7.8789,7.8878,7.8908,7.8908,7.8968,7.8968,7.8908,7.8908,7.8938,7.9088,7.9686,7.9926,8.0016,6.2822,6.2822,6.2822,6.2822,6.2822,6.2822,6.2822,6.2822,6.2822,6.2822,6.2822,6.2822,6.2822,6.2822,6.2822,6.2822,6.2822,6.2822,6.2822,6.232,6.1768,6.1215,6.0638,6.006,5.9508,5.9483,5.9483,5.9483,5.9483,5.9483,5.9483,5.9483,5.9483,5.956,6.0812,6.2264,6.3857,6.5396,6.693,6.8392,6.8692,6.8828,6.8818,6.9106,6.9753,7.0529,7.0812,7.0435,6.99,7.0137,6.9087,6.7692,6.8408,6.7319,6.5503,6.4254,6.3878,6.3797,6.3554,6.3797,6.4119,6.42,6.4601,0.0,6.5687,6.6132,6.6808,6.8393,6.897,6.9542,7.0769,7.106,7.106,7.106,7.2128,7.3392,7.4731,7.4869,7.5347,7.6664,7.6814,7.7352,7.8669,7.8789,7.8789,7.8789,7.8789,7.8789,7.8789,7.8789,7.8789,7.8789,7.8789,7.8789,7.8789,7.8789,7.8789,7.8789,7.8789,7.8789,7.8789,7.8789,7.8789,7.8819,7.9387,7.9627,7.9656,8.0195,8.0105,7.9627,7.9627,7.9926,8.0434,8.0554,8.0614,8.0614,6.2822,6.2822,6.2822,6.2822,6.2822,6.2822,6.2822,6.2822,6.2822,6.2822,6.2822,6.2822,6.2822,6.2822,6.2822,6.2822,6.2822,6.2722,6.2446,6.1893,6.1341,6.0788,6.0211,5.9784,5.9508,5.9483,5.9483,5.9483,5.9483,5.9483,5.9483,5.9483,5.9483,5.956,6.1089,6.2264,6.3152,6.5467,6.693,6.7719,6.846,6.9002,6.935,6.9641,7.0366,7.1237,7.1557,7.1553,7.1465,7.1827,7.0311,6.8566,6.9737,6.7855,6.5318,6.5318,6.4735,6.4064,6.3878,6.4119,6.4466,6.4466,6.4761,0.0,0.0,6.5975,6.6808,6.7657,6.8366,6.9168,6.9959,7.0107,7.0107,7.0107,7.1452,7.2515,7.2485,7.3911,7.5347,7.6664,7.6814,7.7352,7.8669,7.8789,7.8789,7.8789,7.8789,7.8789,7.8789,7.8789,7.8789,7.8789,7.8789,7.8789,7.8789,7.8789,7.8789,7.8789,7.8789,7.8789,7.8789,7.8789,7.8968,7.9327,7.9656,8.0016,8.0345,8.0674,8.0794,8.0764,8.0434,8.0494,8.0823,8.1183,8.1302,8.1332,6.2822,6.2822,6.2822,6.2822,6.2822,6.2822,6.2822,6.2822,6.2822,6.2822,6.2822,6.2822,6.2822,6.2822,6.2822,6.2822,6.2822,6.2647,6.2195,6.1642,6.114,6.0663,6.001,5.9659,5.9659,5.9558,5.9483,5.9483,5.9483,5.9483,5.9483,5.9483,5.9483,5.956,6.1089,6.1842,6.1992,6.5292,6.6651,6.682,6.8475,6.9437,6.9815,7.0047,7.0773,7.1702,7.1818,7.2195,7.2602,7.2673,7.1247,6.957,7.0283,6.8083,6.5398,6.5975,6.5239,6.4225,6.4039,6.4386,6.4786,6.4707,6.5079,6.5371,0.0,0.0,0.0,6.7349,6.8366,6.9215,6.9215,6.9215,6.9215,6.9215,7.0577,7.1162,6.9811,7.2128,7.4454,7.5685,7.6431,7.7181,7.8206,7.8644,7.8789,7.8789,7.8789,7.8789,7.8789,7.8789,7.8789,7.8789,7.8789,7.8789,7.8789,7.8789,7.8789,7.8789,7.8789,7.8789,7.8789,7.8938,7.9297,7.9836,8.0075,8.0494,8.1003,8.1123,8.1482,8.1901,8.1242,8.1063,8.1242,8.1781,8.1961,8.205,6.2822,6.2822,6.2822,6.2822,6.2822,6.2822,6.2822,6.2822,6.2822,6.2822,6.2822,6.2822,6.2822,6.2822,6.2822,6.2822,6.2822,6.2797,6.2747,6.222,6.1893,6.1818,6.0788,6.0236,6.0236,5.9734,5.9483,5.9483,5.9483,5.9483,5.9483,5.9483,5.9483,5.956,6.1089,6.1842,6.2018,6.5733,6.7297,6.7495,6.9597,7.0221,6.9902,7.1034,7.1557,7.1731,7.2311,7.2544,7.2459,7.1335,7.1942,7.2573,6.8765,6.8463,6.884,6.5897,6.484,6.4521,6.3797,6.42,6.4707,6.428,6.4761,6.5371,6.5371,0.0,6.5687,6.5687,0.0,6.5897,6.5897,0.0,0.0,6.5897,6.7245,6.8241,6.8089,6.9542,7.1103,7.2349,7.5085,7.6724,7.6574,7.7931,7.8789,7.8789,7.8789,7.8789,7.8789,7.8789,7.8789,7.8789,7.8789,7.8789,7.8789,7.8789,7.8789,7.8789,7.8789,7.8789,7.8819,7.9417,7.9746,7.9896,8.1063,8.1601,8.1721,8.229,8.2589,8.2589,8.1931,8.202,8.2559,8.2619,8.2649,8.2649,6.2822,6.2822,6.2822,6.2822,6.2822,6.2822,6.2822,6.2822,6.2822,6.2822,6.2822,6.2822,6.2822,6.2822,6.2822,6.2822,6.2822,6.2697,6.237,6.2144,6.1868,6.1542,6.1065,6.0663,6.0337,6.0085,5.9809,5.9483,5.9483,5.9483,5.9483,5.9483,5.9659,6.0038,6.1606,6.2016,6.1762,6.6066,6.7441,6.6743,6.8979,6.9693,6.9494,7.0035,7.0462,7.0977,7.2128,7.2,7.132,7.2186,7.1219,6.9793,7.0943,6.9439,6.7372,6.7218,6.6184,6.5,6.4441,6.4681,6.5079,6.492,6.5159,6.5371,6.5371,6.5371,6.5371,6.5371,0.0,0.0,0.0,0.0,0.0,0.0,6.673,6.7503,6.6523,6.8819,7.0978,7.1878,7.3192,7.46,7.6172,7.6914,7.7784,7.8717,7.7931,7.7784,7.8789,7.8789,7.8789,7.8789,7.8789,7.8789,7.8789,7.8789,7.8789,7.8789,7.8789,7.846,7.7901,7.8195,7.8167,7.7992,7.9606,8.0459,8.0889,8.224,8.2176,8.1164,8.09,8.0959,8.1194,8.1194,8.1194,8.1194,6.2822,6.2822,6.2822,6.2822,6.2822,6.2822,6.2822,6.2822,6.2822,6.2822,6.2822,6.2822,6.2822,6.2822,6.2822,6.2822,6.2822,6.2647,6.2245,6.222,6.2044,6.1642,6.1492,6.1215,6.0788,6.0638,6.0362,5.996,5.996,5.996,5.996,5.996,6.0161,6.0641,6.1762,6.1862,6.1508,6.5555,6.6582,6.5738,6.7957,6.8503,6.8205,6.9122,7.0018,7.1028,7.2172,7.1566,7.0487,7.2215,7.056,6.829,7.1654,6.9867,6.6808,6.7958,6.6936,6.5318,6.4761,6.5,6.5397,6.5238,6.5318,6.5371,6.5371,6.5371,6.5371,6.5371,6.5371,0.0,0.0,0.0,6.5371,6.5371,0.0,6.6997,6.5791,6.802,6.995,7.0606,7.1351,7.2833,7.5372,7.561,7.6288,7.8004,7.6988,7.6988,7.8717,7.8397,7.8325,7.8789,7.8325,7.8325,7.8789,7.8789,7.8542,7.8077,7.8284,7.7694,7.6512,7.6857,7.6864,7.657,7.8078,7.8976,7.9488,8.0805,8.0542,7.9408,7.9408,7.9089,7.874,7.9725,8.0149,8.0149,6.2822,6.2822,6.2822,6.2822,6.2822,6.2822,6.2822,6.2822,6.2822,6.2822,6.2822,6.2822,6.2822,6.2822,6.2822,6.2822,6.2822,6.2822,6.2797,6.2797,6.2797,6.2772,6.227,6.1969,6.1943,6.1441,6.114,6.114,6.114,6.114,6.114,6.114,6.114,6.1165,6.1245,6.1245,6.1374,6.3648,6.456,6.4768,6.6895,6.6856,6.5791,6.8943,7.1174,7.253,7.2602,7.1566,7.0192,7.0294,7.0459,7.0357,6.897,6.8998,6.9073,6.7195,6.6054,6.5212,6.436,6.4761,6.5318,6.492,6.5079,6.5371,6.5371,6.5371,6.5371,6.5371,6.5371,6.5371,6.5371,6.5371,6.5371,6.5371,6.5947,0.0,0.0,6.634,6.6629,6.718,6.9642,7.1978,7.3739,7.3894,7.459,7.6213,7.6288,7.6988,7.8717,7.724,7.7136,7.8789,7.724,7.7166,7.8789,7.8789,7.8004,7.6392,7.6956,7.6406,7.4828,7.598,7.6514,7.6518,7.7216,7.7607,7.7607,7.7607,7.7607,7.7607,7.7607,7.6539,7.5483,7.8849,8.0149,8.0149,6.2822,6.2822,6.2822,6.2822,6.2822,6.2822,6.2822,6.2822,6.2822,6.2822,6.2822,6.2822,6.2822,6.2822,6.2822,6.2822,6.2822,6.2822,6.2822,6.2822,6.2822,6.2822,6.2647,6.237,6.2019,6.1818,6.1542,6.119,6.119,6.119,6.119,6.119,6.1391,6.1718,6.1718,6.1943,6.2351,6.4241,6.5005,6.5084,6.5817,6.6417,6.7088,6.9346,6.9196,6.8034,7.0266,6.9941,6.8792,7.0062,6.9941,6.9495,7.1364,7.0192,6.8013,6.8111,6.6859,6.5318,6.4681,6.5,6.5397,6.5238,6.5318,6.5371,6.5371,6.5371,6.5371,6.5371,6.5371,6.5501,6.5894,6.5972,6.6103,6.6442,6.6678,6.6704,0.0,6.6286,6.6625,6.7566,6.9508,7.1144,7.2057,7.2192,7.327,7.6063,7.5278,7.5837,7.8644,7.724,7.7062,7.8717,7.7166,7.6542,7.7166,7.7531,7.688,7.5243,7.6982,7.6536,7.4198,7.5808,7.5517,7.3801,7.5149,7.5818,7.5901,7.7034,7.6787,7.5818,7.5818,7.4666,7.3435,7.5818,7.6622,7.6787,6.2822,6.2822,6.2822,6.2822,6.2822,6.2822,6.2822,6.2822,6.2822,6.2822,6.2822,6.2822,6.2822,6.2822,6.2822,6.2822,6.2822,6.2822,6.2822,6.2822,6.2822,6.2822,6.2822,6.2672,6.2295,6.2295,6.2119,6.1768,6.1768,6.1768,6.1768,6.1768,6.1943,6.2295,6.2295,6.2496,6.2904,6.3988,6.4443,6.4443,6.4443,6.5055,6.6105,6.7806,6.7909,6.7192,6.8744,6.8263,6.7242,6.9691,6.9093,6.7909,7.1465,6.9867,6.6936,6.7806,6.7064,6.5897,6.5212,6.5608,6.6132,6.5529,6.5371,6.5371,6.5371,6.5371,6.5449,6.5658,6.5711,6.5867,6.6469,6.6573,6.6704,6.7044,6.7279,6.72,0.0,6.6573,6.6861,6.7592,6.8781,6.983,7.0338,7.0204,7.1574,7.5126,7.4237,0.0,0.0,7.6288,7.5913,7.6988,7.5383,7.4934,7.5698,7.6128,7.5591,7.4153,7.5887,7.5398,7.3015,7.4382,7.406,7.2385,7.3435,7.3951,7.4096,7.5173,7.5004,7.3951,7.3951,7.3289,7.256,7.4267,7.492,7.5089,6.2822,6.2822,6.2822,6.2822,6.2822,6.2822,6.2822,6.2822,6.2822,6.2822,6.2822,6.2822,6.2822,6.2822,6.2822,6.2822,6.2822,6.2822,6.2822,6.2822,6.2822,6.2822,6.2822,6.2822,6.2822,6.2822,6.2822,6.2822,6.2822,6.2822,6.2822,6.2822,6.2822,6.2822,6.2822,6.2822,6.2822,6.2822,6.2822,6.2822,6.2822,6.2822,6.3067,6.4603,6.7141,6.9747,6.8159,6.6572,6.5739,6.8895,6.7985,6.5975,6.9121,6.8187,6.5975,6.6497,6.6754,6.6728,6.5661,6.6523,6.7349,6.5766,6.5371,6.5397,6.5423,6.5423,6.5606,6.6207,6.6312,6.6495,6.7044,6.7148,6.7119,6.7227,0.0,0.0,6.7227,6.7148,6.7148,6.7174,6.7671,6.8194,6.8743,6.8298,6.9614,7.3343,0.0,0.0,0.0,7.459,7.3739,7.3816,7.2219,7.2361,7.4535,7.4591,7.4128,7.3045,7.367,7.3068,7.1461,7.2123,7.2385,7.2297,7.2297,7.2297,7.2297,7.2297,7.2297,7.2297,7.2297,7.2323,7.2499,7.4208,7.4777,7.4805,6.2822,6.2822,6.2822,6.2822,6.2822,6.2822,6.2822,6.2822,6.2822,6.2822,6.2822,6.2822,6.2822,6.2822,6.2822,6.2822,6.2822,6.2822,6.2822,6.2822,6.2822,6.2822,6.2822,6.2822,6.2822,6.2822,6.2822,6.2822,6.2822,6.2822,6.2822,6.2822,6.2822,6.2822,6.2822,6.2822,6.2822,6.2822,6.2822,6.2822,6.2822,6.3529,6.4603,6.3746,6.4763,6.6521,6.6053,6.5661,6.545,6.6288,6.6805,6.7242,6.8387,6.7499,6.5975,6.6366,6.6028,6.5292,6.4601,6.5212,6.5845,6.5159,6.5159,6.5501,6.5946,6.605,6.6207,6.6756,6.6887,6.707,6.7645,6.7775,6.7906,6.8324,6.8168,6.7932,6.7775,6.7383,6.7279,6.7723,6.7906,6.8037,6.8194,6.8063,6.8886,7.1216,7.1569,0.0,7.4359,7.2877,7.2482,7.3739,7.2631,7.2233,7.2856,7.365,7.3367,7.1834,7.3729,7.3711,7.2149,7.3528,7.3522,7.2297,7.2297,7.2297,7.2297,7.2297,7.2297,7.2297,7.2297,7.2533,7.2934,7.2927,7.3206,7.3549,6.2822,6.2822,6.2822,6.2822,6.2822,6.2822,6.2822,6.2822,6.2822,6.2822,6.2822,6.2822,6.2822,6.2822,6.2822,6.2822,6.2822,6.2822,6.2822,6.2822,6.2822,6.2822,6.2822,6.2822,6.2822,6.2822,6.2822,6.2822,6.2822,6.2822,6.2822,6.2822,6.2822,6.2822,6.2822,6.2822,6.2822,6.2822,6.2822,6.2822,6.2822,6.3367,0.0,6.3148,6.3367,6.4203,6.4203,6.4203,6.4283,6.5055,6.5424,6.5739,6.6728,6.587,6.4657,6.5055,6.5239,6.5107,6.428,6.5107,6.5949,6.5,6.5287,6.5867,6.6207,6.6469,6.6782,6.7357,6.7488,6.7671,6.8246,6.8377,6.8481,6.8711,6.8377,6.7985,6.7985,6.7697,6.7514,6.7592,6.7828,6.788,6.7619,6.7828,6.859,7.0011,7.0605,7.1331,0.0,7.1656,7.1419,7.1632,7.1282,7.1243,7.151,7.2418,7.252,7.1801,7.313,7.3289,7.2297,7.3289,7.3203,7.2297,7.2297,7.2297,7.2297,7.2297,7.2297,7.2323,7.2559,7.3003,7.3474,7.316,7.3238,7.35,6.2822,6.2822,6.2822,6.2822,6.2822,6.2822,6.2822,6.2822,6.2822,6.2822,6.2822,6.2822,6.2822,6.2822,6.2822,6.2822,6.2822,6.2822,6.2822,6.2822,6.2822,6.2822,6.2822,6.2822,6.2822,6.2822,6.2822,6.2822,6.2822,6.2822,6.2822,6.2822,6.2822,6.2822,6.2822,6.2822,6.2822,6.2822,6.2822,6.2822,6.2822,6.2822,6.2822,6.2822,6.2822,6.2822,6.2822,6.2822,6.2985,6.4443,6.3988,6.3067,6.4523,6.3988,6.2904,6.3311,6.4443,6.5266,6.4254,6.5371,6.655,6.5183,6.5652,6.6416,6.6495,6.6861,6.7383,6.7985,6.8089,6.8246,6.8743,6.8764,6.8764,6.8764,6.8429,6.8089,6.8089,6.8089,6.788,6.7279,6.7723,0.0,6.7044,6.7592,6.8403,6.9342,6.9853,7.0178,7.0259,7.0664,7.0283,6.8952,6.9501,7.0102,7.0703,7.1252,7.1775,7.2297,7.2297,7.2297,7.2297,7.2297,7.2297,7.2297,7.2297,7.235,7.2402,7.2402,7.2454,7.2559,7.3055,7.3604,7.4127,7.4127,7.4179,7.4232,6.2822,6.2822,6.2822,6.2822,6.2822,6.2822,6.2822,6.2822,6.2822,6.2822,6.2822,6.2822,6.2822,6.2822,6.2822,6.2822,6.2822,6.2822,6.2822,6.2822,6.2822,6.2822,6.2822,6.2822,6.2822,6.2822,6.2822,6.2822,6.2822,6.2822,6.2822,6.2822,6.2822,6.2822,6.2822,6.2822,6.2822,6.2822,6.2822,6.2822,6.2822,6.2822,6.2822,6.2822,6.2822,6.2822,6.2822,6.2822,6.2822,6.3123,6.3067,6.2822,6.3148,6.3067,6.2822,6.2904,6.3367,6.3771,6.323,6.4453,6.5675,6.5136,6.5981,6.7122,6.7592,6.7749,6.8011,6.8586,6.869,6.8716,6.8738,6.8764,6.8764,6.8764,6.8769,6.869,6.869,6.869,6.8481,6.7906,6.835,6.8089,6.6573,6.7383,6.8097,6.8238,6.8398,6.8662,6.9053,0.0,6.8891,0.0,7.0128,7.0703,0.0,0.0,7.2193,7.2297,7.2297,7.2297,7.2297,7.2297,7.2297,7.2297,7.2297,7.2559,7.2977,7.2977,7.3264,7.3709,7.3813,7.4205,7.4754,7.4754,7.5042,7.5355,6.2822,6.2822,6.2822,6.2822,6.2822,6.2822,6.2822,6.2822,6.2822,6.2822,6.2822,6.2822,6.2822,6.2822,6.2822,6.2822,6.2822,6.2822,6.2822,6.2822,6.2822,6.2822,6.2822,6.2822,6.2822,6.2822,6.2822,6.2822,6.2822,6.2822,6.2822,6.2822,6.2822,6.2822,6.2822,6.2822,6.2822,6.2822,6.2822,6.2822,6.2822,6.2822,6.2822,6.2822,6.2822,6.2822,6.2822,6.2822,6.2822,6.2822,6.2822,6.2822,6.2822,6.2822,6.2822,6.2822,6.2985,6.3143,6.3281,6.4107,6.5042,6.5324,6.6331,6.7316,6.785,6.822,6.8507,6.8795,6.8764,6.8764,6.8764,6.8764,6.8764,6.8764,6.8764,6.8764,6.8764,6.8764,6.8638,6.8063,6.8481,6.8403,6.7279,6.7932,6.8063,6.7174,6.7357,6.7775,6.8377,0.0,6.8507,0.0,0.0,0.0,7.1382,0.0,7.2297,7.2297,7.2297,7.2297,7.2297,7.2297,7.2454,7.2716,7.2716,7.3055,7.3578,7.3578,7.3918,7.4467,7.4467,7.4833,7.5329,7.5329,7.5486,7.5669,6.2822,6.2822,6.2822,6.2822,6.2822,6.2822,6.2822,6.2822,6.2822,6.2822,6.2822,6.2822,6.2822,6.2822,6.2822,6.2822,6.2822,6.2822,6.2822,6.2822,6.2822,6.2822,6.2822,6.2822,6.2822,6.2822,6.2822,6.2822,6.2822,6.2822,6.2822,6.2822,6.2822,6.2822,6.2822,6.2822,6.2822,6.2822,6.2822,6.2822,6.2822,6.2822,6.2822,6.2822,6.2822,6.2822,6.2822,6.2822,6.2822,6.2822,6.2822,6.2822,6.2822,6.2822,6.2822,6.2822,6.2923,6.3099,6.3576,6.4158,6.485,6.5805,6.6759,6.7587,6.7919,6.845,6.8764,6.868,6.8764,6.8764,6.8764,6.8764,6.8764,6.8764,6.8764,6.8764,6.8764,6.8764,6.8638,6.8063,6.8377,6.8429,6.7854,6.8115,6.7775,6.6547,6.6965,6.7488,6.7958,0.0,0.0,0.0,0.0,7.1043,7.1592,0.0,7.2297,7.2297,7.2297,7.2376,7.248,7.248,7.2768,7.3291,7.3291,7.363,7.4205,7.431,7.465,7.5068,7.5068,7.5329,7.5721,7.5721,7.5721,7.5721,6.2822,6.2822,6.2822,6.2822,6.2822,6.2822,6.2822,6.2822,6.2822,6.2822,6.2822,6.2822,6.2822,6.2822,6.2822,6.2822,6.2822,6.2822,6.2822,6.2822,6.2822,6.2822,6.2822,6.2822,6.2822,6.2822,6.2822,6.2822,6.2822,6.2822,6.2822,6.2822,6.2822,6.2822,6.2822,6.2822,6.2822,6.2822,6.2822,6.2822,6.2822,6.2822,6.2822,6.2822,6.2822,6.2822,6.2822,6.2822,6.2822,6.2822,6.2822,6.2822,6.2822,6.2822,6.2822,6.2822,6.3199,6.3626,6.3676,6.4738,6.6001,6.6496,6.7377,6.8125,6.8209,6.8487,6.868,6.8371,6.8513,6.8764,6.8764,6.8764,6.8764,6.8764,6.8764,6.8764,6.8764,6.8764,6.8638,6.8063,6.8037,6.7828,6.7227,6.6782,6.6652,6.6991,6.7566,6.7932,6.7985,0.0,0.0,7.0468,7.1043,7.1618,7.2219,7.2271,7.2297,7.2297,7.2297,7.2559,7.3029,7.3029,7.3369,7.3918,7.3918,7.4258,7.4859,7.5355,7.5591,7.5643,7.5643,7.5669,7.5721,7.5721,7.5721,7.5721,6.2822,6.2822,6.2822,6.2822,6.2822,6.2822,6.2822,6.2822,6.2822,6.2822,6.2822,6.2822,6.2822,6.2822,6.2822,6.2822,6.2822,6.2822,6.2822,6.2822,6.2822,6.2822,6.2822,6.2822,6.2822,6.2822,6.2822,6.2822,6.2822,6.2822,6.2822,6.2822,6.2822,6.2822,6.2822,6.2822,6.2822,6.2822,6.2822,6.2822,6.2822,6.2822,6.2822,6.2822,6.2822,6.2822,6.2822,6.2822,6.2822,6.2822,6.2822,6.2822,6.2822,6.2822,6.2898,6.3249,6.35,6.3827,6.4479,6.5125,6.5807,6.656,6.7069,6.7417,6.7756,6.8093,6.8371,6.8203,6.8513,6.8764,6.8764,6.8764,6.8764,6.8764,6.8764,6.8764,6.8764,6.8764,6.8769,6.8533,6.8507,6.8403,6.8168,6.7645,6.754,6.8089,6.707,6.6887,6.7932,6.8194,0.0,7.0546,0.0,7.1696,7.2297,7.2297,7.2297,7.2297,7.2637,7.2898,7.3108,7.3474,7.397,7.4571,7.4885,7.5172,7.5408,7.5617,7.5721,7.5721,7.5721,7.5721,7.5721,7.5721,7.5721,7.5721,6.2822,6.2822,6.2822,6.2822,6.2822,6.2822,6.2822,6.2822,6.2822,6.2822,6.2822,6.2822,6.2822,6.2822,6.2822,6.2822,6.2822,6.2822,6.2822,6.2822,6.2822,6.2822,6.2822,6.2822,6.2822,6.2822,6.2822,6.2822,6.2822,6.2822,6.2822,6.2822,6.2822,6.2822,6.2822,6.2822,6.2822,6.2822,6.2822,6.2822,6.2822,6.2822,6.2822,6.2822,6.2822,6.2822,6.2822,6.2822,6.2822,6.2822,6.2948,6.3073,6.3073,6.3073,6.3199,6.3751,6.4028,6.4329,6.5082,6.5409,6.572,6.661,6.6797,6.6882,6.7222,6.7671,6.8009,6.8009,6.8261,6.8429,6.8597,6.8597,6.868,6.8764,6.8764,6.8764,6.8764,6.8764,6.8764,6.8764,6.869,6.8664,6.8738,6.8324,6.822,6.8711,6.7331,6.7017,6.8403,6.8481,6.9213,0.0,0.0,0.0,7.2297,7.2297,7.2376,7.2533,7.2925,7.3291,7.3656,7.4232,7.4754,7.5172,7.5565,7.5721,7.5721,7.5721,7.5721,7.5721,7.5721,7.5721,7.5721,7.5721,7.5721,7.5721,6.2822,6.2822,6.2822,6.2822,6.2822,6.2822,6.2822,6.2822,6.2822,6.2822,6.2822,6.2822,6.2822,6.2822,6.2822,6.2822,6.2822,6.2822,6.2822,6.2822,6.2822,6.2822,6.2822,6.2822,6.2822,6.2822,6.2822,6.2822,6.2822,6.2822,6.2822,6.2822,6.2822,6.2822,6.2822,6.2822,6.2822,6.2822,6.2822,6.2822,6.2822,6.2822,6.2822,6.2822,6.2822,6.2822,6.2822,6.2822,6.2822,6.2822,6.3199,6.3676,6.3676,6.3676,6.3776,6.4304,6.4856,6.5283,6.5283,6.5685,6.6197,6.6711,6.6797,6.6797,6.6797,6.7137,6.7477,6.7477,6.7477,6.7671,6.8119,6.8203,6.8371,6.8764,6.8764,6.8764,6.8764,6.8764,6.8764,6.8764,6.835,6.822,6.8711,6.8324,6.822,6.8711,6.8738,6.9056,6.9631,6.9684,7.0206,7.1356,7.1984,0.0,7.2297,7.2297,7.2559,7.3108,7.3108,7.3735,7.4911,7.5434,7.5695,7.5695,7.5721,7.5721,7.5721,7.5721,7.5721,7.5721,7.5721,7.5721,7.5721,7.5721,7.5721,7.5721,6.2822,6.2822,6.2822,6.2822,6.2822,6.2822,6.2822,6.2822,6.2822,6.2822,6.2822,6.2822,6.2822,6.2822,6.2822,6.2822,6.2822,6.2822,6.2822,6.2822,6.2822,6.2822,6.2822,6.2822,6.2822,6.2822,6.2822,6.2822,6.2822,6.2822,6.2822,6.2822,6.2822,6.2822,6.2822,6.2822,6.2822,6.2822,6.2822,6.2822,6.2822,6.2822,6.2822,6.2822,6.2822,6.2822,6.2822,6.3073,6.3425,6.3425,6.3776,6.4279,6.4655,6.453,6.4329,6.4881,6.5157,6.5383,6.576,6.5986,6.6112,6.6283,6.6283,6.6283,6.6283,6.6711,6.7137,6.7392,6.7756,6.8035,6.8203,6.8455,6.868,6.8764,6.8764,6.8764,6.8764,0.0,6.8764,6.8764,6.903,6.9213,6.9396,6.9265,6.9213,6.9422,6.9056,6.9082,6.9657,7.0076,0.0,0.0,7.1984,0.0,7.2297,7.2663,7.2925,7.3108,7.3944,7.4728,7.546,7.5643,7.5721,7.5721,7.5721,7.5721,7.5721,7.5721,7.5721,7.5721,7.5721,7.5721,7.5721,7.5721,7.5721,7.5774,6.2822,6.2822,6.2822,6.2822,6.2822,6.2822,6.2822,6.2822,6.2822,6.2822,6.2822,6.2822,6.2822,6.2822,6.2822,6.2822,6.2822,6.2822,6.2822,6.2822,6.2822,6.2822,6.2822,6.2822,6.2822,6.2822,6.2822,6.2822,6.2822,6.2822,6.2822,6.2822,6.2822,6.2822,6.2822,6.2822,6.2822,6.2822,6.2822,6.2822,6.2822,6.2822,6.2822,6.2822,6.2973,6.3149,6.3149,6.35,6.3977,6.3977,6.4329,6.4831,6.5183,6.5208,6.5157,6.5484,6.5609,6.5685,6.6011,6.6112,6.6112,6.6112,6.6112,6.6112,6.6112,6.6369,6.6626,6.6882,6.7248,6.7502,6.7671,6.7925,6.8177,6.8513,6.8597,6.8597,6.8764,6.903,6.9161,0.0,6.9684,7.0023,7.0023,7.0206,7.0337,7.0337,7.0206,7.0311,7.0651,0.0,7.0938,7.1722,7.2114,7.2402,7.2611,7.2925,7.3343,7.3787,7.4754,7.5382,7.5721,7.5721,7.5721,7.5721,7.5721,7.5721,7.5721,7.5721,7.5721,7.5721,7.5721,7.5721,7.5721,7.5721,7.5852,7.6113,6.2822,6.2822,6.2822,6.2822,6.2822,6.2822,6.2822,6.2822,6.2822,6.2822,6.2822,6.2822,6.2822,6.2822,6.2822,6.2822,6.2822,6.2822,6.2822,6.2822,6.2822,6.2822,6.2822,6.2822,6.2822,6.2822,6.2822,6.2822,6.2822,6.2822,6.2822,6.2822,6.2822,6.2822,6.2822,6.2822,6.2822,6.2822,6.2822,6.2822,6.2822,6.2847,6.2898,6.2898,6.3249,6.3751,6.3751,6.4078,6.453,6.453,6.4881,6.5358,6.5358,6.571,6.6112,6.6112,6.6112,6.6112,6.6112,6.6112,6.6112,6.6112,6.6112,6.6112,6.6112,6.6112,6.6112,6.6112,6.6112,6.6283,6.6711,6.6797,6.7137,6.8035,6.8203,6.8371,6.8732,6.937,6.971,6.9762,7.0285,7.0651,7.0651,7.1147,7.1435,7.1356,7.1931,7.2271,7.2193,0.0,7.12,7.2271,7.235,7.2611,7.3108,7.3186,7.3813,7.4963,7.546,7.5721,7.5721,7.5721,7.5721,7.5721,7.5721,7.5721,7.5721,7.5721,7.5721,7.5721,7.5721,7.5721,7.5721,7.5748,7.614,7.661,6.2822,6.2822,6.2822,6.2822,6.2822,6.2822,6.2822,6.2822,6.2822,6.2822,6.2822,6.2822,6.2822,6.2822,6.2822,6.2822,6.2822,6.2822,6.2822,6.2822,6.2822,6.2822,6.2822,6.2822,6.2822,6.2822,6.2822,6.2822,6.2822,6.2822,6.2822,6.2822,6.2822,6.2822,6.2822,6.2822,6.2822,6.2822,6.2822,6.2822,6.2822,6.3099,6.3475,6.3475,6.3827,6.4279,6.4279,6.463,6.5082,6.5082,6.5459,6.5911,6.5911,6.6011,6.6112,6.6112,6.6112,6.6112,6.6112,6.6112,6.6112,6.6112,6.6112,6.6112,6.6112,6.6112,6.6112,6.6112,6.6369,6.6711,6.6797,6.7052,6.7392,6.7646,6.795,6.8358,6.8916,6.9352,6.9866,0.0,7.086,7.12,7.12,7.1748,7.1722,0.0,7.1722,7.1931,7.1043,7.1565,7.201,7.2297,7.2716,7.2977,7.3108,7.4022,7.4833,7.5512,7.5643,7.5721,7.5721,7.5721,7.5721,7.5721,7.5721,7.5721,7.5721,7.5721,7.5721,7.5721,7.5721,7.5721,7.5774,7.6218,7.6479,7.6741,6.2822,6.2822,6.2822,6.2822,6.2822,6.2822,6.2822,6.2822,6.2822,6.2822,6.2822,6.2822,6.2822,6.2822,6.2822,6.2822,6.2822,6.2822,6.2822,6.2822,6.2822,6.2822,6.2822,6.2822,6.2822,6.2822,6.2822,6.2822,6.2822,6.2822,6.2822,6.2822,6.2822,6.2822,6.2822,6.2973,6.3224,6.3224,6.335,6.3576,6.3576,6.3776,6.4053,6.4053,6.4379,6.4856,6.4856,6.5208,6.566,6.566,6.586,6.6112,6.6112,6.6112,6.6112,6.6112,6.6112,6.6112,6.6112,6.6112,6.6112,6.6112,6.6112,6.6112,6.6112,6.6112,6.6112,6.6112,6.6283,6.6455,6.6455,6.6711,6.6967,6.7137,6.7792,6.8355,6.8613,6.9531,7.0256,7.0568,7.1114,7.1539,7.1801,7.2114,7.2036,7.1409,7.1958,0.0,7.1409,7.2193,7.2663,7.2663,7.2951,7.3369,7.3918,7.4833,7.5434,7.5721,7.5721,7.5721,7.5721,7.5721,7.5721,7.5721,7.5721,7.5721,7.5721,7.5721,7.5721,7.5748,7.6009,7.6113,7.6192,7.6793,7.7159,7.7473,6.2822,6.2822,6.2822,6.2822,6.2898,6.2948,6.2948,6.3023,6.3073,6.3073,6.3073,6.3073,6.3073,6.3073,6.3073,6.3073,6.3073,6.2998,6.2847,6.2822,6.2822,6.2822,6.2822,6.2873,6.2948,6.3048,6.3073,6.3073,6.3073,6.3073,6.3073,6.3073,6.3073,6.3073,6.3073,6.335,6.3802,6.3802,6.4053,6.4454,6.4454,6.4505,6.458,6.458,6.4931,6.5409,6.5409,6.571,6.6112,6.6112,6.6112,6.6112,6.6112,6.6112,6.6112,6.6112,6.6112,6.6112,6.6112,6.6112,6.6112,6.6112,6.6112,6.6112,6.6112,6.6112,6.6112,6.6112,6.6112,6.6112,6.6112,6.6112,6.6223,6.6752,6.7673,6.8313,6.8467,0.0,7.074,7.0817,7.1371,7.1858,7.2297,7.2297,7.2297,7.2297,7.2297,7.235,7.2428,7.2846,7.3186,7.3369,7.3369,7.3918,7.5016,7.5486,7.5721,7.5721,7.5721,7.5721,7.5721,7.5721,7.5721,7.5721,7.5721,7.5721,7.5721,7.5721,7.5774,7.5904,7.6427,7.6662,7.6819,7.7368,7.7891,7.8335,6.2822,6.2822,6.2822,6.2822,6.3224,6.355,6.355,6.3927,6.4228,6.4228,6.4228,6.4228,6.4228,6.4228,6.4228,6.4228,6.4228,6.3827,6.2898,6.2822,6.2822,6.2822,6.2822,6.3048,6.355,6.3977,6.4228,6.4228,6.4228,6.4228,6.4228,6.4228,6.4228,6.4228,6.4228,6.4254,6.4354,6.4354,6.4379,6.4454,6.4454,6.4756,6.5157,6.5157,6.5509,6.5986,6.5986,6.6036,6.6112,6.6112,6.6112,6.6112,6.6112,6.6112,6.6112,6.6112,6.6112,6.6112,6.6112,6.6112,6.6112,6.6112,6.6112,6.6112,6.6112,6.6112,6.6112,6.6112,6.6112,6.6112,6.6112,6.6112,6.6262,6.6851,6.741,6.805,6.9016,0.0,7.0869,7.1387,7.1894,7.221,7.2297,7.2297,7.2297,7.2297,7.2297,7.2506,7.2951,7.3055,7.3578,7.4597,7.4624,7.4937,7.5591,7.5669,7.5721,7.5721,7.5721,7.5721,7.5721,7.5721,7.5721,7.5721,7.5721,7.5721,7.5721,7.5721,7.6009,7.6479,7.6584,7.6898,7.7394,7.7969,7.8231,7.8387,6.3299,6.3525,6.3701,6.3701,6.3927,6.4103,6.4103,6.4304,6.4454,6.4454,6.4454,6.4454,6.4454,6.4454,6.4454,6.4454,6.4454,6.4254,6.3751,6.3701,6.3701,6.3701,6.3701,6.3827,6.4103,6.4354,6.4454,6.4454,6.4454,6.4454,6.4454,6.4454,6.4454,6.4454,6.4454,6.463,6.4906,6.4906,6.5082,6.5358,6.5358,6.5509,6.5735,6.5735,6.5886,6.6112,6.6112,6.6112,6.6112,6.6112,6.6112,6.6112,6.6112,6.6112,6.6112,6.6112,6.6112,6.6112,6.6112,6.6112,6.6112,6.6112,6.6112,6.6112,6.6112,6.6112,6.6112,6.6112,6.6112,6.6112,6.6112,6.6363,6.6664,6.694,6.7818,6.8637,6.8903,6.9739,7.0552,7.0834,7.1037,7.1417,7.1858,7.1946,7.2034,7.2297,7.2559,7.2846,7.3108,7.3735,7.4336,7.4885,7.5199,7.546,7.5721,7.5721,7.5721,7.5721,7.5721,7.5721,7.5721,7.5721,7.5721,7.5721,7.5721,7.5904,7.6192,7.6192,7.6532,7.7107,7.742,7.7682,7.7995,7.857,7.8779,7.8806,6.3877,6.4203,6.4454,6.4454,6.458,6.4655,6.4655,6.4756,6.4856,6.4856,6.4856,6.4856,6.4856,6.4856,6.4856,6.4856,6.4856,6.4856,6.4856,6.4856,6.4731,6.4479,6.458,6.4655,6.4655,6.4781,6.4856,6.4856,6.4856,6.4856,6.4856,6.4856,6.4856,6.4856,6.4856,6.5082,6.5484,6.5484,6.5735,6.6112,6.6112,6.6112,6.6112,6.6112,6.6112,6.6112,6.6112,6.6112,6.6112,6.6112,6.6112,6.6112,6.6112,6.6112,6.6112,6.6112,6.6112,6.6112,6.6112,6.6112,6.6112,6.6112,6.6112,6.6112,6.6112,6.6112,6.6112,6.6112,6.6112,6.6162,6.6287,6.6664,6.7066,6.7317,0.0,6.9029,6.8798,6.9623,7.0235,7.0235,7.0324,7.0681,7.1506,7.1594,7.177,7.2297,7.2794,7.316,7.3317,7.4336,7.4963,7.5094,7.5512,7.5721,7.5721,7.5721,7.5721,7.5721,7.5721,7.5721,7.5721,7.5721,7.5721,7.5721,7.5852,7.6192,7.661,7.6767,7.7159,7.7708,7.8152,7.8414,7.857,7.9015,7.9172,7.9172,6.4404,6.4429,6.4454,6.4454,6.4881,6.5233,6.5233,6.566,6.5986,6.5986,6.5986,6.5986,6.5986,6.5986,6.5986,6.5986,6.5986,6.5986,6.5986,6.5986,6.5534,6.4505,6.4957,6.5233,6.5233,6.5735,6.5986,6.5986,6.5986,6.5986,6.5986,6.5986,6.5986,6.5986,6.5986,6.6011,6.6061,6.6061,6.6061,6.6112,6.6112,6.6112,6.6112,6.6112,6.6112,6.6112,6.6112,6.6112,6.6112,6.6112,6.6112,6.6112,6.6112,6.6112,6.6112,6.6112,6.6112,6.6112,6.6112,6.6112,6.6112,6.6112,6.6112,6.6112,6.6112,6.6112,6.6112,6.6112,6.6112,6.6287,6.6815,6.694,6.7317,6.8346,0.0,0.0,6.93,6.9851,7.0235,7.0235,7.0592,7.1037,7.1594,7.1594,7.177,7.2297,7.2794,7.3343,7.3918,7.4545,7.5146,7.5643,7.5695,7.5721,7.5721,7.5721,7.5721,7.5721,7.5721,7.5721,7.5721,7.5721,7.5721,7.5748,7.6296,7.6558,7.6662,7.7185,7.7734,7.8257,7.8309,7.8649,7.9119,7.9145,7.9172,7.9172,6.4982,6.5258,6.5484,6.5484,6.566,6.581,6.581,6.5986,6.6112,6.6112,6.6112,6.6112,6.6112,6.6112,6.6112,6.6112,6.6112,6.6112,6.6112,6.6112,6.5936,6.5509,6.5685,6.581,6.581,6.6011,6.6112,6.6112,6.6112,6.6112,6.6112,6.6112,6.6112,6.6112,6.6112,6.6112,6.6112,6.6112,6.6112,6.6112,6.6112,6.6112,6.6112,6.6112,6.6112,6.6112,6.6112,6.6112,6.6112,6.6112,6.6112,6.6112,6.6112,6.6112,6.6112,6.6112,6.6112,6.6112,6.6112,6.6112,6.6112,6.6112,6.6112,6.6112,6.6112,6.6112,6.6112,6.6112,6.6388,6.6714,6.694,6.7543,6.8145,6.8547,0.0,6.92,6.9401,6.9541,6.9696,6.9696,6.9901,7.0145,7.0681,7.0681,7.1102,7.1908,7.2719,7.3469,7.4041,7.4912,7.5512,7.5695,7.5721,7.5721,7.5721,7.5721,7.5721,7.5721,7.5721,7.5721,7.5721,7.5721,7.5721,7.5748,7.6349,7.6819,7.7185,7.776,7.8335,7.8858,7.8858,7.8989,7.9172,7.9172,7.9172,7.9172,6.5534,6.586,6.6112,6.6112,6.6112,6.6112,6.6112,6.6112,6.6112,6.6112,6.6112,6.6112,6.6112,6.6112,6.6112,6.6112,6.6112,6.6112,6.6112,6.6112,6.6112,6.6112,6.6112,6.6112,6.6112,6.6112,6.6112,6.6112,6.6112,6.6112,6.6112,6.6112,6.6112,6.6112,6.6112,6.6112,6.6112,6.6112,6.6112,6.6112,6.6112,6.6112,6.6112,6.6112,6.6112,6.6112,6.6112,6.6112,6.6112,6.6112,6.6112,6.6112,6.6112,6.6112,6.6112,6.6112,6.6112,6.6112,6.6112,6.6112,6.6112,6.6112,6.6112,6.6112,6.6112,6.6112,6.6162,6.6338,6.6689,6.7091,6.7417,6.812,6.8673,6.8848,6.92,6.9361,6.9361,6.9361,6.9361,6.9361,6.9361,6.9631,7.0145,7.0323,7.0757,7.1679,7.285,7.3885,7.4547,7.5329,7.5721,7.5721,7.5721,7.5721,7.5721,7.5721,7.5721,7.5721,7.5721,7.5721,7.5721,7.5721,7.58,7.6035,7.661,7.7211,7.776,7.8335,7.8832,7.9172,7.9172,7.9172,7.9172,7.9172,7.9172,7.9172,6.6112,6.6112,6.6112,6.6112,6.6112,6.6112,6.6112,6.6112,6.6112,6.6112,6.6112,6.6112,6.6112,6.6112,6.6112,6.6112,6.6112,6.6112,6.6112,6.6112,6.6112,6.6112,6.6112,6.6112,6.6112,6.6112,6.6112,6.6112,6.6112,6.6112,6.6112,6.6112,6.6112,6.6112,6.6112,6.6112,6.6112,6.6112,6.6112,6.6112,6.6112,6.6112,6.6112,6.6112,6.6112,6.6112,6.6112,6.6112,6.6112,6.6112,6.6112,6.6112,6.6112,6.6112,6.6112,6.6112,6.6112,6.6112,6.6112,6.6112,6.6112,6.6112,6.6112,6.6112,6.6112,6.6112,6.6287,6.6865,6.699,6.7317,6.8422,6.8622,6.8798,6.9351,6.9361,6.9361,6.9361,6.9361,6.9361,6.9361,6.9361,6.9631,7.0145,7.0653,7.1164,7.1615,7.3211,7.4547,7.5603,7.5721,7.5721,7.5721,7.5721,7.5721,7.5721,7.5721,7.5721,7.5721,7.5721,7.5721,7.5721,7.5721,7.6035,7.6636,7.7211,7.7786,7.8361,7.8936,7.9172,7.9172,7.9172,7.9172,7.9172,7.9172,7.9172,7.9172,6.6112,6.6112,6.6112,6.6112,6.6112,6.6112,6.6112,6.6112,6.6112,6.6112,6.6112,6.6112,6.6112,6.6112,6.6112,6.6112,6.6112,6.6112,6.6112,6.6112,6.6112,6.6112,6.6112,6.6112,6.6112,6.6112,6.6112,6.6112,6.6112,6.6112,6.6112,6.6112,6.6112,6.6112,6.6112,6.6112,6.6112,6.6112,6.6112,6.6112,6.6112,6.6112,6.6112,6.6112,6.6112,6.6112,6.6112,6.6112,6.6112,6.6112,6.6112,6.6112,6.6112,6.6112,6.6112,6.6112,6.6112,6.6112,6.6112,6.6112,6.6112,6.6112,6.6112,6.6212,6.6614,6.6714,6.6865,6.7442,6.7869,6.8246,6.8572,6.8949,6.925,6.9336,6.9361,6.9361,6.9361,6.9361,6.9361,6.9361,6.9361,6.9451,6.9606,7.0226,7.0705,7.1266,7.2791,7.4181,7.5169,7.5195,7.5354,7.5721,7.5721,7.5721,7.5721,7.5721,7.5721,7.5721,7.5721,7.5721,7.5721,7.6166,7.6453,7.6662,7.7656,7.8152,7.8361,7.8936,7.9172,7.9172,7.9172,7.9172,7.9172,7.9172,7.9172,7.9172,6.6112,6.6112,6.6112,6.6112,6.6112,6.6112,6.6112,6.6112,6.6112,6.6112,6.6112,6.6112,6.6112,6.6112,6.6112,6.6112,6.6112,6.6112,6.6112,6.6112,6.6112,6.6112,6.6112,6.6112,6.6112,6.6112,6.6112,6.6112,6.6112,6.6112,6.6112,6.6112,6.6112,6.6112,6.6112,6.6112,6.6112,6.6112,6.6112,6.6112,6.6112,6.6112,6.6112,6.6112,6.6112,6.6112,6.6112,6.6112,6.6112,6.6112,6.6112,6.6112,6.6112,6.6112,6.6112,6.6112,6.6112,6.6112,6.6112,6.6112,6.6162,6.6388,6.6463,6.6538,6.689,6.7141,6.7467,6.802,6.8396,6.8698,6.8899,6.9225,6.9361,6.9361,6.9361,6.9361,6.9361,6.9361,6.9361,6.9361,6.9361,6.9526,6.9752,7.0255,7.0999,7.1965,7.2952,7.3894,7.4918,7.501,7.5195,7.5721,7.5721,7.5721,7.5721,7.5721,7.5721,7.5721,7.5721,7.5721,7.5721,7.6323,7.6741,7.7002,7.7917,7.844,7.8675,7.9041,7.9172,7.9172,7.9172,7.9172,7.9172,7.9172,7.9172,7.9172,6.6112,6.6112,6.6112,6.6112,6.6112,6.6112,6.6112,6.6112,6.6112,6.6112,6.6112,6.6112,6.6112,6.6112,6.6112,6.6112,6.6112,6.6112,6.6112,6.6112,6.6112,6.6112,6.6112,6.6112,6.6112,6.6112,6.6112,6.6112,6.6112,6.6112,6.6112,6.6112,6.6112,6.6112,6.6112,6.6112,6.6112,6.6112,6.6112,6.6112,6.6112,6.6112,6.6112,6.6112,6.6112,6.6112,6.6112,6.6112,6.6112,6.6112,6.6112,6.6112,6.6112,6.6112,6.6112,6.6112,6.6112,6.6112,6.6187,6.6187,6.6338,6.6915,6.7091,6.7116,6.7116,6.7518,6.802,6.8572,6.8698,6.8848,6.9351,6.9361,6.9361,6.9361,6.9361,6.9361,6.9361,6.9361,6.9361,6.9361,6.9361,6.9652,7.0204,7.0807,7.1796,7.3349,7.3425,7.3894,7.4825,7.4918,7.5195,7.563,7.5721,7.5721,7.5721,7.5721,7.5721,7.5721,7.5721,7.5748,7.58,7.6427,7.7002,7.7577,7.8152,7.8675,7.9172,7.9172,7.9172,7.9172,7.9172,7.9172,7.9172,7.9172,7.9172,7.9172,6.6112,6.6112,6.6112,6.6112,6.6112,6.6112,6.6112,6.6112,6.6112,6.6112,6.6112,6.6112,6.6112,6.6112,6.6112,6.6112,6.6112,6.6112,6.6112,6.6112,6.6112,6.6112,6.6112,6.6112,6.6112,6.6112,6.6112,6.6112,6.6112,6.6112,6.6112,6.6112,6.6112,6.6112,6.6112,6.6112,6.6112,6.6112,6.6112,6.6112,6.6112,6.6112,6.6112,6.6112,6.6112,6.6112,6.6112,6.6112,6.6112,6.6112,6.6112,6.6112,6.6112,6.6112,6.6112,6.6112,6.6112,6.6212,6.6664,6.6789,6.6915,6.7493,6.7945,6.8271,6.8271,6.8346,6.8597,6.915,6.9275,6.93,6.9426,6.9361,6.9361,6.9361,6.9361,6.9361,6.9361,6.9361,6.9361,6.9361,6.9361,6.9652,7.0204,7.1158,7.2012,7.2785,7.2835,7.3118,7.3801,7.4149,7.4614,7.5103,7.5538,7.5721,7.5721,7.5721,7.5721,7.5721,7.5721,7.5957,7.6427,7.7002,7.7603,7.8178,7.8727,7.9067,7.9172,7.9172,7.9172,7.9172,7.9172,7.9172,7.9172,7.9172,7.9172,7.9172,6.6112,6.6112,6.6112,6.6112,6.6112,6.6112,6.6112,6.6112,6.6112,6.6112,6.6112,6.6112,6.6112,6.6112,6.6112,6.6112,6.6112,6.6112,6.6112,6.6112,6.6112,6.6112,6.6112,6.6112,6.6112,6.6112,6.6112,6.6112,6.6112,6.6112,6.6112,6.6112,6.6112,6.6112,6.6112,6.6112,6.6112,6.6112,6.6112,6.6112,6.6112,6.6112,6.6112,6.6112,6.6112,6.6112,6.6112,6.6112,6.6112,6.6112,6.6112,6.6112,6.6112,6.6112,6.6162,6.6438,6.6538,6.6639,6.7216,6.7367,6.7493,6.8045,6.8396,6.8622,6.8622,6.8823,6.91,6.9285,6.9361,6.9361,6.9361,6.9361,6.9361,6.9361,6.9361,6.9361,6.9361,6.9361,6.9361,6.9361,6.9677,7.0154,7.0958,7.1811,7.2414,7.2715,7.274,7.2929,7.3425,7.3682,7.4056,7.4614,7.5077,7.5354,7.5354,7.563,7.5721,7.5721,7.5721,7.6035,7.6636,7.7211,7.7786,7.8335,7.8936,7.9172,7.9172,7.9172,7.9172,7.9172,7.9172,7.9172,7.9172,7.9172,7.9172,7.9172,6.6112,6.6112,6.6112,6.6112,6.6112,6.6112,6.6112,6.6112,6.6112,6.6112,6.6112,6.6112,6.6112,6.6112,6.6112,6.6112,6.6112,6.6112,6.6112,6.6112,6.6112,6.6112,6.6112,6.6112,6.6112,6.6112,6.6112,6.6112,6.6112,6.6112,6.6112,6.6112,6.6112,6.6112,6.6112,6.6112,6.6112,6.6112,6.6112,6.6112,6.6112,6.6112,6.6112,6.6112,6.6112,6.6112,6.6112,6.6112,6.6112,6.6112,6.6112,6.6112,6.6112,6.6187,6.6363,6.684,6.7041,6.7241,6.7794,6.7945,6.807,6.8622,6.8773,6.8773,6.8773,6.9125,6.9361,6.9361,6.9361,6.9361,6.9361,6.9361,6.9361,6.9361,6.9361,6.9361,6.9361,6.9361,6.9476,6.9577,7.0154,7.0907,7.1811,7.2414,7.274,7.274,7.274,7.2929,7.3331,7.3425,7.3707,7.4056,7.4614,7.4918,7.501,7.5354,7.563,7.5721,7.5826,7.6192,7.6767,7.7342,7.7917,7.8492,7.8962,7.9172,7.9172,7.9172,7.9172,7.9172,7.9172,7.9172,7.9172,7.9172,7.9172,7.9172,6.6112,6.6112,6.6112,6.6112,6.6112,6.6112,6.6112,6.6112,6.6112,6.6112,6.6112,6.6112,6.6112,6.6112,6.6112,6.6112,6.6112,6.6112,6.6112,6.6112,6.6112,6.6112,6.6112,6.6112,6.6112,6.6112,6.6112,6.6112,6.6112,6.6112,6.6112,6.6112,6.6112,6.6112,6.6112,6.6112,6.6112,6.6112,6.6112,6.6112,6.6112,6.6112,6.6112,6.6112,6.6112,6.6112,6.6112,6.6112,6.6112,6.6112,6.6112,6.6112,6.6112,6.6463,6.6865,6.6965,6.7317,6.7819,6.8371,6.8497,6.8648,6.92,6.9325,6.9325,6.9325,6.9401,6.9361,6.9361,6.9361,6.9361,6.9361,6.9361,6.9361,6.9361,6.9361,6.9361,6.9361,6.9361,6.9627,7.0104,7.1058,7.1736,7.1887,7.2414,7.274,7.274,7.274,7.274,7.2835,7.3237,7.3519,7.3613,7.4056,7.4521,7.501,7.5103,7.5262,7.5721,7.6244,7.6793,7.7368,7.7943,7.8518,7.9067,7.9119,7.9172,7.9172,7.9172,7.9172,7.9172,7.9172,7.9172,7.9172,7.9172,7.9172,7.9172,6.6112,6.6112,6.6112,6.6112,6.6112,6.6112,6.6112,6.6112,6.6112,6.6112,6.6112,6.6112,6.6112,6.6112,6.6112,6.6112,6.6112,6.6112,6.6112,6.6112,6.6112,6.6112,6.6112,6.6112,6.6112,6.6112,6.6112,6.6112,6.6112,6.6112,6.6112,6.6112,6.6112,6.6112,6.6112,6.6112,6.6112,6.6112,6.6112,6.6112,6.6112,6.6112,6.6112,6.6112,6.6112,6.6162,6.6488,6.6589,6.6639,6.694,6.7066,6.7066,6.7066,6.7241,6.7493,6.7819,6.807,6.8371,6.8924,6.9074,6.915,6.9285,6.9361,6.9361,6.9361,6.9361,6.9361,6.9361,6.9361,6.9361,6.9361,6.9361,6.9361,6.9361,6.9361,6.9361,6.9361,6.9361,6.9752,7.0606,7.141,7.2037,7.2339,7.259,7.274,7.274,7.274,7.274,7.274,7.2929,7.3024,7.3024,7.3494,7.3869,7.4175,7.4733,7.5103,7.5288,7.6569,7.7211,7.7473,7.8048,7.8623,7.9172,7.9172,7.9172,7.9172,7.9172,7.9172,7.9172,7.9172,7.9172,7.9172,7.9172,7.9172,7.9172]}]]